ECMWFNIL_925_thetae_000.txt.gz
Theta_e
304 303 303 303 303 304 304 305 305 305 306 307 307 308 308 308 309 309 310 311 312 312 313 313 314 314 316 320 325 330 331 330 330 330 328 328 328 328 328 328 328 328
303 303 303 303 303 303 303 303 303 304 304 305 305 306 307 307 308 309 310 311 311 312 313 313 314 314 315 316 319 324 329 330 329 329 329 328 328 328 327 328 328 328
303 303 302 302 302 302 302 302 302 303 303 303 304 305 306 307 308 309 310 311 312 312 313 313 313 314 315 316 317 321 326 329 329 329 329 329 328 328 328 328 328 328
302 302 302 302 302 302 302 302 302 302 303 303 303 304 305 306 307 308 309 310 311 312 313 313 313 314 315 316 317 319 323 327 328 329 329 330 329 329 328 328 328 328
301 301 301 301 302 301 301 301 301 302 302 302 303 303 304 305 306 307 307 308 309 311 313 313 313 314 315 316 317 318 321 324 327 328 328 329 329 329 329 328 328 328
301 301 301 301 301 300 301 301 301 301 302 302 302 303 304 304 305 305 306 307 309 310 312 313 314 314 314 315 317 318 319 322 324 326 328 328 329 329 329 329 328 328
301 300 300 300 300 300 300 300 300 301 301 302 302 302 303 304 304 304 305 307 308 310 311 313 314 314 315 315 315 317 318 319 322 325 327 328 329 329 329 329 328 327
301 300 300 300 300 300 300 300 300 300 301 301 301 302 302 303 303 304 304 305 306 308 311 313 314 314 315 315 315 316 317 318 321 324 327 328 329 329 329 329 328 327
301 300 300 300 300 300 299 299 299 300 300 300 301 301 301 302 302 303 303 304 305 306 308 312 315 315 315 315 315 316 317 318 319 322 326 328 328 329 329 329 329 328
301 301 300 300 300 300 299 299 299 300 300 300 300 301 301 301 302 302 303 303 304 306 307 309 312 315 316 315 315 316 317 318 319 321 325 327 327 328 329 328 328 328
301 301 301 300 300 300 299 299 299 299 299 299 300 300 300 301 301 301 302 303 303 305 306 308 310 313 315 315 315 315 317 318 319 321 324 326 328 328 328 328 328 328
301 301 301 301 300 300 299 299 299 298 298 298 299 299 299 300 300 301 301 302 303 304 305 308 310 312 314 315 315 315 316 318 320 322 324 326 327 327 328 328 328 328
301 301 301 301 300 300 299 299 298 298 298 297 298 298 298 299 299 300 300 301 302 303 305 306 309 312 314 315 315 316 316 317 319 321 323 325 326 327 327 327 328 328
301 301 301 301 301 300 299 298 298 298 297 297 297 297 298 298 298 299 299 300 301 302 304 305 308 311 314 315 316 316 316 317 318 320 323 325 326 326 326 327 327 327
301 301 301 301 300 299 299 298 298 298 297 297 297 297 297 297 298 298 299 300 301 302 304 305 307 309 313 315 316 316 316 317 318 320 322 324 325 325 326 326 326 326
301 301 301 300 299 298 298 298 298 297 297 297 297 297 297 297 297 298 299 300 301 302 304 305 306 308 312 315 316 316 317 317 319 321 322 324 325 325 325 325 325 325
301 301 301 300 299 298 298 297 297 296 296 296 297 297 297 297 297 297 299 300 301 303 304 306 307 308 311 315 316 316 316 317 319 322 323 324 324 324 323 323 322 323
301 301 300 299 298 297 297 296 296 295 295 295 296 296 297 297 297 298 299 300 302 304 305 307 308 308 311 315 316 316 317 317 319 322 323 323 323 322 322 321 320 320
301 300 299 298 297 297 296 296 295 295 295 295 295 296 296 297 297 298 299 301 303 305 306 308 308 309 312 315 315 315 317 317 318 321 321 321 321 320 320 320 318 319
300 299 298 298 297 297 296 295 295 295 295 295 295 296 296 297 298 299 300 302 304 306 308 309 309 310 313 315 315 315 316 317 318 319 320 320 320 319 319 318 319 320
299 298 298 297 297 297 296 295 295 295 294 295 295 295 296 297 298 300 301 303 306 308 310 310 311 312 314 315 316 316 316 317 318 319 319 318 318 319 319 318 320 322
298 298 297 297 297 296 295 295 294 294 294 294 294 295 296 297 298 300 302 305 308 310 311 312 312 313 315 316 316 316 317 317 318 318 317 316 315 317 319 320 322 323
298 297 297 296 296 295 295 294 293 293 293 293 294 295 295 296 298 299 302 306 310 312 312 314 314 315 317 317 317 317 317 317 317 316 315 313 312 312 315 319 322 322
297 296 296 295 295 294 294 292 292 292 292 293 294 295 296 297 298 299 301 305 311 313 313 314 315 316 317 317 317 317 318 316 315 314 312 310 309 307 310 315 316 315
297 295 295 294 294 293 292 292 291 291 292 292 294 295 296 297 298 299 302 306 311 313 313 314 315 315 315 316 317 318 317 314 313 312 309 307 306 304 306 309 309 308
296 295 294 293 293 292 292 292 291 291 292 292 294 295 297 298 300 302 304 306 309 311 312 313 313 313 314 315 316 316 315 313 311 310 307 304 304 304 303 303 303 304

ECMWFNIL_925_thetae_003.txt.gz
Theta_e
305 304 304 305 305 305 305 305 304 304 304 305 305 305 306 307 307 308 309 310 310 311 313 313 313 314 314 316 318 319 321 322 326 330 330 330 330 329 329 328 328 328
304 304 304 304 304 304 304 304 304 304 304 304 304 304 305 305 305 307 308 309 310 311 312 313 313 314 314 316 317 318 320 320 322 326 329 330 330 330 329 329 329 328
304 303 303 303 303 303 303 303 303 303 303 303 303 303 304 304 305 306 307 308 310 310 311 312 313 314 314 315 316 317 319 320 321 323 326 329 329 330 330 329 329 328
303 303 302 302 302 302 302 302 302 302 302 302 303 303 303 304 304 305 305 307 308 309 310 311 313 314 314 315 315 316 318 319 320 320 322 325 328 330 330 329 329 329
303 302 302 302 302 301 301 301 301 302 302 302 302 302 303 303 303 304 305 306 307 308 309 310 311 312 313 314 315 316 317 318 319 320 321 321 324 329 330 329 329 328
302 302 302 301 301 301 301 301 301 301 302 302 302 302 302 303 303 303 304 305 306 307 307 308 310 311 313 314 314 315 316 317 319 320 321 321 322 326 329 329 329 328
302 302 302 301 301 301 301 301 301 301 301 301 302 302 302 302 302 303 303 304 304 305 306 307 308 310 311 313 314 314 315 316 317 319 321 322 322 324 327 329 329 328
303 303 302 301 301 301 301 301 301 301 301 301 301 301 301 301 302 302 303 303 304 304 305 306 307 309 310 312 313 314 314 315 316 318 319 321 322 324 325 327 329 329
303 302 301 301 301 301 301 301 301 301 301 301 301 301 301 301 301 302 302 302 303 303 304 305 306 307 309 311 313 314 315 315 315 316 318 319 321 323 324 326 328 329
303 302 301 301 301 301 301 301 301 301 301 301 301 300 301 301 301 301 302 302 302 303 303 304 304 306 307 309 311 313 315 315 315 315 316 318 320 321 323 324 326 328
303 302 301 302 302 301 301 301 301 301 301 301 300 300 300 300 300 301 301 301 302 302 303 303 304 305 306 308 310 312 314 315 315 315 315 317 318 320 322 323 325 327
302 302 301 301 301 301 301 301 301 301 300 300 300 300 300 300 300 300 300 300 301 301 302 302 303 304 305 306 308 310 313 315 315 316 315 316 317 319 320 322 324 326
302 301 301 301 301 301 301 301 301 300 300 300 299 299 299 299 299 299 299 299 299 300 301 301 302 303 304 305 306 309 311 313 315 315 316 316 317 318 320 322 323 325
301 301 301 301 301 301 301 301 301 300 299 299 299 299 299 299 299 298 298 298 299 299 299 300 301 302 303 304 305 307 310 312 314 315 315 316 316 317 319 321 322 324
301 301 301 301 301 301 301 300 300 299 299 298 298 298 298 298 298 298 298 298 298 298 299 299 300 301 302 303 304 306 308 311 313 314 315 315 316 317 319 321 322 324
301 301 301 301 301 300 300 299 299 298 298 298 298 298 297 297 297 297 297 297 298 298 298 299 299 300 301 302 303 305 307 310 313 314 315 315 316 317 319 320 322 323
301 301 300 300 300 299 299 298 298 298 298 297 297 297 297 297 297 297 297 297 297 298 298 298 299 299 300 301 302 303 305 308 312 314 315 315 316 317 319 320 322 323
301 300 300 299 299 298 298 298 298 298 297 297 297 297 296 296 296 296 296 297 297 297 298 298 298 299 300 301 302 303 304 306 310 314 315 316 316 317 318 320 322 322
300 300 299 299 298 298 298 297 297 297 297 297 297 296 296 296 296 296 296 296 297 297 298 298 299 299 299 301 302 303 304 305 307 311 315 316 317 317 318 320 321 322
300 299 299 298 298 297 297 297 297 296 296 296 296 295 295 295 295 295 296 296 296 297 298 298 299 299 300 301 302 303 304 305 306 309 313 316 317 317 319 320 321 322
299 299 298 297 297 297 296 296 296 296 295 295 295 294 294 294 294 295 295 296 296 297 298 298 299 300 300 301 303 304 305 306 307 308 312 316 317 317 319 320 320 321
299 298 297 297 296 296 296 295 295 294 294 294 293 293 293 293 294 294 295 295 296 297 298 299 300 300 302 302 303 305 306 307 308 308 311 315 316 316 318 319 320 320
298 298 297 296 296 296 295 294 294 293 293 293 293 293 293 293 293 294 294 295 296 297 298 299 300 301 303 304 305 306 307 307 308 309 312 315 316 316 317 318 319 320
298 297 297 296 296 295 294 294 293 292 292 292 292 292 292 293 293 294 294 295 296 297 298 299 301 302 305 306 306 307 308 308 308 310 312 315 316 316 317 318 319 319
298 297 297 296 295 295 294 293 293 292 292 292 292 292 292 293 293 294 295 296 297 297 298 299 300 303 306 308 309 309 309 309 310 311 313 315 316 316 316 317 318 318
298 297 296 296 295 294 294 293 292 292 291 291 291 292 292 293 294 295 296 298 298 299 299 300 301 303 306 309 310 311 310 310 310 312 314 315 315 315 314 314 315 316

ECMWFNIL_925_thetae_006.txt.gz
Theta_e
309 309 309 309 309 309 310 309 310 309 309 309 309 309 309 309 309 309 309 310 311 312 312 313 314 315 316 317 318 319 320 321 323 326 327 328 329 329 328 327 327 327
308 308 308 308 308 308 308 308 308 308 308 309 309 308 308 308 308 308 308 309 309 310 311 312 313 315 316 316 317 318 319 320 321 323 325 326 327 327 328 328 329 328
308 308 307 307 308 308 308 307 307 307 308 308 308 308 308 308 307 307 307 307 308 309 310 311 313 314 315 316 316 317 318 319 320 321 323 324 325 327 328 329 330 330
308 308 307 307 307 307 307 307 307 307 307 307 308 308 308 307 307 307 306 307 307 308 308 310 311 312 313 315 316 317 317 318 319 320 321 323 324 326 327 329 329 329
309 308 307 307 307 307 306 306 306 306 306 306 306 307 307 307 306 306 306 306 307 307 308 308 310 311 312 313 315 316 317 317 318 319 319 321 322 324 326 328 328 329
308 308 307 307 306 306 306 305 305 305 305 305 305 305 306 306 306 306 305 306 306 307 307 308 309 310 311 312 314 315 316 317 318 318 319 319 320 322 324 326 327 328
308 307 307 307 306 306 305 305 305 305 304 304 304 304 304 305 305 305 305 305 306 306 307 307 308 309 310 311 312 314 315 316 317 318 318 319 319 320 322 324 325 327
308 307 307 306 306 305 305 305 305 304 304 304 303 303 303 304 304 304 304 305 305 306 306 307 307 308 308 310 311 313 314 315 316 317 318 318 319 319 320 321 323 325
307 306 306 306 306 305 305 305 305 304 303 303 303 303 303 303 304 304 304 305 305 305 306 306 306 307 308 309 310 311 313 314 316 316 317 318 318 319 319 320 322 324
306 306 306 306 306 306 305 305 304 304 303 303 303 303 303 303 303 304 304 304 304 304 305 305 306 306 307 308 309 309 311 313 314 315 316 317 318 319 319 319 321 322
306 306 306 306 305 305 305 304 304 303 303 302 303 303 303 303 303 303 303 304 304 304 304 305 306 306 306 307 308 308 309 311 313 314 315 316 317 318 319 319 320 321
306 306 305 305 305 304 304 304 303 303 303 303 303 303 303 303 303 303 303 303 303 303 304 304 305 305 306 306 307 307 308 309 311 313 315 316 316 317 318 319 320 320
305 305 305 304 304 304 303 303 303 303 303 303 303 303 303 303 302 302 302 302 302 303 303 303 303 304 305 305 306 307 307 308 309 311 313 315 316 317 317 318 319 320
305 304 304 303 303 303 302 302 302 302 302 302 302 302 302 302 302 302 302 302 302 302 302 302 303 303 303 304 305 305 306 307 308 309 312 314 316 317 317 317 318 319
304 303 303 303 303 302 302 302 302 302 302 302 302 302 302 301 301 301 301 301 301 302 302 302 302 302 303 303 303 304 306 306 307 308 310 312 315 316 317 317 318 318
303 303 303 303 302 302 301 301 301 301 302 301 301 301 301 301 301 300 300 300 301 301 301 301 301 302 302 302 302 303 304 306 307 307 309 311 313 315 317 317 317 318
302 302 302 302 301 301 301 301 301 301 301 301 301 301 300 300 300 300 300 300 300 300 300 300 301 301 301 301 301 301 302 303 305 307 308 309 311 314 316 317 317 318
302 302 302 301 301 300 300 301 300 300 300 300 300 300 300 300 300 300 300 300 300 300 300 300 300 300 300 300 300 300 300 301 302 304 306 308 310 312 314 316 317 318
302 301 301 301 300 300 300 300 299 299 300 299 299 299 299 299 299 299 299 299 299 299 299 299 299 299 299 299 299 299 299 300 300 301 303 305 308 310 313 315 317 318
301 301 301 300 300 300 299 299 299 299 299 298 298 298 298 298 298 298 298 298 298 298 298 298 298 299 298 298 298 299 299 299 299 300 301 303 305 308 311 314 316 317
301 300 300 300 299 299 299 298 298 298 297 297 297 297 297 297 297 297 297 297 297 297 297 297 297 297 297 298 298 298 298 298 299 299 300 301 304 305 307 310 315 317
300 300 300 299 299 298 298 298 297 297 297 296 296 296 296 296 296 296 296 296 296 296 296 296 297 297 297 297 297 298 298 298 299 299 300 301 303 305 306 308 311 316
300 300 299 299 298 298 298 298 297 297 296 296 295 295 295 295 295 295 295 295 295 296 296 296 297 297 297 297 297 297 298 298 299 299 300 301 302 304 306 307 310 314
300 299 299 298 298 298 298 297 297 297 296 295 295 295 295 294 294 295 295 295 295 295 295 296 296 297 297 297 297 297 297 298 299 300 301 301 302 304 306 308 310 313
300 299 298 298 298 298 297 297 297 296 296 295 295 294 294 294 294 294 294 294 294 295 295 296 296 297 297 297 297 297 298 298 299 301 301 303 304 305 306 308 310 312
300 299 298 298 297 297 297 297 297 296 295 295 294 294 294 294 293 293 294 294 294 295 295 296 296 297 298 298 298 298 298 298 300 301 302 304 305 306 308 309 311 313

ECMWFNIL_925_thetae_012.txt.gz
Theta_e
317 317 316 316 316 315 316 316 315 314 314 314 314 313 313 313 313 313 314 314 313 313 312 312 312 312 312 313 315 316 317 318 319 319 320 320 321 323 325 327 329 331
316 316 315 315 315 314 314 315 315 314 314 314 313 313 313 313 313 313 313 313 313 313 313 313 313 313 313 313 315 315 317 317 318 318 319 320 320 321 323 324 326 329
316 315 315 315 315 314 314 314 314 313 313 313 313 313 313 313 313 313 313 313 313 313 313 313 312 312 312 313 313 314 315 316 317 317 318 319 320 320 321 323 324 326
316 315 314 314 314 313 313 314 313 312 312 312 312 312 312 312 312 312 312 312 312 312 312 312 312 311 311 312 312 313 314 315 316 317 318 319 319 320 321 322 322 324
316 315 314 313 313 313 313 313 313 312 312 312 312 312 312 311 311 311 310 311 311 311 312 311 311 311 311 311 311 312 313 313 314 316 317 318 318 319 320 321 321 322
316 315 314 313 313 313 313 312 312 312 312 312 311 311 311 310 310 310 310 310 310 310 310 310 311 311 310 310 310 311 311 312 313 314 315 317 317 318 319 320 321 321
316 315 315 314 313 313 313 312 312 312 312 311 311 310 310 310 310 310 309 309 309 308 309 309 309 310 310 310 310 310 310 311 312 313 314 315 316 317 318 319 320 320
316 315 315 314 313 313 313 312 312 312 311 311 310 310 310 310 310 309 309 308 308 308 308 308 308 308 309 309 309 309 310 310 311 312 313 314 315 316 317 318 319 319
316 316 315 314 313 313 313 312 312 311 311 311 310 310 310 310 309 309 309 308 307 307 307 307 307 307 308 308 308 309 309 309 310 310 311 312 313 314 315 316 318 319
316 315 315 314 313 313 313 313 312 311 311 311 310 310 310 310 309 308 308 308 307 307 307 307 307 307 307 307 308 308 308 308 309 309 310 311 312 313 313 314 316 317
315 315 314 314 313 313 312 312 312 311 311 311 310 310 310 309 309 308 307 307 307 306 306 306 306 306 307 307 307 308 308 308 308 308 309 309 310 311 312 313 314 315
315 315 314 313 313 313 312 312 311 311 311 310 310 309 309 308 308 307 307 307 306 306 306 306 306 306 306 307 307 307 308 308 308 308 308 309 309 310 311 312 313 314
315 315 314 313 312 312 312 311 311 310 310 309 308 308 308 307 307 307 306 306 306 306 306 305 306 306 306 306 306 306 307 307 308 308 308 309 309 309 310 310 311 312
315 314 313 312 312 311 311 310 309 309 308 308 307 307 307 306 306 305 305 305 305 305 305 305 305 305 305 306 306 306 306 307 307 307 308 308 308 309 309 309 310 311
314 313 312 311 311 310 309 309 308 308 307 307 306 306 306 305 305 305 305 304 305 305 305 305 305 305 305 305 305 306 306 306 306 307 307 307 308 308 309 309 309 310
312 311 311 310 310 309 308 308 307 307 307 306 306 305 305 304 304 304 304 304 304 304 304 304 304 304 305 304 304 305 305 305 305 305 305 305 306 306 307 308 308 309
310 310 310 309 309 308 307 307 307 306 306 305 305 304 304 304 303 303 302 302 302 302 302 303 303 303 304 304 304 304 304 303 303 303 303 303 304 304 305 306 306 307
310 310 309 308 307 307 307 306 306 305 305 304 304 303 303 303 302 301 301 301 301 301 301 301 302 302 302 302 302 302 302 302 302 302 302 303 303 303 303 304 304 305
309 309 308 307 307 306 306 305 305 305 304 303 303 303 302 302 301 300 300 300 299 299 300 300 300 300 300 301 301 301 301 301 300 300 301 301 302 302 302 303 303 304
308 307 307 306 306 305 305 305 305 304 303 303 302 302 301 300 300 300 299 299 299 299 299 299 299 299 299 299 299 299 299 299 299 299 299 300 300 301 301 302 302 302
307 306 305 305 305 305 305 304 304 303 303 302 302 301 300 300 300 299 299 299 299 299 298 298 298 298 298 298 298 298 298 298 298 298 298 299 299 299 300 300 301 301
306 305 304 305 304 304 304 304 303 303 302 302 301 300 300 300 299 299 299 299 298 298 298 298 298 298 298 298 298 298 297 297 297 297 298 298 298 299 299 299 299 300
305 304 304 304 304 304 304 303 303 302 302 301 300 300 300 299 299 299 298 298 298 298 297 297 297 297 297 297 297 297 296 296 296 296 297 297 297 298 298 298 299 299
304 303 303 303 303 303 303 303 302 302 301 300 300 299 299 299 298 298 298 297 297 297 297 297 297 296 296 296 296 296 296 295 295 296 296 296 297 297 297 298 298 298
302 302 303 303 303 303 303 302 302 301 300 299 299 299 298 298 298 297 297 297 296 296 296 296 296 296 295 295 295 295 295 295 295 295 296 296 296 296 296 297 297 298
302 302 302 303 303 302 302 302 301 300 300 299 299 298 298 298 297 297 296 296 296 295 295 295 295 295 295 295 294 294 294 294 294 295 295 295 296 296 296 297 297 297

ECMWFNIL_925_thetae_015.txt.gz
Theta_e
316 316 316 316 314 314 317 316 315 315 315 315 314 313 313 313 312 312 312 312 312 312 312 311 311 311 311 311 311 311 311 312 313 315 316 316 317 317 318 319 320 321
316 317 316 316 314 315 316 316 314 315 314 314 314 313 313 312 312 312 312 311 311 311 310 310 311 312 312 312 312 312 312 312 313 313 314 315 316 317 316 317 319 319
316 317 317 316 315 314 314 315 315 314 314 313 313 312 311 310 310 310 310 311 311 311 310 310 310 311 311 311 311 311 311 311 311 311 312 313 314 316 316 317 317 319
317 317 316 315 314 313 312 313 314 314 313 312 311 310 310 310 310 310 311 311 311 310 309 310 310 311 311 311 311 311 311 310 311 311 311 312 313 314 315 316 317 318
317 317 316 315 314 313 313 313 313 313 313 311 309 309 310 311 311 310 310 309 308 308 309 310 310 310 310 310 310 310 310 310 310 310 311 311 311 311 312 314 316 317
318 317 316 315 314 314 313 313 313 313 312 311 310 311 311 311 310 309 309 308 308 309 309 309 309 308 308 308 309 309 309 310 310 310 310 310 310 311 312 313 315 316
318 317 316 315 314 314 313 312 313 312 312 311 311 311 311 310 309 309 308 309 309 309 309 308 308 307 307 307 307 308 308 308 309 309 309 310 310 310 311 312 313 314
318 318 317 315 314 313 312 312 312 312 311 311 311 310 310 309 309 309 309 309 309 309 309 308 307 307 307 307 307 307 307 307 308 308 308 309 309 310 310 310 311 312
318 317 317 315 314 313 312 312 312 311 311 311 310 310 309 309 309 309 309 309 309 309 308 308 307 307 306 306 306 306 306 307 307 307 307 308 308 308 309 309 310 310
318 317 316 315 314 314 313 313 312 312 311 310 310 310 310 310 310 310 310 309 309 308 308 307 307 306 306 306 306 306 306 306 307 307 307 307 307 308 308 308 309 310
318 317 316 315 315 314 313 313 312 312 311 311 311 310 310 310 310 310 309 309 308 307 307 307 306 306 306 306 306 305 305 306 306 306 306 307 307 307 308 308 308 309
317 317 316 315 315 314 313 313 312 312 311 311 311 310 310 310 310 309 308 308 307 306 306 305 305 305 305 305 305 305 305 305 305 306 306 306 306 307 307 307 308 308
316 316 316 315 314 314 313 313 312 311 311 311 311 310 310 309 308 308 307 306 306 305 304 304 304 304 304 305 305 305 305 305 305 305 305 306 306 306 306 306 307 307
316 316 315 315 314 314 313 312 312 311 311 310 310 309 309 308 307 307 306 305 305 304 304 304 303 303 303 303 304 304 304 304 304 304 305 305 305 305 305 305 305 305
316 315 315 314 314 313 312 312 311 311 310 309 308 308 307 307 306 305 305 304 304 303 303 303 302 302 302 302 302 302 302 302 302 302 303 303 303 303 304 304 304 304
316 315 315 314 313 312 311 311 310 309 308 308 307 307 306 306 305 305 304 303 302 302 302 301 301 301 301 300 301 301 300 300 301 301 300 301 301 301 302 302 303 303
315 315 314 313 312 311 311 310 309 308 307 307 307 306 305 305 304 303 303 302 301 301 300 300 300 300 299 299 299 299 299 299 299 299 299 299 299 300 300 301 301 302
315 314 313 312 311 310 309 308 308 307 307 306 305 305 304 303 303 302 302 301 300 300 300 299 299 299 298 298 298 298 298 298 298 298 298 298 298 299 299 299 300 300
312 311 310 310 309 309 308 307 307 306 306 305 304 304 303 303 302 302 301 300 300 299 299 299 298 298 298 298 298 298 298 298 298 298 298 298 298 298 298 298 298 299
310 310 309 309 308 307 306 306 306 305 305 304 304 303 302 302 301 301 300 300 299 299 299 298 298 298 298 298 298 298 298 298 298 298 297 297 297 297 297 297 297 298
310 309 308 307 306 305 305 305 305 304 304 303 303 302 302 301 300 300 299 299 299 298 298 298 297 297 297 297 297 297 297 297 297 297 296 296 296 296 296 297 297 297
308 307 306 305 305 305 304 304 304 303 303 302 301 301 300 300 299 299 299 298 298 298 297 297 297 297 297 297 296 296 296 296 296 296 295 295 296 296 296 296 296 296
305 305 304 304 304 304 304 303 303 302 302 301 300 300 299 299 298 298 298 297 297 297 297 297 296 296 296 296 295 295 295 295 295 295 295 295 295 295 295 295 295 295
305 304 303 303 303 303 303 302 302 302 301 300 300 299 298 298 298 297 297 297 296 296 296 296 296 295 295 295 294 294 294 294 294 294 294 294 293 293 294 294 294 295
303 303 302 302 303 302 302 302 301 301 300 300 299 298 298 297 296 296 295 295 295 295 295 295 295 294 294 294 293 293 293 293 293 293 292 292 292 292 292 293 293 294
302 302 302 302 302 301 301 301 301 300 300 299 298 297 297 296 295 294 293 294 294 294 294 294 294 294 293 293 293 293 292 292 292 292 292 292 292 292 292 292 292 293

ECMWFNIL_925_thetae_018.txt.gz
Theta_e
317 315 315 315 316 315 314 314 314 313 312 311 312 314 314 313 314 313 312 311 310 310 311 310 309 307 306 306 307 308 309 310 310 310 309 309 309 310 311 312 313 314
319 317 316 316 316 315 314 314 315 314 313 311 312 314 313 312 312 312 310 310 310 310 309 308 307 306 306 307 308 309 310 310 310 310 309 309 309 310 310 310 311 312
319 318 317 317 316 315 314 314 315 316 314 313 314 315 313 312 312 311 309 309 308 308 307 307 306 307 307 308 308 309 310 310 310 310 310 309 309 310 310 310 309 310
318 318 317 316 316 315 314 314 316 316 315 314 315 314 314 313 312 309 308 308 308 307 307 307 307 308 308 308 308 308 308 308 309 309 309 309 309 309 310 309 309 309
318 318 317 316 316 316 315 314 315 316 315 314 314 313 313 312 310 308 308 308 308 307 307 307 308 309 309 308 307 307 307 307 307 307 308 308 308 309 309 309 309 309
319 318 317 316 316 316 316 315 314 315 315 314 314 313 311 309 308 309 309 308 307 307 307 308 308 309 308 307 307 306 306 306 307 307 307 307 307 307 308 308 308 309
320 319 317 316 316 316 316 315 314 313 314 314 313 312 310 308 309 310 309 307 307 307 308 308 308 308 308 307 306 306 306 306 306 306 306 306 306 307 307 307 307 308
321 320 318 317 317 317 316 314 313 313 313 313 313 311 309 309 309 309 308 308 308 309 309 309 308 308 307 307 306 306 306 306 306 306 306 306 306 306 306 306 307 307
321 320 319 318 317 316 315 314 314 313 313 313 312 310 309 309 309 308 308 309 309 309 309 309 308 307 306 306 306 306 306 305 306 305 305 305 305 306 306 306 306 306
321 321 319 318 317 316 315 314 314 313 312 312 311 310 309 309 309 309 309 309 309 309 309 308 307 306 306 305 305 305 305 305 305 305 305 305 305 305 305 305 306 306
321 320 319 318 317 316 315 314 313 312 312 311 311 310 310 309 310 310 310 310 309 308 307 306 305 305 304 304 304 304 304 304 304 304 304 304 304 305 305 305 305 305
321 320 319 318 317 316 315 314 313 312 312 312 311 310 310 310 310 310 310 309 308 307 306 305 304 304 304 304 304 304 304 304 304 303 303 303 303 303 304 304 305 305
321 320 319 318 317 316 315 314 313 313 312 312 311 311 310 310 310 310 309 308 307 306 305 304 304 304 304 303 303 303 303 302 302 302 301 302 302 302 302 302 303 303
320 319 318 317 317 316 315 314 313 313 312 312 311 310 310 310 310 308 307 306 306 305 304 304 304 303 303 302 302 301 301 300 300 299 299 299 300 300 300 301 301 301
319 318 318 317 316 315 314 314 313 312 312 311 311 310 310 309 308 307 306 306 305 304 304 303 303 302 302 301 300 300 299 299 298 298 297 298 298 299 299 299 299 300
318 318 317 317 316 315 314 314 313 312 312 311 311 310 309 308 307 306 305 305 304 303 303 302 301 301 300 300 299 299 298 298 298 297 298 298 298 298 298 298 298 298
317 317 316 316 315 315 314 313 312 312 311 311 310 309 308 307 306 305 304 304 303 302 301 301 300 300 299 299 298 298 298 297 297 298 298 298 298 298 298 297 297 297
316 316 316 315 314 314 313 312 312 311 310 309 308 307 306 305 304 304 303 302 302 301 300 300 299 299 298 298 297 297 297 297 297 297 297 297 297 297 297 297 297 297
316 315 315 314 314 313 312 312 311 310 309 308 307 306 305 304 303 302 302 301 300 299 299 298 298 297 297 297 297 297 297 297 297 297 297 297 296 296 296 296 296 296
315 315 315 314 314 312 311 310 309 308 307 306 306 304 303 302 302 301 300 299 298 298 297 297 297 297 297 296 296 296 296 296 296 296 295 295 295 295 295 295 295 295
314 315 314 313 312 311 309 308 308 307 306 304 303 303 302 301 300 299 299 298 297 296 296 295 295 295 295 295 295 295 295 295 295 294 294 294 294 294 295 295 295 295
314 313 312 311 310 308 307 306 305 304 303 302 301 301 300 299 299 298 297 295 294 293 293 293 293 293 293 294 294 294 294 294 294 294 293 293 294 294 294 294 294 294
312 310 309 308 306 305 304 303 302 302 301 301 300 300 299 298 298 297 295 293 292 292 292 292 292 292 292 293 293 293 294 293 293 293 293 293 293 293 293 292 292 292
308 307 306 305 304 303 303 302 302 301 300 300 299 299 299 298 297 296 293 292 291 292 293 293 293 292 292 292 293 293 293 293 293 293 292 292 292 292 291 291 291 291
305 304 304 303 303 303 302 301 301 300 299 299 299 299 298 297 296 294 293 292 293 293 293 293 292 292 292 292 292 292 293 293 293 293 292 292 291 291 291 291 291 291
304 303 303 302 302 301 300 300 300 299 299 299 299 299 298 297 295 295 294 294 294 293 292 291 291 291 292 292 292 292 292 292 292 292 291 291 291 291 291 290 290 290

ECMWFNIL_925_thetae_021.txt.gz
Theta_e
311 314 316 315 314 314 313 313 313 312 311 310 309 309 312 312 313 313 313 313 312 311 310 309 307 306 305 305 305 305 306 307 308 309 309 309 309 309 309 309 309 309
313 313 315 316 314 313 314 313 314 313 312 312 310 310 312 313 313 313 313 312 311 310 309 307 305 305 305 306 306 306 307 306 306 307 307 308 308 308 309 309 309 309
315 314 315 316 315 314 314 314 314 314 313 313 312 311 312 313 313 312 312 311 310 308 307 306 305 305 305 306 307 307 307 306 306 306 306 307 307 307 308 308 308 308
318 316 315 315 316 314 314 315 315 315 313 313 313 311 311 313 313 312 312 310 308 307 306 305 305 306 306 307 307 307 306 306 306 306 306 306 306 306 306 306 307 307
320 319 317 316 316 316 315 315 315 315 314 314 314 313 312 314 314 313 312 308 306 306 305 305 305 306 307 307 307 307 306 306 305 306 306 306 306 306 305 305 306 306
321 321 319 317 317 317 316 316 316 315 314 314 315 314 313 314 314 313 310 307 306 306 306 306 306 307 307 308 307 307 306 306 305 305 305 306 305 305 305 305 305 306
321 322 321 318 318 318 317 317 316 315 314 315 315 315 314 314 314 311 308 307 307 307 306 307 307 308 308 307 307 306 305 305 305 305 305 305 305 305 304 304 305 305
322 322 321 319 318 318 317 317 316 315 314 315 315 315 313 314 312 309 307 308 307 307 307 308 308 308 308 307 306 305 305 305 305 305 305 305 304 304 304 304 304 305
322 322 321 320 319 318 317 316 315 316 315 315 315 314 313 312 310 308 308 308 307 307 308 308 309 308 307 306 305 305 305 304 304 305 304 304 304 304 304 304 304 305
321 321 321 320 319 318 317 316 316 316 315 315 314 314 313 312 309 308 308 308 308 309 309 309 308 307 306 305 305 304 304 304 304 304 304 304 303 303 303 303 303 304
321 321 320 320 320 319 317 316 316 316 315 314 313 313 312 310 309 309 309 308 309 309 309 308 307 306 305 305 304 303 303 303 303 303 302 302 301 300 300 299 300 301
321 320 320 320 319 318 317 316 316 316 315 313 313 312 311 310 309 309 309 309 309 309 308 307 306 305 305 304 303 303 303 303 302 301 300 300 299 299 298 297 297 298
321 321 320 319 318 318 317 317 316 315 314 313 312 311 310 310 309 309 310 310 309 308 307 306 305 304 304 303 303 302 302 301 300 299 299 298 298 297 297 296 296 297
322 321 320 319 318 317 317 316 315 314 314 313 312 311 310 310 310 309 310 309 308 307 306 305 304 304 303 302 302 301 300 299 299 298 298 297 297 297 297 297 297 297
321 321 320 319 318 317 316 316 315 314 313 312 312 311 311 310 310 310 309 308 307 306 305 304 304 302 302 301 300 299 298 298 298 297 297 297 297 297 297 297 297 297
318 317 318 318 317 317 316 316 315 314 313 312 312 311 310 310 310 309 308 307 306 305 304 303 302 301 300 299 298 298 297 297 297 297 297 297 297 297 297 297 297 297
316 315 316 316 317 317 316 316 315 314 313 312 312 311 310 310 309 308 307 305 304 303 302 301 300 299 298 298 297 297 296 296 296 296 296 296 297 297 297 297 296 296
316 315 314 315 315 316 316 316 314 313 313 312 311 310 310 309 307 306 305 303 302 301 300 300 299 298 297 296 295 294 294 295 295 295 296 296 296 296 295 295 295 295
316 314 314 315 315 316 316 315 314 313 312 312 311 310 308 307 305 304 303 301 301 300 299 298 296 295 294 293 292 292 292 293 293 294 295 295 294 294 294 294 294 294
315 314 314 315 315 314 314 314 313 312 312 311 310 308 306 305 303 302 301 300 299 298 297 295 294 293 292 291 291 291 292 292 292 293 293 294 294 294 294 293 293 293
315 314 313 312 311 311 312 313 312 312 310 309 307 305 304 303 301 301 300 299 298 296 293 293 293 292 291 291 290 291 292 292 292 292 293 293 293 293 293 293 293 293
314 313 312 311 311 311 312 311 310 309 307 305 304 303 302 301 300 299 299 297 295 293 292 293 293 292 291 291 290 291 291 292 292 292 292 292 292 292 293 292 292 292
312 311 311 311 312 311 310 308 307 306 304 303 302 301 300 300 299 298 296 295 293 292 293 293 292 291 291 291 290 291 291 291 291 291 292 292 292 292 292 292 292 292
311 310 310 310 310 308 306 305 304 302 302 301 300 300 299 298 298 296 295 294 293 293 294 293 292 291 291 291 290 291 291 291 291 291 291 291 291 291 291 291 291 291
309 309 309 307 306 304 303 302 302 301 300 299 298 298 298 297 297 295 295 295 294 294 294 293 291 291 291 290 290 291 291 291 291 291 291 291 291 291 291 291 291 291
309 308 306 304 303 302 301 301 300 298 298 298 298 298 298 297 296 295 295 295 294 294 293 292 291 291 291 290 290 291 291 291 290 290 290 290 290 290 290 290 290 290

ECMWFNIL_925_thetae_024.txt.gz
Theta_e
312 311 310 311 313 313 312 311 310 309 308 308 307 307 309 310 311 312 313 313 313 312 310 309 307 304 305 305 304 305 305 305 305 305 306 306 307 307 307 307 308 308
313 312 310 311 313 314 314 313 312 311 311 310 310 308 309 310 312 312 313 313 312 311 310 307 305 304 304 305 305 305 306 305 305 305 305 306 306 306 306 305 306 306
314 314 312 311 312 314 315 315 313 313 312 312 312 310 310 310 312 313 313 312 312 310 308 306 305 304 305 305 305 306 306 306 305 305 305 305 305 305 305 304 304 304
315 316 315 313 312 312 314 315 314 313 313 313 313 312 311 311 312 313 312 312 311 309 307 305 304 305 305 305 306 307 306 305 305 305 305 305 305 305 304 304 304 304
317 317 317 315 313 312 313 314 314 313 313 313 314 313 312 312 312 313 312 312 311 309 306 305 305 305 305 306 307 307 306 305 305 305 305 305 305 305 304 304 304 304
318 318 318 317 316 314 313 314 314 314 313 314 314 314 313 313 312 312 312 312 311 308 306 305 305 305 305 306 307 306 305 305 305 305 304 305 305 304 304 304 304 304
319 319 319 319 318 317 316 315 315 315 314 314 315 314 314 313 313 312 312 313 311 307 305 305 305 305 306 307 307 306 305 305 304 304 304 304 304 304 304 304 303 303
319 320 320 320 320 319 319 317 316 316 315 315 315 314 314 314 313 313 313 313 310 306 306 305 305 305 306 307 307 306 305 304 304 303 304 304 304 304 303 302 302 301
320 320 320 320 320 320 321 320 318 317 316 315 316 315 314 314 314 313 313 312 309 306 306 305 305 306 307 307 306 306 305 304 303 303 303 303 303 302 301 300 299 299
321 321 320 320 319 320 321 321 320 318 316 316 316 315 314 314 314 313 313 310 308 306 306 305 306 307 307 307 306 305 304 303 303 303 303 302 301 300 299 299 298 298
321 321 320 320 320 320 320 321 320 318 317 316 315 314 314 314 313 313 311 309 307 306 306 306 307 307 307 306 306 304 303 303 303 302 301 300 299 299 298 298 298 297
321 321 320 321 320 320 320 320 319 318 317 316 315 314 314 314 313 312 311 308 307 307 307 308 308 307 307 305 304 303 302 302 301 300 300 299 298 298 298 297 297 297
320 320 320 319 319 319 319 319 319 318 317 316 315 315 314 314 313 312 310 308 308 308 308 308 307 306 305 304 303 302 301 300 300 299 299 298 298 297 297 297 297 296
320 320 319 318 318 317 317 317 316 316 316 316 315 315 314 314 312 311 309 308 308 309 308 308 306 305 303 302 301 300 299 299 299 298 298 297 296 296 296 296 296 296
321 320 319 319 318 318 317 316 314 314 314 314 314 314 314 313 311 310 309 309 309 309 308 306 304 302 301 300 299 299 298 298 297 296 296 295 295 295 295 295 295 295
321 320 320 319 319 319 318 316 314 313 314 314 314 313 313 312 310 310 309 309 309 308 306 304 302 301 300 299 298 297 296 295 294 294 294 294 294 294 294 294 294 294
321 320 320 319 319 319 319 316 314 313 314 314 313 312 312 311 310 310 310 309 308 306 304 302 301 300 299 297 296 294 293 292 292 292 292 292 293 293 293 293 293 293
319 320 319 319 319 319 317 315 313 313 313 313 313 312 311 310 310 310 309 307 306 304 302 301 300 299 297 295 294 292 292 291 291 291 292 292 292 292 292 292 292 293
315 318 318 318 318 317 315 314 313 312 312 311 312 311 311 310 310 309 307 305 303 302 301 299 298 296 295 293 292 292 291 291 291 291 291 292 292 292 292 292 292 292
312 316 317 317 317 315 314 313 312 311 311 311 311 311 310 310 309 307 304 303 301 300 299 298 296 294 293 292 291 291 291 291 291 290 291 291 292 292 292 291 291 292
311 313 315 315 314 313 312 311 311 311 311 311 311 310 310 308 306 304 302 301 300 299 297 295 294 293 292 291 291 291 291 291 290 290 291 291 291 291 291 291 291 291
311 312 313 314 313 312 311 310 310 310 311 311 310 309 308 306 304 302 301 299 298 296 294 294 293 292 291 291 292 292 291 290 290 291 291 291 291 291 291 291 290 290
310 311 312 312 311 311 310 310 310 310 310 310 309 307 305 303 302 300 299 298 296 294 293 293 293 292 292 292 292 291 290 290 290 290 290 291 290 290 290 290 290 290
310 311 312 311 310 310 309 309 310 310 309 309 308 305 302 301 299 298 296 295 294 294 294 293 292 292 292 292 292 291 290 290 290 290 290 290 290 290 290 290 290 290
310 310 311 310 308 307 305 304 304 305 306 306 304 302 300 298 297 296 295 295 294 294 293 292 292 292 292 292 292 290 290 289 290 290 290 290 290 290 290 289 289 289
310 309 309 308 307 306 304 303 301 300 301 301 300 299 298 297 296 296 295 295 294 293 293 293 293 292 292 292 292 290 289 289 289 290 290 290 290 289 290 289 290 289

ECMWFNIL_925_thetae_027.txt.gz
Theta_e
316 316 315 312 311 310 310 309 307 306 306 306 307 307 308 310 311 311 312 313 313 312 310 307 305 304 304 304 304 305 306 306 307 307 307 307 308 307 307 307 308 309
318 317 317 314 312 310 311 311 309 307 306 307 307 307 308 310 311 311 312 313 313 312 309 307 305 304 305 305 304 306 306 306 306 307 307 308 307 307 307 307 307 307
318 317 317 315 313 311 310 311 311 310 308 308 307 307 308 310 311 311 312 312 312 311 309 307 305 305 305 304 305 307 307 307 306 307 307 308 308 307 307 307 307 306
318 316 315 314 313 312 311 311 313 312 311 310 309 308 308 310 311 311 312 313 312 311 309 306 305 305 305 305 306 307 306 306 306 307 308 308 307 307 306 306 306 306
319 317 315 313 313 312 312 311 312 313 314 313 311 310 309 310 311 312 312 312 312 311 309 306 305 305 305 305 307 307 306 305 304 305 307 307 306 306 306 306 306 306
318 318 316 314 313 313 313 313 313 312 314 315 314 312 311 311 311 312 312 312 312 311 309 306 305 305 304 305 306 306 306 306 304 305 306 307 306 305 305 305 305 304
317 318 317 316 315 314 314 315 314 314 313 314 315 313 312 312 312 312 312 312 312 311 308 306 305 305 305 305 306 305 305 305 304 304 306 306 306 305 304 304 303 303
315 315 316 316 316 316 316 316 316 316 314 314 315 314 313 313 313 313 312 312 312 311 308 306 305 305 305 306 307 306 305 304 303 304 305 305 305 305 304 303 302 302
315 315 315 315 315 316 317 317 317 317 316 315 315 315 314 313 313 313 312 312 312 310 308 306 306 306 305 306 307 306 306 304 303 304 305 305 304 304 303 302 302 302
318 317 317 317 317 317 317 318 318 318 317 316 316 315 314 314 313 313 313 313 312 310 308 306 306 306 305 306 306 306 305 304 303 304 304 303 303 302 301 301 301 301
319 319 319 319 319 319 318 318 318 317 317 317 316 316 315 314 314 314 313 313 312 310 308 307 306 305 306 306 306 305 304 303 303 303 302 301 301 300 300 300 300 300
320 319 319 319 319 320 320 319 318 317 317 316 315 314 314 314 314 314 313 313 312 310 308 307 306 306 306 306 305 304 303 303 302 301 301 300 300 299 299 299 299 299
320 319 319 318 319 320 320 320 319 318 317 315 314 314 313 313 313 314 314 313 312 310 308 307 306 307 307 306 305 304 303 302 301 300 300 299 298 298 298 297 297 297
321 321 320 319 319 320 320 320 320 318 317 315 315 315 314 314 314 314 313 312 311 309 308 307 307 307 306 305 304 303 302 301 300 299 298 297 296 296 295 295 294 295
318 320 320 320 320 320 320 320 319 318 317 316 315 314 314 314 314 314 313 312 310 309 308 308 308 307 305 304 303 302 300 299 298 296 295 295 295 295 294 294 294 294
313 315 317 319 320 319 319 319 319 318 317 315 315 314 313 313 313 313 313 311 310 309 308 308 307 305 304 303 302 300 298 296 295 294 293 293 294 294 294 295 294 295
311 312 314 317 318 319 319 319 318 318 317 315 315 313 312 313 313 312 311 310 309 309 308 307 305 304 303 301 299 297 295 294 293 293 292 292 293 294 294 295 295 295
310 311 312 314 316 317 318 318 317 317 316 315 314 313 312 312 312 311 310 309 309 308 306 304 303 301 300 298 296 294 293 292 292 292 292 293 293 293 294 295 295 295
308 310 311 312 314 315 316 317 317 317 316 315 314 312 311 311 310 310 309 309 308 306 304 302 300 298 297 295 294 293 292 292 292 292 292 292 293 293 294 294 294 295
308 309 310 311 313 314 315 315 316 316 315 314 313 311 310 310 309 309 308 307 306 304 302 299 297 296 295 294 293 292 292 292 292 291 291 291 292 293 293 293 293 294
308 309 310 311 312 313 314 314 315 315 314 313 311 310 309 309 309 308 307 305 304 302 300 297 295 294 293 293 292 292 292 292 291 290 291 292 292 292 293 293 293 293
308 309 309 310 311 312 313 313 313 313 313 311 310 309 308 308 308 307 305 303 301 301 299 296 294 294 293 292 292 292 292 292 291 291 292 292 292 292 292 292 293 293
307 308 309 309 310 311 312 312 313 312 311 310 309 307 307 307 306 304 303 302 300 299 298 295 294 293 292 292 292 292 292 292 292 292 292 292 292 292 292 292 292 292
307 308 308 309 310 310 311 311 311 310 309 308 307 306 305 304 304 302 300 300 298 296 295 293 292 292 292 292 292 292 292 292 292 292 292 292 292 292 292 292 292 292
307 307 308 309 309 310 310 310 309 308 306 305 304 303 303 302 301 298 296 295 295 293 292 292 292 292 292 292 292 293 292 292 291 292 292 292 292 292 292 292 292 292
306 307 307 308 309 309 309 308 307 305 303 302 301 300 299 298 297 295 294 294 294 293 292 292 292 292 292 292 292 292 292 291 291 292 292 292 292 292 292 292 292 292

ECMWFNIL_925_thetae_030.txt.gz
Theta_e
322 322 321 319 317 318 318 317 316 317 316 315 316 316 316 317 318 318 318 318 317 315 314 313 313 313 313 312 312 312 312 313 313 313 313 313 312 312 312 312 312 313
324 323 321 320 318 318 319 318 317 316 316 316 316 315 316 318 318 318 319 318 317 316 314 313 313 313 312 312 311 311 312 312 312 312 313 313 312 312 311 311 311 311
323 323 322 321 320 320 320 319 318 317 316 316 316 316 318 319 318 318 319 318 317 316 315 313 313 312 312 312 312 311 311 312 312 312 312 312 312 312 311 311 310 310
322 322 322 322 322 322 322 320 319 318 317 317 317 317 318 319 318 318 319 318 318 317 315 314 313 313 312 312 312 312 311 311 311 312 312 312 311 311 310 310 310 310
323 322 322 322 322 323 323 321 320 318 318 318 317 316 317 317 318 318 318 318 317 317 315 314 314 313 313 312 312 312 311 311 311 311 312 311 311 310 310 310 310 309
324 323 323 322 323 323 323 322 320 319 319 318 318 317 316 317 317 317 318 318 317 316 315 314 314 313 313 312 312 311 311 311 310 310 311 311 310 310 309 309 309 308
323 323 323 323 323 323 323 322 321 320 319 319 320 319 317 317 317 317 317 317 317 316 315 315 314 313 313 312 312 312 311 311 310 309 309 310 310 309 309 308 307 306
322 322 323 323 323 323 323 322 321 321 321 321 321 320 319 318 317 317 317 317 317 316 315 314 314 313 313 312 312 312 311 310 310 309 309 309 309 309 308 308 307 307
322 322 322 323 323 323 323 322 322 321 322 322 322 321 320 319 318 318 318 317 317 316 315 314 314 313 312 312 312 311 311 310 309 309 309 309 309 308 307 307 307 307
323 323 323 323 323 323 323 323 322 321 322 322 322 321 321 320 319 319 318 318 317 316 315 314 314 314 312 312 312 311 311 310 309 309 309 309 308 307 306 306 306 306
323 324 323 324 324 323 323 323 323 322 322 322 321 321 321 320 319 319 319 318 317 317 316 315 314 314 313 312 312 311 310 309 308 308 308 307 307 307 306 305 305 306
324 324 324 324 324 324 323 323 324 323 323 322 321 320 320 320 319 319 319 318 318 317 316 316 315 314 313 312 312 311 310 309 308 308 307 307 306 306 305 305 305 305
323 324 324 324 323 323 322 323 324 324 324 323 322 321 320 319 318 317 318 318 317 317 316 316 315 314 313 312 312 311 310 309 308 307 307 306 306 305 304 304 304 303
319 321 322 323 323 322 322 322 323 323 324 323 322 321 320 319 317 317 317 317 317 317 317 316 315 314 313 312 311 310 309 308 308 307 306 306 305 304 304 303 303 302
315 316 318 320 321 322 322 322 322 323 324 323 322 321 320 319 318 317 317 317 317 317 316 315 315 314 313 311 310 309 309 308 307 306 305 304 304 303 302 302 302 301
313 314 315 316 318 319 320 321 322 322 323 322 321 320 320 320 318 317 318 317 317 317 316 315 314 312 311 309 308 308 307 306 305 304 303 302 302 301 301 301 301 300
312 313 314 314 316 317 318 319 320 321 321 321 320 319 319 318 317 317 318 317 316 316 314 312 311 309 308 307 306 305 304 303 303 302 301 301 301 300 300 300 300 299
311 312 313 313 315 315 316 318 319 320 319 319 319 318 318 317 316 317 317 316 316 314 312 310 308 307 306 305 304 303 301 301 301 300 300 300 300 299 299 299 299 299
311 311 312 312 314 315 316 317 318 318 319 318 318 318 317 317 317 317 317 315 314 312 308 307 305 304 303 302 301 300 299 299 300 299 299 299 298 298 298 298 298 298
311 311 312 312 312 314 315 316 317 318 318 317 317 318 317 317 317 317 316 314 311 308 305 303 301 300 300 299 298 297 296 297 298 298 297 298 298 298 298 298 298 298
311 311 311 312 312 313 315 316 316 317 318 317 316 317 317 317 317 316 313 310 308 305 302 300 297 297 296 296 295 295 293 295 297 297 297 297 297 297 298 298 298 298
310 310 311 311 312 313 314 315 316 317 317 316 315 316 316 316 315 313 310 307 305 303 301 297 294 294 294 294 293 293 293 295 296 296 296 297 297 297 298 298 298 298
310 310 311 311 311 312 313 314 315 315 316 315 314 314 314 313 311 309 306 304 302 300 299 295 293 293 293 293 293 292 293 295 297 296 296 297 297 297 297 297 298 297
310 310 310 311 311 311 312 313 314 314 314 314 313 313 311 309 307 305 303 302 300 299 298 295 293 292 292 292 292 292 292 295 296 296 296 297 297 297 297 297 297 296
310 310 310 310 310 311 311 313 313 313 313 312 311 310 307 305 303 302 300 299 298 297 296 294 293 292 292 292 292 292 292 294 295 295 296 297 297 297 296 296 297 296
310 310 310 310 310 310 311 312 312 311 310 308 307 306 304 302 301 299 297 296 295 294 294 294 293 293 292 292 293 292 291 292 294 295 296 296 296 296 296 296 296 296

ECMWFNIL_925_thetae_036.txt.gz
Theta_e
321 321 320 321 321 320 320 320 320 319 319 319 320 319 320 320 318 318 319 318 317 316 315 316 316 315 314 314 315 316 315 316 316 315 315 314 314 313 313 313 315 316
321 321 320 320 321 321 320 320 320 319 318 319 320 319 319 320 319 319 320 319 318 317 316 316 316 315 315 314 314 316 315 315 316 316 317 317 315 314 313 312 313 315
322 322 321 320 319 320 320 319 319 320 319 318 318 319 319 319 320 319 320 320 319 318 316 316 316 315 316 315 313 315 316 315 316 317 316 316 315 315 315 313 312 313
323 322 322 321 319 319 320 319 319 320 320 319 318 319 318 319 320 319 320 320 320 319 317 317 316 315 316 315 313 315 315 314 316 316 315 315 315 315 314 314 312 312
324 323 323 322 320 320 320 320 320 319 320 319 318 319 319 320 320 319 320 321 320 320 319 317 316 316 316 315 314 315 315 315 315 314 315 316 315 314 314 314 313 311
325 324 324 324 322 321 320 321 322 320 320 319 318 319 319 320 320 320 320 320 320 320 319 319 317 316 316 315 315 316 315 315 315 313 315 316 314 313 313 313 313 311
326 326 325 324 322 322 321 321 322 321 321 320 319 319 319 319 321 321 321 320 320 320 320 320 318 317 317 316 315 316 315 315 314 313 315 316 314 314 313 313 313 311
326 325 325 324 321 320 320 320 320 321 321 320 320 320 320 319 320 322 321 320 321 321 320 320 319 318 317 316 316 316 316 315 315 315 314 314 315 314 313 313 312 310
325 325 323 322 321 320 321 320 320 320 321 320 320 319 319 319 320 321 321 320 320 320 321 320 320 319 318 317 316 316 316 315 315 315 314 313 315 315 313 313 311 309
324 323 322 322 321 321 321 321 320 321 321 321 321 320 320 319 319 320 320 320 320 320 321 320 320 320 318 318 317 316 316 316 316 315 314 313 314 314 313 313 312 311
322 322 322 322 322 322 321 321 321 321 321 320 320 320 320 319 319 319 320 320 320 320 320 320 320 320 319 318 318 318 317 316 316 315 314 313 314 314 313 312 312 311
323 323 323 323 323 322 322 322 322 322 322 321 320 320 320 320 319 319 319 321 321 320 320 320 320 320 320 319 318 318 317 317 316 316 315 314 313 313 313 312 311 311
325 324 323 323 323 323 323 323 324 324 324 323 322 322 321 321 320 320 321 322 322 320 319 320 321 320 320 319 319 318 318 317 317 316 315 314 314 313 312 311 310 310
321 321 321 322 323 323 324 324 324 325 324 322 322 323 323 322 322 322 323 322 321 321 320 320 321 321 320 320 319 318 318 318 317 316 315 314 313 313 312 311 310 310
316 317 318 318 320 321 323 323 323 324 324 323 323 324 324 324 323 323 323 321 321 321 321 320 321 321 320 320 319 319 319 318 317 316 315 314 313 312 311 310 310 309
312 313 315 315 316 318 319 321 321 323 324 323 324 325 325 325 324 323 322 322 322 322 321 321 321 320 320 320 320 319 319 318 317 316 315 314 313 312 311 310 309 309
310 311 312 313 314 314 315 316 317 319 320 321 323 324 324 324 324 324 323 322 322 321 320 320 320 320 320 320 320 319 318 318 317 315 314 313 313 312 311 310 309 308
310 310 310 311 312 312 313 313 314 314 316 317 319 321 322 323 324 324 324 323 323 322 321 320 320 319 320 320 320 319 317 317 316 315 314 313 312 310 309 308 307 306
310 310 310 310 310 311 311 311 312 313 313 314 316 317 319 321 322 323 324 323 322 322 321 320 320 320 319 319 319 318 316 316 315 313 312 311 310 308 307 306 306 305
310 310 310 310 310 310 310 311 311 312 312 313 314 315 316 318 320 321 321 321 321 321 321 321 320 319 317 317 316 316 315 314 312 311 310 308 307 306 305 305 304 303
309 310 310 310 310 310 311 311 311 311 311 312 314 314 315 316 318 319 319 319 319 320 319 319 316 314 312 313 313 313 312 311 309 307 307 305 304 304 304 303 303 302
309 309 310 310 310 311 311 311 311 311 312 312 313 314 315 315 316 317 318 318 318 318 318 315 311 308 308 309 310 310 309 308 306 305 304 304 303 302 302 302 302 302
308 309 309 310 310 311 311 311 311 311 312 312 313 314 315 315 315 316 317 317 317 316 314 311 306 305 306 307 307 307 306 305 304 303 303 302 301 301 301 301 302 302
308 309 309 309 310 311 311 311 311 311 312 312 313 313 314 315 315 315 314 314 313 312 310 307 304 302 303 304 304 304 304 302 301 301 300 300 300 300 300 301 301 301
309 309 310 310 310 311 311 311 311 311 312 312 312 313 314 313 313 312 310 308 308 308 307 306 302 300 300 301 301 301 301 300 300 299 298 298 298 299 299 300 300 300
309 309 310 311 311 311 312 312 312 312 312 312 313 313 312 310 309 308 306 304 304 304 303 303 301 299 298 299 300 299 298 298 298 298 297 298 298 299 299 298 298 298

ECMWFNIL_925_thetae_039.txt.gz
Theta_e
320 319 320 319 318 320 319 319 319 320 319 319 318 317 318 317 315 316 317 317 316 312 309 308 310 314 316 316 315 314 312 311 311 309 307 306 310 315 316 315 314 312
319 319 320 319 319 320 319 319 319 320 320 320 319 319 319 318 316 316 317 317 316 314 312 310 308 312 315 315 315 314 312 312 313 314 314 310 309 313 315 314 314 311
319 319 321 320 319 320 320 319 319 319 319 320 320 319 319 319 317 317 318 318 316 315 314 312 311 313 315 314 315 315 314 314 316 316 316 314 311 311 312 313 313 312
320 320 321 321 320 320 319 319 320 319 318 320 320 319 319 319 318 318 318 319 318 317 316 314 313 314 316 315 314 316 315 314 316 316 314 313 313 312 311 311 313 312
321 321 320 320 320 320 319 319 320 319 318 318 319 319 319 319 319 318 318 319 319 319 317 316 315 314 315 315 314 315 315 314 315 315 312 313 315 313 310 310 311 312
322 321 320 319 319 321 320 318 319 320 319 318 319 319 319 319 319 318 318 319 319 319 319 318 317 314 315 316 315 314 315 315 315 314 313 315 315 312 311 311 310 310
323 323 322 321 320 321 320 318 318 319 319 319 318 318 319 319 319 319 319 319 319 319 319 319 319 317 315 315 315 314 315 315 315 314 314 316 314 313 312 312 311 311
324 324 324 323 322 322 322 320 320 320 320 321 320 319 319 318 319 319 319 320 320 320 320 319 320 319 317 316 315 315 315 315 315 314 314 315 315 313 312 312 312 312
324 324 323 322 322 321 321 321 321 321 321 321 320 320 320 319 319 320 320 320 321 320 320 320 320 319 319 317 316 315 315 315 315 315 314 314 315 314 313 313 312 310
323 323 322 322 322 320 320 321 320 320 320 321 320 320 320 320 320 320 321 321 321 321 320 320 320 320 319 319 318 316 316 315 315 315 315 314 314 315 314 313 312 310
323 324 322 322 322 321 320 321 320 320 320 320 320 320 320 320 320 320 320 321 321 321 320 321 320 320 320 319 318 317 316 316 315 315 315 314 313 314 315 313 313 312
323 323 323 322 321 321 321 321 320 320 320 319 319 320 320 320 320 320 320 319 320 320 320 320 320 320 320 319 319 318 317 317 316 315 316 315 314 314 314 313 313 312
322 322 322 321 320 320 320 320 320 320 320 319 319 320 320 320 319 319 319 319 319 319 319 320 319 319 319 320 319 318 317 317 316 316 316 316 314 313 313 313 312 311
322 321 321 321 322 321 321 321 321 321 321 321 321 321 321 321 321 321 321 320 320 320 320 320 320 320 319 320 320 319 318 318 317 316 316 315 314 313 313 313 311 311
320 319 318 319 320 320 321 322 322 322 322 322 322 322 322 322 322 322 322 321 321 321 321 321 321 321 319 320 320 319 318 319 318 317 316 315 314 313 313 312 311 310
315 316 316 316 316 316 318 320 321 322 321 321 320 321 322 323 323 323 323 322 322 321 321 322 322 321 321 320 320 319 319 319 319 318 316 315 314 313 312 311 311 310
310 312 313 313 313 314 315 317 318 319 320 320 321 321 322 322 323 323 323 323 322 322 322 322 322 322 322 321 321 320 319 319 318 318 316 315 314 313 312 311 311 310
309 310 310 310 311 311 312 312 313 314 316 317 319 321 321 322 323 323 323 323 323 323 323 322 322 322 321 321 320 320 320 318 317 317 316 314 313 313 312 311 310 310
309 309 309 309 310 310 310 310 310 311 311 312 314 315 317 320 323 324 323 323 323 324 323 323 322 321 321 320 319 319 320 318 317 316 315 314 313 312 311 310 310 309
308 308 308 309 310 310 310 310 310 310 310 310 311 311 312 314 319 322 323 322 322 323 323 322 321 321 320 320 319 319 319 318 316 315 314 312 311 311 310 308 307 306
308 308 309 309 309 309 309 309 309 309 310 310 311 311 311 312 315 319 321 322 322 322 322 321 321 320 319 319 318 318 317 316 314 312 311 309 308 308 307 306 305 305
308 308 309 309 309 310 309 310 310 310 310 310 311 311 312 312 313 316 318 320 320 320 320 319 318 317 316 315 315 314 314 313 312 311 309 307 306 306 305 305 304 304
308 308 309 309 309 309 309 310 310 310 311 311 311 311 312 313 313 314 316 318 318 318 318 316 314 313 312 312 311 311 311 311 309 309 308 306 305 304 304 303 303 302
308 308 308 308 309 309 310 310 311 311 311 311 311 311 312 312 313 313 314 315 316 315 315 314 312 310 309 309 309 309 309 308 306 305 304 303 303 301 301 301 301 301
308 308 308 309 309 309 310 310 310 311 311 311 311 311 312 312 312 312 312 312 313 313 312 312 311 308 306 307 307 306 306 306 304 303 301 300 299 299 300 300 299 299
307 308 308 309 309 310 310 311 311 311 311 311 312 312 312 311 311 311 310 310 310 310 309 309 309 306 303 304 304 304 304 303 302 302 300 299 298 299 299 298 298 298

ECMWFNIL_925_thetae_042.txt.gz
Theta_e
321 321 319 317 319 321 319 318 316 315 314 313 311 311 310 310 312 313 313 312 311 313 314 314 315 315 315 314 310 306 305 305 305 308 313 316 315 314 314 312 311 312
321 320 319 316 319 320 318 318 318 316 315 313 311 312 311 311 314 315 314 313 309 308 310 312 315 315 315 315 313 309 307 308 308 307 308 313 315 314 313 312 310 310
321 320 318 316 317 318 318 318 318 318 317 316 314 314 313 312 314 315 314 313 310 308 308 310 314 315 314 314 314 312 310 310 311 311 309 310 314 314 313 312 310 308
320 320 319 317 316 317 318 319 319 319 318 318 317 316 316 314 314 314 315 314 312 310 308 309 312 314 314 314 314 314 314 312 313 314 312 310 311 312 312 311 311 309
320 320 319 318 317 318 319 318 319 319 319 319 319 318 318 317 316 316 316 315 314 314 312 310 311 312 314 314 314 314 314 313 314 314 313 311 311 311 310 311 312 310
320 320 319 319 319 319 319 319 319 319 319 319 319 319 318 318 317 317 317 317 316 316 316 314 313 312 313 314 314 314 314 314 314 314 312 312 313 312 310 310 311 310
320 320 320 320 319 319 319 320 319 319 319 319 319 319 319 318 318 318 317 317 317 317 317 317 316 314 313 314 314 314 314 314 314 314 313 313 314 313 311 310 309 310
320 321 320 320 320 320 319 319 319 319 318 319 318 319 319 318 318 318 318 318 318 318 318 317 318 317 316 315 314 314 314 314 315 315 314 314 314 314 313 311 310 310
321 321 321 321 321 321 320 319 320 320 318 318 318 318 319 319 318 318 319 319 319 319 319 318 318 318 318 317 316 315 314 314 314 315 314 314 314 315 314 312 312 311
322 322 321 322 322 322 321 320 320 320 319 319 319 319 319 319 319 319 319 319 319 319 319 319 319 319 319 319 318 317 316 315 315 315 315 314 314 314 314 313 313 312
322 322 322 321 321 321 320 319 320 319 320 320 320 320 320 319 320 320 320 319 319 319 320 320 320 320 319 319 319 319 318 317 315 315 315 315 314 314 314 314 314 313
322 321 321 321 320 321 321 319 318 319 320 320 319 319 320 319 319 320 320 320 320 320 320 320 320 320 319 319 319 319 318 317 316 316 315 315 315 314 314 313 314 314
322 322 322 321 321 322 322 320 319 320 320 320 319 319 319 319 320 320 320 320 320 320 320 320 320 320 320 320 320 319 318 318 317 316 315 315 315 315 314 314 314 314
322 323 322 322 321 321 322 321 320 320 320 320 320 320 320 320 320 320 320 320 319 319 319 319 320 319 320 319 319 319 319 318 317 316 316 315 315 315 314 314 314 313
320 319 319 319 320 321 321 321 321 321 321 321 320 320 320 321 321 321 321 321 321 321 320 320 320 320 319 319 320 319 319 319 318 317 316 316 315 315 314 314 313 313
317 317 316 316 317 317 318 319 319 320 320 320 320 320 321 321 321 322 322 322 322 322 322 322 321 320 320 320 320 320 319 319 319 318 317 317 317 315 315 314 313 312
314 316 317 316 316 316 316 317 318 319 320 320 320 320 321 321 321 322 322 322 323 323 323 323 322 321 321 321 321 321 320 320 319 319 318 318 318 316 315 313 313 312
310 311 312 312 313 312 312 313 313 315 316 316 316 316 317 318 319 320 321 322 323 323 323 323 323 322 322 321 321 320 320 320 319 318 318 318 318 317 315 313 312 311
308 309 309 309 310 309 310 309 309 310 310 311 312 312 312 314 315 317 319 321 323 323 323 323 322 322 322 321 320 319 319 320 319 319 318 317 317 316 314 312 311 310
307 308 307 307 308 308 308 309 308 309 310 310 310 311 311 312 313 314 315 319 321 323 323 322 321 321 321 320 320 319 319 319 318 318 317 316 316 313 311 310 310 309
308 308 308 308 308 308 308 309 309 309 309 310 310 310 310 311 311 312 313 316 319 322 323 322 321 320 320 320 319 319 318 318 317 316 316 315 314 312 310 309 309 308
308 308 308 308 309 309 309 310 310 310 309 310 310 310 311 311 310 311 311 313 317 320 322 322 321 319 319 318 318 317 316 315 315 313 312 312 311 309 308 308 307 306
308 308 308 308 308 309 309 309 309 310 310 311 311 311 311 311 311 311 311 312 314 317 320 320 319 317 316 315 315 314 314 313 311 310 309 308 307 306 307 307 306 305
307 307 307 308 308 308 309 309 309 310 310 310 310 311 310 310 311 311 311 312 313 316 318 317 316 314 312 312 312 312 312 311 310 309 307 306 305 304 303 304 304 303
307 307 307 307 308 308 309 309 310 310 310 310 311 311 310 310 310 310 311 312 313 315 315 315 313 311 309 309 310 309 309 310 309 308 307 304 303 302 301 300 301 300
306 306 307 307 308 309 309 310 310 310 310 310 310 310 311 310 310 310 311 311 312 312 313 312 311 309 307 306 307 307 307 307 306 305 304 301 300 300 299 299 298 298

ECMWFNIL_925_thetae_045.txt.gz
Theta_e
318 317 318 319 318 315 314 315 316 315 313 312 312 312 312 313 313 314 315 314 313 313 312 312 313 313 312 309 305 305 306 310 314 316 314 314 313 312 311 312 313 313
318 318 319 319 318 315 314 316 315 313 312 312 311 311 311 311 312 313 313 312 313 314 313 312 313 314 314 312 308 306 305 306 310 314 314 314 313 312 310 309 310 309
319 319 320 319 317 315 317 318 315 312 311 311 310 310 309 310 311 312 313 312 311 312 313 312 313 314 314 314 311 309 308 307 308 311 313 313 313 312 310 308 307 307
320 320 320 319 316 315 317 318 316 313 312 311 310 309 308 309 310 312 313 312 310 309 310 311 313 314 313 313 313 312 311 310 310 311 311 312 312 311 311 310 308 306
321 321 320 319 317 315 317 318 316 315 315 314 313 311 311 310 310 311 312 312 312 310 309 310 312 314 313 313 313 313 313 312 311 311 310 310 310 310 310 310 309 307
321 320 320 319 317 315 317 317 316 317 318 317 316 316 315 314 313 313 312 312 313 312 311 309 311 312 313 313 314 313 313 313 312 312 311 310 311 310 309 309 309 307
320 319 320 319 316 314 315 316 317 318 318 318 319 318 317 317 316 316 315 315 315 314 314 312 312 312 311 313 314 314 313 314 313 313 313 312 312 312 310 309 308 309
321 320 319 318 317 316 317 317 318 318 318 319 319 318 318 318 318 317 317 317 317 316 316 315 315 314 313 313 313 314 314 314 314 314 314 313 313 313 312 310 308 309
321 319 319 318 317 317 318 319 318 318 319 319 318 319 318 318 318 318 318 317 317 317 317 317 317 317 316 315 314 314 314 314 314 314 314 314 313 313 314 313 310 310
320 320 320 318 318 318 319 319 319 319 319 319 319 319 319 318 318 318 318 317 317 318 318 318 318 318 318 317 316 316 315 315 314 314 314 314 314 313 314 314 313 312
320 320 320 319 319 319 320 319 319 319 319 319 319 319 318 318 318 318 318 318 317 318 318 318 318 318 318 318 318 318 317 317 316 314 314 314 314 314 314 314 314 313
320 320 320 320 320 320 320 320 320 319 319 319 318 318 317 317 319 319 318 318 318 318 318 318 319 318 318 319 319 318 318 318 317 316 315 315 314 314 314 314 314 314
320 320 320 320 320 320 320 319 319 318 318 319 319 319 318 318 319 319 319 319 318 318 318 318 318 319 319 319 319 319 319 318 318 317 317 316 315 315 314 314 314 314
321 321 320 319 319 320 319 319 319 318 318 319 320 320 319 319 319 318 318 318 317 318 318 318 318 319 319 320 320 319 319 319 319 318 318 317 316 315 315 314 314 313
319 320 320 319 319 319 319 319 319 319 318 318 319 319 319 319 318 318 318 318 318 318 318 318 319 319 320 319 319 319 319 319 319 319 319 318 317 316 315 315 315 314
320 320 320 320 320 320 320 320 320 319 319 319 319 320 320 320 319 319 319 318 318 319 319 319 320 320 320 320 319 319 319 319 319 319 319 318 317 316 316 315 315 314
319 320 320 320 321 320 319 319 319 319 319 320 321 321 321 321 321 320 320 319 320 320 320 321 322 322 321 321 320 320 320 319 319 319 318 318 317 316 316 316 316 315
312 314 315 315 315 314 313 313 314 314 315 315 316 316 316 317 317 318 319 319 320 321 321 322 323 322 322 321 321 320 320 320 319 319 319 318 317 317 317 317 317 315
308 309 310 310 310 309 309 309 310 310 310 310 311 311 311 311 312 313 315 317 318 320 321 322 323 322 322 321 321 320 320 319 319 319 319 319 318 318 317 317 317 314
307 308 308 308 308 308 308 308 309 309 309 310 310 310 310 310 310 311 312 313 314 316 319 322 322 322 322 321 320 320 319 319 319 319 318 318 318 317 316 316 314 312
307 307 307 308 308 308 308 309 309 309 309 309 309 309 309 309 309 310 310 310 311 313 316 319 321 322 321 320 319 318 318 317 317 317 317 317 316 315 314 313 311 310
307 307 308 308 308 308 308 309 309 309 309 309 310 310 310 310 310 310 310 310 310 311 312 316 319 321 320 318 317 316 316 316 316 316 315 313 312 311 309 308 308 308
307 307 307 308 308 308 309 309 309 309 310 310 310 310 310 310 310 310 310 310 310 311 311 313 316 318 318 316 315 314 314 314 314 313 312 310 308 307 306 305 305 305
306 307 306 307 307 307 308 309 309 309 309 309 310 310 310 310 309 309 309 310 310 311 312 314 315 316 315 314 313 312 312 313 312 311 309 308 307 306 305 305 304 304
306 306 306 306 307 307 308 309 309 309 310 309 310 310 310 310 310 310 310 310 310 311 312 313 314 313 313 312 311 311 311 310 310 309 307 306 306 305 305 304 304 303
306 306 306 306 306 307 308 309 309 309 309 309 309 308 309 308 309 309 309 309 310 310 311 312 311 310 310 309 309 309 309 309 309 308 307 305 304 304 303 302 302 301

ECMWFNIL_925_thetae_048.txt.gz
Theta_e
323 322 321 318 316 318 320 319 317 315 313 312 313 314 314 315 315 315 314 315 315 314 314 313 312 310 307 307 308 311 313 313 314 313 312 312 311 311 312 312 312 311
322 321 321 318 317 318 319 318 317 316 314 312 312 313 313 314 314 315 314 314 314 314 314 313 314 313 310 307 305 306 308 310 312 313 312 311 309 308 308 308 308 309
321 321 321 318 316 318 319 317 316 316 314 313 312 312 312 313 313 313 313 313 312 313 314 314 314 314 313 311 309 307 306 307 310 312 312 311 309 306 306 306 306 307
321 321 320 318 316 318 317 315 315 315 314 312 313 312 311 311 311 311 311 311 310 311 312 312 314 315 314 313 312 311 309 308 309 310 310 311 310 308 306 305 306 306
321 321 319 317 317 318 317 314 313 314 312 311 312 311 310 309 309 310 310 309 310 309 309 310 311 313 314 314 313 313 312 311 311 310 309 309 309 309 308 306 306 307
320 320 318 318 318 319 317 315 313 312 312 311 311 311 310 309 309 310 310 310 311 312 311 310 309 311 313 313 313 313 313 313 312 312 310 309 309 309 309 307 306 306
319 319 319 318 319 319 317 316 315 314 313 314 314 314 313 312 312 312 312 313 313 314 315 313 311 311 311 312 313 313 313 313 313 313 312 311 311 310 310 308 307 308
320 320 320 319 320 319 318 317 317 316 316 316 317 317 317 316 315 315 314 315 315 315 316 316 315 314 312 312 313 313 313 313 313 313 313 313 312 312 311 309 308 309
320 321 320 320 320 320 319 318 318 318 316 317 318 318 318 317 317 317 317 316 316 316 316 316 316 316 315 314 314 313 313 313 314 314 313 313 313 313 313 311 310 309
320 321 320 320 320 320 319 318 318 317 316 317 318 318 318 318 318 318 317 317 317 317 317 317 317 317 317 317 316 315 314 314 314 314 313 314 314 313 313 313 312 311
321 321 321 320 320 320 318 318 318 318 317 318 318 318 318 318 319 319 318 318 318 318 318 318 318 317 317 318 318 317 317 316 315 314 314 314 314 314 314 313 313 313
321 320 320 320 319 319 318 318 318 318 318 319 318 318 319 318 319 319 318 318 318 317 318 318 318 318 318 318 318 318 317 317 317 315 315 315 315 314 314 313 313 314
320 320 320 319 319 318 318 318 319 319 319 319 319 318 318 318 318 318 318 318 318 318 318 318 318 317 317 317 318 318 317 317 318 316 316 316 317 316 315 314 314 314
320 320 319 319 318 318 318 318 319 318 318 318 319 319 319 319 319 319 319 319 318 318 318 318 318 317 317 318 318 318 318 318 318 317 316 317 318 318 317 316 316 315
320 320 319 319 319 319 319 318 318 318 318 318 318 319 319 319 319 318 318 318 318 318 318 318 317 318 318 318 319 318 318 318 318 318 318 318 318 319 318 317 316 316
319 320 320 319 319 318 318 319 319 319 319 318 318 319 319 318 318 318 319 319 319 319 318 318 319 319 319 319 319 319 319 318 318 318 319 319 318 318 318 318 316 316
319 319 319 318 318 317 317 317 317 318 319 319 319 319 319 319 318 318 318 319 320 319 319 320 320 320 320 320 320 320 320 319 319 319 320 319 319 318 318 317 316 316
318 318 317 317 316 315 314 314 315 316 316 317 317 316 315 315 315 315 316 317 318 319 319 320 321 321 321 321 321 321 320 320 319 320 319 319 319 319 318 318 317 316
313 314 314 313 312 310 310 311 311 312 312 312 312 312 311 312 312 313 313 314 314 315 317 319 320 321 321 321 321 320 319 319 319 319 319 319 319 318 318 318 318 317
309 310 309 309 309 308 308 309 309 309 310 310 310 310 310 310 310 310 310 311 311 311 312 315 318 320 321 321 320 319 318 318 317 317 318 318 318 318 318 317 317 316
308 308 308 308 308 308 308 308 309 309 309 309 309 309 309 309 309 309 309 309 309 309 308 309 312 316 319 320 319 318 317 316 316 316 317 317 317 316 316 316 315 313
307 307 308 308 308 308 309 308 309 309 309 309 309 309 309 310 309 309 309 309 309 308 308 308 309 312 316 318 318 316 316 315 314 315 315 315 315 314 313 312 311 310
307 307 307 308 308 308 309 309 309 309 309 309 309 309 309 309 309 309 309 309 309 308 309 309 310 312 314 316 315 314 314 314 313 314 314 313 312 310 309 308 307 307
306 307 307 307 308 308 308 309 309 309 309 309 309 309 309 309 309 309 309 309 308 308 308 308 310 312 313 314 313 313 313 313 313 313 312 311 309 307 305 305 304 304
305 306 306 306 306 307 307 308 309 309 309 309 309 309 309 309 308 308 308 308 308 307 308 309 310 312 312 312 311 311 311 311 311 311 310 308 307 305 304 303 302 302
305 305 305 306 305 306 307 308 309 309 308 308 308 307 307 307 307 307 306 307 307 308 309 309 310 310 311 311 310 310 310 309 309 309 309 307 306 305 304 303 302 302

ECMWFNIL_925_thetae_051.txt.gz
Theta_e
322 322 321 320 318 317 317 318 319 316 313 313 314 315 315 315 314 315 314 313 313 312 312 310 307 306 308 311 313 313 313 313 312 312 310 310 311 312 312 311 311 310
323 323 322 320 318 317 316 317 318 315 312 313 314 315 315 315 315 315 315 314 314 314 314 313 312 309 307 308 309 311 312 312 312 310 308 307 307 308 309 309 309 309
323 323 322 320 319 317 317 317 317 315 312 312 313 314 314 314 315 315 314 314 314 313 314 314 314 312 311 309 308 309 311 311 312 311 308 305 305 305 306 307 308 307
324 323 322 321 319 317 317 317 316 315 313 312 312 313 313 314 314 314 314 313 313 313 313 313 314 314 313 312 311 310 310 311 311 311 309 307 305 305 305 307 307 306
324 323 322 321 319 318 318 317 315 315 313 312 313 313 313 313 313 313 314 313 312 312 312 312 313 314 314 313 313 313 312 311 311 310 309 308 307 306 306 306 306 306
323 322 322 320 319 318 318 317 315 314 313 312 312 313 312 312 312 312 313 314 314 313 312 312 312 313 313 313 313 314 313 313 312 311 310 309 309 308 307 307 307 307
321 321 321 320 319 318 319 317 315 315 313 311 312 312 312 311 311 312 313 314 314 315 314 314 313 312 312 313 313 313 313 314 313 313 312 311 310 309 308 307 308 308
320 320 320 319 319 318 319 318 316 315 315 313 312 313 312 312 312 312 313 314 315 315 315 316 315 315 314 313 314 314 313 313 313 313 313 313 312 311 310 308 308 308
320 319 319 319 318 319 319 318 317 316 316 315 315 315 314 314 314 315 316 316 317 316 316 317 316 317 316 316 316 315 315 315 314 314 314 313 313 313 312 310 309 309
320 320 319 319 319 318 319 319 318 317 317 317 316 316 317 317 317 317 317 317 317 317 317 317 317 318 317 317 317 317 317 317 317 316 315 314 314 314 313 312 311 310
321 320 320 319 319 319 319 320 319 317 318 318 317 317 317 318 318 318 318 318 318 318 318 318 317 318 318 317 317 318 317 317 317 317 317 317 316 315 314 313 313 312
322 320 320 320 319 319 319 320 319 318 317 318 318 318 318 318 318 318 318 318 318 318 318 318 318 317 318 317 318 318 317 318 318 318 317 317 317 317 316 315 314 313
321 320 320 320 320 319 318 319 318 318 318 318 318 318 318 318 318 318 318 318 318 318 318 318 318 318 318 318 317 317 317 318 318 318 317 318 317 317 317 316 315 314
321 320 320 320 319 318 318 318 318 318 318 319 319 319 319 318 318 318 319 318 318 318 318 318 318 318 317 317 317 317 318 318 318 318 318 318 318 318 318 318 316 315
320 320 319 319 318 318 318 318 318 319 319 319 319 318 318 319 319 319 319 318 318 318 319 318 318 318 318 318 318 318 318 319 319 319 319 318 318 319 318 318 317 316
319 319 319 319 318 318 318 318 318 318 318 318 318 318 318 319 319 318 318 319 319 319 319 319 319 319 319 319 319 319 320 320 320 320 320 319 319 319 319 318 318 317
319 319 319 319 319 319 318 318 318 317 318 318 318 318 318 318 318 319 319 319 320 319 319 319 319 319 320 321 321 320 320 320 320 320 320 320 319 319 318 318 318 318
319 319 318 318 318 318 317 317 317 317 318 319 319 319 319 319 319 318 318 317 317 318 318 320 320 320 321 321 321 319 318 318 318 319 319 319 319 318 318 318 318 318
319 319 319 318 318 317 317 317 317 317 318 319 319 318 317 316 315 314 313 312 312 312 314 316 319 321 322 321 320 318 318 317 317 317 317 317 318 318 318 318 317 317
319 318 317 316 315 315 315 315 315 316 316 316 314 313 312 311 311 310 309 309 308 308 308 310 315 319 320 321 320 319 318 317 316 315 315 315 316 316 317 316 316 316
314 313 312 310 310 311 311 312 312 312 311 311 310 310 309 309 309 309 308 308 307 307 307 307 310 313 316 318 319 318 317 317 315 314 314 314 315 315 314 314 314 314
309 308 308 308 308 309 309 309 309 309 309 309 309 309 309 309 309 309 308 308 307 306 306 306 307 310 312 315 316 317 316 315 314 314 314 314 313 312 311 311 310 310
307 308 308 308 308 309 309 308 309 309 309 309 309 309 309 309 309 308 308 307 307 306 306 305 307 309 311 313 315 315 315 314 313 313 313 312 311 310 309 309 308 308
306 307 307 308 308 309 309 309 309 309 309 309 309 309 309 308 308 308 308 307 307 307 306 305 307 309 311 313 313 313 313 313 313 313 312 310 309 308 307 306 306 305
305 306 306 306 307 307 307 308 308 309 309 309 309 309 309 309 308 308 307 306 306 306 305 306 308 309 311 312 312 312 312 312 312 311 310 309 308 306 304 304 303 303
305 305 305 305 306 306 306 306 307 308 309 309 309 308 308 307 307 306 305 305 305 306 306 308 309 310 311 311 311 311 311 311 311 310 309 308 307 305 303 302 301 301

ECMWFNIL_925_thetae_054.txt.gz
Theta_e
329 328 328 327 325 323 322 321 319 318 318 318 318 318 318 318 319 319 318 317 317 316 315 315 316 317 317 317 316 315 315 316 316 316 316 317 316 316 316 316 315 314
329 328 327 327 325 323 322 322 319 318 319 319 319 319 318 318 319 319 318 318 318 318 317 315 316 317 316 316 316 315 314 315 314 313 314 315 314 315 315 315 315 314
329 328 327 326 326 324 323 322 319 318 319 320 319 319 319 319 320 320 319 318 318 318 318 317 316 316 316 316 316 315 315 315 314 313 313 313 313 314 314 314 313 313
327 327 327 326 325 324 323 321 320 319 319 320 319 319 319 319 320 320 319 319 318 318 319 318 317 317 317 317 316 316 316 315 314 313 313 313 313 313 313 313 313 312
327 327 326 326 324 323 323 321 320 319 318 319 319 319 319 319 319 319 318 319 319 318 319 318 318 318 318 318 317 316 316 316 316 315 314 314 313 313 313 313 313 312
327 326 326 326 324 322 322 321 319 318 317 318 319 319 318 319 318 318 318 318 318 318 318 318 318 318 319 319 319 319 318 317 316 316 315 314 313 313 313 313 313 313
326 326 326 325 324 322 322 321 320 319 319 318 318 318 318 319 319 318 318 318 318 318 319 319 319 319 319 319 319 319 319 318 317 317 317 316 314 313 313 313 313 313
326 326 325 324 323 322 323 323 321 320 320 319 318 319 318 318 318 318 318 319 319 319 319 320 320 320 320 320 320 320 320 319 319 319 318 318 317 316 314 314 314 314
325 325 325 324 323 323 323 323 321 320 320 319 319 318 318 317 318 319 319 320 320 320 320 321 321 321 321 321 321 321 321 320 320 320 319 319 319 318 316 315 315 315
324 324 324 325 325 324 324 323 322 321 320 319 320 319 319 319 319 320 320 321 321 321 321 321 321 322 322 321 322 322 322 321 321 321 321 320 319 319 318 317 317 316
325 324 324 325 325 325 324 324 324 322 320 320 320 320 320 321 321 321 321 321 322 321 321 322 322 322 322 322 322 322 322 322 322 321 321 321 320 320 319 318 318 317
326 325 325 325 325 326 325 324 324 323 321 321 322 321 322 322 322 322 322 321 321 321 321 322 322 322 322 322 322 322 322 322 322 322 322 322 322 321 320 320 319 319
326 326 325 325 326 326 325 325 325 324 323 322 322 322 323 323 323 323 323 322 322 322 322 322 322 322 323 322 323 323 323 323 323 323 322 322 322 321 321 321 320 320
326 325 325 325 326 326 326 325 324 324 323 322 321 322 323 323 323 324 324 323 323 323 323 323 323 323 323 323 323 323 323 323 323 323 322 322 322 321 321 321 320 320
325 324 324 325 325 325 325 325 324 324 324 322 322 323 324 323 324 324 323 323 323 324 323 323 323 323 323 323 322 323 323 323 323 323 323 322 323 323 322 321 321 321
324 324 324 324 324 324 324 324 324 324 324 323 323 324 324 324 324 324 323 323 323 324 324 324 323 322 321 320 320 321 323 323 323 323 324 323 323 323 323 322 322 321
323 323 323 323 323 323 323 324 323 323 323 322 321 322 322 324 324 323 323 323 324 324 324 323 322 321 320 320 320 320 321 322 323 323 322 322 322 322 322 321 321 321
323 323 323 322 323 323 322 322 321 319 319 318 317 319 320 321 322 323 323 323 323 323 323 322 321 320 321 321 321 319 317 319 321 320 320 320 320 319 319 319 319 320
322 323 322 322 322 321 320 320 318 318 318 318 319 320 320 320 322 323 322 322 323 322 322 322 321 321 321 321 319 318 316 316 319 319 318 318 319 318 318 318 318 318
321 322 322 321 321 320 319 319 319 320 320 320 320 320 319 319 320 320 319 318 318 318 319 319 320 321 322 320 319 318 316 316 317 319 318 317 317 317 317 317 318 317
318 318 318 318 319 319 319 319 319 320 319 319 319 318 317 317 317 315 313 313 314 315 315 314 315 317 320 320 319 319 317 316 317 317 317 316 315 315 315 315 316 316
314 314 314 315 316 316 317 317 318 317 316 316 316 315 314 314 315 313 312 312 314 315 314 311 309 311 315 317 318 318 316 316 316 315 315 315 314 313 313 313 313 314
312 311 312 313 313 313 314 314 315 315 314 314 313 313 313 313 313 313 312 313 313 313 314 312 309 308 311 313 315 315 315 314 315 314 314 314 312 312 311 310 309 311
310 310 311 311 312 312 313 313 313 312 312 312 312 312 313 312 312 312 312 312 312 310 311 311 309 307 310 312 313 313 313 314 313 313 313 312 311 311 309 307 307 307
310 309 310 310 311 312 312 312 312 312 312 312 311 311 312 311 311 311 311 311 310 307 306 310 311 309 310 312 312 312 313 313 312 312 312 311 310 309 308 306 305 304
309 310 310 310 310 311 311 310 311 311 311 311 311 310 311 310 310 310 310 310 310 308 307 311 312 311 310 311 312 312 312 312 311 311 311 310 309 308 308 306 304 303

ECMWFNIL_925_thetae_057.txt.gz
Theta_e
327 327 326 324 323 323 322 320 320 320 319 319 318 318 319 319 318 317 317 317 317 317 318 318 318 318 317 317 315 315 316 316 316 317 317 316 317 318 317 317 316 314
327 326 326 324 323 323 322 320 320 320 320 319 319 319 319 320 318 318 318 317 317 317 318 318 318 317 317 317 316 315 316 315 314 315 316 315 316 317 316 316 315 314
328 327 326 325 323 323 322 320 321 321 320 320 319 318 320 320 319 319 318 318 318 318 318 318 317 317 317 317 316 316 316 315 315 315 315 315 315 315 316 316 315 314
330 328 326 325 324 323 322 320 321 321 321 321 320 319 319 320 320 320 319 318 319 319 319 319 318 318 318 317 317 317 316 315 316 316 316 315 315 315 315 315 315 314
329 329 327 326 325 324 322 320 321 321 321 321 320 319 319 320 320 320 319 319 319 319 320 319 319 319 319 318 318 317 318 317 317 317 316 315 315 315 315 315 315 314
329 330 328 327 325 324 322 321 321 321 321 321 320 319 319 319 319 319 319 319 319 319 320 320 320 320 320 319 319 319 319 319 318 318 317 316 315 315 315 315 315 314
330 330 329 327 325 323 322 321 321 320 321 321 320 319 319 319 318 318 318 318 318 318 320 320 321 321 321 321 321 321 320 320 320 320 319 318 316 316 316 316 316 315
331 330 329 327 325 324 322 321 320 320 320 320 319 319 319 319 318 318 318 318 318 319 319 320 321 321 322 322 322 322 322 321 321 321 320 320 319 318 317 316 316 316
330 330 328 328 327 325 322 321 320 320 319 319 320 319 318 318 318 318 318 319 319 319 320 320 321 322 322 322 323 322 323 322 322 322 322 322 321 320 318 317 318 318
329 329 329 328 328 327 324 321 320 321 320 319 319 319 318 318 319 319 319 320 320 320 321 321 321 322 322 323 323 323 323 323 323 323 323 322 322 321 320 319 319 319
329 329 329 329 329 328 326 322 321 321 321 319 319 318 318 318 319 319 320 320 320 320 321 321 321 322 322 323 323 323 323 323 323 322 323 323 322 322 321 321 320 320
328 328 329 329 327 327 326 323 321 320 320 320 320 318 318 319 319 320 321 321 321 321 321 321 321 322 322 322 322 323 323 323 323 323 323 323 323 322 322 322 321 321
327 327 327 328 327 327 327 324 322 321 319 319 319 319 319 320 320 320 321 321 321 320 321 321 322 321 321 322 322 322 322 323 323 324 324 323 323 323 323 322 322 322
326 325 324 327 327 327 326 324 323 322 319 318 319 319 320 320 321 322 322 322 321 321 320 321 322 322 322 322 322 322 323 324 324 324 324 323 323 323 323 322 323 322
323 322 323 326 327 326 326 326 325 324 322 320 320 320 320 321 322 322 322 322 321 322 322 322 323 322 322 323 324 324 324 324 323 322 321 321 322 322 322 323 323 323
323 323 324 326 326 325 325 325 325 325 325 323 322 322 323 323 323 323 323 322 322 323 324 324 324 323 323 323 323 323 323 321 321 321 320 320 321 321 322 322 322 323
325 325 325 325 324 325 325 324 323 323 324 324 324 324 323 323 322 320 321 321 322 323 323 323 324 324 322 321 320 320 321 321 321 321 321 321 321 321 321 321 321 322
325 325 325 323 323 324 323 323 322 322 322 323 324 323 322 322 322 320 319 320 322 322 320 321 322 322 320 320 319 318 320 321 321 320 320 320 320 320 319 319 319 321
324 324 324 322 322 322 321 320 321 321 321 321 322 323 322 323 324 324 322 322 322 321 320 320 321 320 320 320 318 316 317 319 319 318 318 318 319 318 318 318 318 318
324 324 323 323 322 321 320 319 320 321 320 320 321 322 322 322 323 324 322 320 319 319 318 319 320 321 321 320 317 315 316 317 317 317 317 317 317 317 317 317 318 317
323 322 322 322 321 320 320 320 320 321 320 320 321 321 321 321 320 320 319 317 316 317 317 318 318 320 321 320 318 317 316 316 317 316 316 317 316 315 315 316 317 316
318 318 318 319 319 319 318 318 319 320 319 319 320 319 319 318 317 316 316 315 315 315 315 313 311 314 318 319 319 318 317 316 315 315 315 316 315 315 315 315 315 315
315 315 316 316 316 316 317 317 317 317 317 317 316 316 316 316 314 314 314 314 314 314 313 310 306 306 309 313 316 317 315 314 315 314 314 315 314 314 313 312 312 314
313 313 313 314 314 315 315 315 315 315 315 314 314 314 314 313 313 313 312 313 313 313 314 312 306 302 304 307 310 312 311 313 314 314 314 314 312 312 311 309 310 311
311 312 312 312 313 313 313 313 314 313 313 313 313 313 313 312 312 312 311 312 313 311 311 313 309 303 303 305 307 307 308 312 314 313 313 313 311 311 310 308 308 308
311 311 311 311 312 312 312 312 312 312 312 312 312 312 312 311 310 311 311 311 312 310 309 313 312 306 304 306 308 308 308 310 313 312 312 311 310 309 309 308 306 306

ECMWFNIL_925_thetae_060.txt.gz
Theta_e
326 326 324 324 324 324 323 323 322 320 319 319 319 319 319 318 317 318 318 318 318 318 318 318 317 316 315 315 315 315 316 316 316 316 316 316 317 316 315 314 313 314
326 325 324 323 323 323 322 321 320 320 319 319 319 320 319 317 317 317 317 317 318 318 318 318 317 317 316 316 315 315 315 316 316 316 316 316 316 316 315 314 314 314
327 325 324 323 323 323 322 320 321 320 319 319 320 320 318 317 317 317 317 317 318 318 318 317 317 317 317 317 316 315 315 315 316 316 316 316 316 316 315 314 314 314
327 326 325 324 323 322 321 320 321 320 320 319 319 320 319 318 318 318 318 318 318 318 318 317 318 317 317 317 316 316 316 316 316 316 315 316 316 315 315 315 314 314
327 326 326 324 323 323 321 321 321 320 321 320 320 320 319 319 319 319 319 319 319 319 319 319 319 318 318 318 317 317 317 317 316 316 315 315 315 314 315 315 314 315
328 326 326 324 323 322 321 321 322 321 321 320 319 320 320 320 320 319 319 320 319 320 319 319 319 319 319 319 319 319 318 318 318 317 316 316 316 315 316 315 314 314
328 326 326 325 324 323 321 321 322 322 321 320 319 320 320 320 320 319 319 319 319 319 319 320 320 320 320 321 321 320 320 319 319 319 318 317 316 316 317 316 315 314
327 325 326 326 325 323 321 321 322 322 322 321 320 320 320 320 320 319 319 319 319 319 319 320 321 321 321 322 322 322 321 321 321 320 320 319 318 318 317 317 317 317
326 325 326 327 325 324 321 321 321 322 322 321 319 319 320 319 319 319 319 319 318 319 320 320 321 322 322 322 323 322 322 322 322 322 322 321 320 319 318 318 318 318
324 324 326 327 326 324 322 322 321 321 322 321 320 320 319 319 318 318 319 319 318 319 320 320 321 321 322 323 323 323 323 323 322 323 322 322 322 320 319 319 319 320
324 324 326 327 326 324 322 321 320 320 321 320 320 320 319 319 319 318 319 318 319 319 320 320 321 322 322 323 323 322 323 322 322 323 323 323 322 322 321 320 320 320
325 324 325 326 326 324 322 321 320 320 319 319 320 319 318 319 319 318 319 320 320 320 320 320 321 322 322 322 322 322 322 322 322 322 322 322 321 321 321 321 320 321
324 323 324 325 326 325 323 323 321 320 320 320 319 319 318 319 319 319 319 320 319 320 320 321 321 322 322 321 322 322 322 321 321 321 321 321 321 321 321 321 321 321
325 324 323 323 325 326 325 324 322 321 321 320 320 319 318 318 319 319 319 321 321 320 319 320 321 321 321 321 322 322 321 321 321 320 320 320 321 320 320 321 321 320
327 327 324 323 323 323 323 323 322 320 320 320 320 319 318 319 319 320 321 322 323 320 319 320 320 320 320 320 320 320 321 322 321 321 320 320 321 320 320 321 320 319
326 326 325 324 323 321 322 323 322 320 319 320 321 319 319 322 321 321 322 322 321 320 320 320 320 320 321 321 319 320 322 322 320 319 319 320 320 320 320 320 319 319
324 324 323 323 322 322 323 323 322 320 320 322 324 323 323 323 322 322 322 321 320 320 320 319 319 320 322 322 321 321 321 320 319 320 320 319 319 319 319 319 318 319
323 323 322 322 322 321 322 322 322 322 322 323 325 325 324 323 322 321 320 320 320 321 321 320 319 319 321 321 320 319 319 319 320 321 320 319 319 318 319 319 319 320
321 321 320 321 321 321 321 321 321 322 323 323 324 324 322 322 322 321 319 319 321 320 318 318 318 318 320 320 318 318 319 320 320 319 318 319 319 318 318 318 318 319
320 320 320 320 320 320 320 320 320 322 322 322 323 323 322 322 322 321 320 320 320 319 316 316 318 319 320 319 317 317 318 318 317 317 317 317 316 316 317 317 316 317
320 320 320 320 320 320 320 321 321 321 321 321 322 323 323 323 322 320 318 319 320 318 315 315 316 319 320 318 316 316 316 316 316 317 317 316 315 316 317 317 316 315
319 320 321 321 320 320 320 321 321 321 320 321 322 322 322 321 320 318 316 317 318 315 314 315 316 318 320 319 316 316 316 315 316 316 316 315 316 316 315 315 315 315
317 318 319 319 319 319 320 320 320 320 320 321 321 321 320 318 317 317 316 317 316 314 312 314 314 315 318 319 318 317 314 314 315 315 315 314 314 313 311 311 313 315
314 315 316 316 317 317 318 319 319 319 319 319 318 318 317 316 315 315 316 316 315 312 308 307 307 308 310 313 315 313 310 312 315 315 314 313 312 311 309 308 311 313
312 312 313 314 315 316 316 316 316 316 316 316 316 316 315 314 314 314 314 314 314 312 308 305 303 304 304 305 307 306 307 312 315 314 314 313 311 310 309 308 308 309
312 312 311 311 313 314 314 314 314 314 314 314 314 314 313 313 313 313 313 314 313 313 313 310 305 302 303 303 303 302 304 310 314 314 313 312 311 310 309 307 307 307

ECMWFNIL_925_thetae_063.txt.gz
Theta_e
325 324 324 324 324 323 322 322 320 319 319 319 318 318 319 319 319 319 319 318 319 317 315 315 317 316 316 316 315 315 315 315 314 314 314 313 313 313 313 313 314 315
324 324 323 323 323 322 323 322 320 318 319 319 319 319 319 318 318 317 317 317 317 316 315 314 315 315 315 316 316 316 316 315 315 315 314 314 313 313 312 312 312 314
324 323 323 323 323 323 323 321 319 318 318 319 319 318 317 317 317 317 317 317 317 316 315 315 315 315 315 315 315 315 315 315 315 315 314 314 314 313 313 312 312 313
324 323 323 323 323 323 322 320 319 318 319 319 318 317 316 316 316 317 318 318 317 317 316 316 316 315 314 314 314 314 315 315 314 314 314 314 314 314 313 313 312 312
324 323 323 323 323 321 321 320 319 318 319 319 318 316 315 316 317 318 318 317 317 317 317 317 317 316 315 315 316 316 315 315 314 313 313 313 314 314 314 314 313 313
325 325 323 323 322 320 320 320 319 319 319 319 318 316 317 317 318 318 317 318 318 318 318 317 317 317 317 317 317 316 315 315 315 315 314 315 315 314 313 314 314 313
326 326 324 322 321 320 321 320 320 319 319 319 318 318 318 318 318 318 318 319 319 318 318 318 318 318 318 319 318 317 317 317 316 316 316 316 316 315 314 314 313 313
326 326 324 323 321 320 321 321 320 320 319 318 318 319 319 319 319 319 319 319 319 319 319 320 320 320 320 321 320 319 320 320 318 317 317 317 317 316 316 316 315 314
327 326 325 324 322 321 321 322 321 320 319 319 319 320 320 319 319 319 319 319 319 319 320 321 321 321 322 322 321 321 322 321 320 320 320 320 319 317 317 318 317 317
326 326 326 325 323 322 322 322 322 321 320 319 319 320 320 319 319 319 318 318 319 319 320 321 321 321 322 322 322 322 322 322 322 322 322 322 320 318 318 319 319 318
327 325 325 325 324 324 323 323 322 322 321 319 319 319 319 319 319 318 319 318 318 319 319 320 321 321 322 323 322 322 322 321 322 322 322 322 321 320 320 320 320 319
325 324 324 326 326 325 324 323 322 322 322 320 320 319 319 319 318 318 318 318 318 319 320 320 321 321 322 322 322 322 322 321 321 321 321 322 321 321 320 320 320 319
324 323 323 325 326 325 324 322 321 322 321 320 320 319 318 319 319 318 318 319 319 319 320 321 321 322 322 322 321 322 322 321 321 321 320 321 321 321 320 320 320 319
324 324 323 323 324 324 322 321 321 321 321 320 320 319 318 319 319 318 319 320 319 319 319 320 320 321 321 321 321 320 320 321 320 320 320 320 320 320 319 319 320 320
324 324 323 322 324 324 322 322 322 321 320 320 320 319 318 318 319 319 319 320 320 319 319 319 320 321 321 320 319 318 319 321 321 319 319 319 320 320 319 319 320 320
323 323 323 322 322 323 323 323 322 320 320 320 320 319 319 318 319 319 319 320 321 320 319 319 320 320 319 319 318 317 319 321 320 318 318 319 320 320 320 320 320 320
322 322 323 322 322 322 323 322 320 320 320 319 319 320 320 319 319 320 320 321 321 320 320 319 319 319 319 318 319 319 320 320 318 318 319 319 319 319 319 319 319 320
321 321 322 322 321 321 322 321 320 319 318 319 320 321 321 321 320 320 321 321 321 320 320 319 319 319 319 319 319 319 320 319 318 318 319 318 318 319 319 318 319 321
320 320 320 321 321 321 321 321 320 319 318 321 323 323 323 322 322 321 321 321 321 321 320 320 319 319 319 318 317 318 319 319 318 318 318 318 318 318 319 319 320 321
320 320 320 320 321 321 321 320 320 320 321 323 324 323 322 322 321 320 320 320 320 319 320 320 319 318 318 317 317 318 318 319 318 318 318 318 318 317 318 319 320 321
320 321 320 320 321 321 320 319 320 321 322 323 323 322 322 321 320 319 319 318 318 318 318 318 317 317 317 317 317 318 318 317 317 317 317 316 317 316 316 317 320 320
320 321 320 320 320 320 319 319 320 321 322 321 322 322 321 320 319 320 319 318 317 317 317 317 317 318 318 317 317 317 317 317 317 316 315 315 316 316 315 315 317 318
320 320 320 320 320 320 320 320 320 320 320 320 321 322 321 320 320 320 319 318 318 318 317 316 318 319 317 316 316 316 315 316 317 316 315 315 315 315 315 315 316 316
318 320 320 319 319 319 320 320 320 320 320 320 321 321 320 320 319 318 317 317 317 317 315 314 315 317 317 315 316 315 315 316 316 315 315 315 314 312 312 313 315 314
313 316 318 318 319 319 320 320 320 320 320 321 320 319 319 318 317 316 315 315 315 313 313 313 313 315 317 317 317 316 314 314 315 315 314 314 311 309 310 311 312 311
309 311 313 315 317 318 318 318 318 318 319 319 319 317 316 316 317 316 315 315 313 310 309 309 308 310 314 316 316 315 313 313 315 314 313 313 311 309 309 309 309 308

ECMWFNIL_925_thetae_066.txt.gz
Theta_e
326 325 325 325 324 323 323 322 322 321 320 320 320 321 321 320 319 318 318 319 320 319 318 318 318 318 317 315 316 317 316 314 314 313 313 313 314 315 317 318 319 322
325 325 325 324 323 324 323 322 321 320 320 319 320 320 320 320 319 318 317 317 317 317 317 317 316 315 314 313 314 315 315 313 313 313 313 313 313 314 315 315 315 317
325 324 324 323 323 323 322 322 321 320 319 318 319 319 319 319 319 318 316 316 316 317 316 314 314 314 314 313 313 314 314 313 313 312 312 312 312 313 314 314 314 313
325 324 323 323 323 322 322 321 320 319 318 318 318 319 319 318 318 318 316 315 315 315 313 312 314 315 315 314 313 313 314 313 313 312 311 312 312 312 313 314 314 313
325 324 324 324 323 322 321 319 318 318 318 319 319 318 317 317 317 317 316 315 314 314 313 314 315 315 314 314 313 313 313 313 313 312 312 313 312 312 312 313 313 313
324 323 323 323 323 322 320 318 318 318 318 319 318 317 316 316 316 317 316 315 314 314 314 314 314 314 314 313 312 312 313 313 313 313 313 313 313 313 312 312 313 312
323 323 322 323 323 322 319 318 318 318 318 318 316 316 316 317 318 317 316 316 315 315 315 314 314 315 315 314 313 313 314 314 314 314 314 313 313 313 313 312 312 312
323 323 323 323 322 321 319 319 318 318 318 317 315 315 317 317 318 317 316 317 317 316 316 316 315 316 316 315 314 315 315 315 315 316 315 315 314 314 313 312 312 313
324 323 322 322 321 321 319 319 318 319 318 316 315 316 318 317 317 317 318 318 317 317 317 317 317 318 317 317 317 317 316 316 316 316 316 316 316 316 315 315 314 313
324 323 322 322 321 320 319 319 318 319 318 316 316 318 318 317 317 318 319 318 317 318 319 319 320 320 318 319 320 320 318 317 317 317 318 317 316 317 317 317 317 314
324 323 322 322 322 321 319 319 319 319 318 317 317 319 319 318 319 319 319 318 318 319 320 320 321 321 320 320 321 321 319 319 320 320 320 319 317 317 318 319 318 316
324 324 323 322 323 322 320 319 319 319 319 318 317 318 319 319 319 319 319 318 319 320 320 321 321 322 321 321 322 321 321 321 321 321 321 320 318 318 319 319 319 318
323 323 322 322 322 322 322 320 319 319 319 319 318 318 319 320 319 319 319 318 319 320 320 321 321 322 322 322 322 322 321 321 321 321 321 321 320 319 319 319 320 319
324 323 322 324 323 322 322 321 320 320 319 319 319 318 318 319 319 319 318 318 318 319 320 320 320 321 322 322 322 322 322 321 321 320 320 320 320 320 320 320 320 319
324 323 323 325 324 322 321 321 320 320 320 320 319 318 318 318 319 319 318 318 319 319 320 320 320 321 322 322 322 321 321 321 320 320 320 319 319 320 320 320 319 319
324 323 323 323 323 322 320 319 317 317 319 319 317 317 319 318 318 319 318 318 319 320 320 321 321 322 322 321 321 321 319 319 319 320 319 319 319 320 320 319 319 320
324 324 323 322 321 321 320 320 318 316 318 319 317 318 320 319 318 319 318 318 319 319 320 321 321 321 321 320 320 319 317 317 318 318 317 318 319 320 319 319 320 320
324 324 323 322 322 322 322 321 320 318 319 320 319 320 320 319 319 319 318 319 319 319 319 319 319 320 320 320 319 317 317 318 318 317 317 318 320 320 319 319 320 320
323 323 323 323 322 322 322 322 322 321 320 320 320 320 320 320 320 319 319 320 319 319 319 319 319 319 319 319 318 317 317 317 318 318 318 319 319 319 319 319 320 320
321 321 321 321 321 321 321 322 322 321 321 320 320 320 320 321 321 320 320 320 320 320 320 319 319 319 319 319 318 317 317 317 318 318 318 318 319 319 319 320 320 320
320 320 320 320 320 320 320 321 321 320 320 319 320 320 320 320 321 321 320 320 320 320 320 320 319 319 319 319 318 317 317 318 318 318 318 318 318 318 319 320 321 320
320 320 320 320 319 319 319 320 320 320 320 320 321 321 321 321 321 321 321 320 320 320 320 320 319 319 319 318 317 317 319 319 318 318 318 317 317 318 319 320 321 320
320 320 320 320 320 320 319 319 320 320 320 322 322 321 321 321 320 320 320 319 319 320 320 319 319 319 318 317 317 318 319 319 318 318 317 316 316 316 318 320 321 319
319 320 320 319 319 320 319 319 320 320 321 322 321 320 320 319 319 318 318 318 319 319 318 318 318 318 317 317 318 318 317 317 317 316 315 315 315 316 317 319 319 317
311 314 317 318 319 319 319 319 319 320 320 320 319 319 319 319 319 319 318 319 319 318 318 317 317 318 318 318 317 316 316 316 316 315 314 314 314 315 316 316 315 315
304 306 309 311 313 315 318 319 319 320 320 320 319 320 320 320 320 320 319 319 319 319 318 316 317 318 318 316 316 316 316 316 315 315 315 314 314 314 314 313 312 311

ECMWFNIL_925_thetae_069.txt.gz
Theta_e
327 326 326 325 324 324 324 324 323 323 322 320 320 320 320 322 324 323 320 320 320 320 321 321 322 322 321 320 318 315 314 313 314 316 318 320 321 322 323 324 325 326
326 326 326 325 324 324 323 323 323 322 321 319 320 320 319 320 322 321 320 321 321 319 318 319 320 319 318 319 318 315 314 313 313 314 316 317 318 320 321 322 324 325
325 325 325 324 324 324 323 323 322 322 321 320 320 321 319 318 319 320 320 321 319 317 317 317 316 315 315 316 316 315 314 313 312 313 314 314 314 316 319 321 323 324
326 325 324 324 324 323 322 322 321 320 320 320 320 320 319 318 318 319 319 318 317 316 316 314 313 313 314 314 314 314 313 312 312 312 313 314 313 313 315 318 321 323
326 325 324 325 324 323 322 322 321 320 320 319 319 319 319 318 316 317 317 317 316 315 313 313 312 313 314 314 313 313 312 311 311 311 312 313 313 312 312 314 317 320
325 325 325 324 323 323 323 322 321 320 319 318 318 319 319 318 316 316 316 316 315 313 312 314 314 314 313 313 313 312 311 311 312 312 312 312 313 312 312 313 314 316
324 324 324 323 323 323 323 322 320 319 318 317 318 318 318 318 316 315 315 315 314 313 313 315 315 314 313 313 313 313 312 312 312 312 312 312 312 312 312 312 313 313
324 324 323 323 323 322 322 321 320 318 317 317 318 318 317 317 317 315 314 314 313 313 313 314 314 313 313 312 312 312 313 313 314 313 312 312 312 312 312 312 312 312
324 324 323 323 322 322 321 320 319 317 317 318 318 317 316 316 316 316 315 314 314 313 313 313 314 314 314 313 313 314 314 315 315 314 314 313 313 312 312 312 312 312
324 323 323 323 322 322 321 319 318 317 318 318 317 316 315 316 317 316 315 315 315 315 315 315 315 316 315 315 315 315 315 315 315 315 315 315 314 314 314 314 314 313
323 323 323 323 322 322 320 319 318 318 318 317 316 315 316 317 317 316 316 316 316 316 316 316 317 317 316 316 317 318 316 315 315 316 316 316 316 316 317 317 315 314
323 323 323 322 322 322 321 319 318 318 318 317 315 315 317 317 317 317 317 318 317 317 317 317 318 319 318 318 320 320 317 316 317 317 318 318 317 317 317 318 317 316
322 322 322 322 322 321 320 319 318 318 318 316 315 316 318 316 317 318 318 318 317 318 319 319 320 320 319 319 321 320 317 317 319 319 319 320 319 318 318 318 318 318
322 322 322 321 321 320 319 318 318 318 318 316 316 317 318 317 317 318 317 317 317 318 319 320 320 321 320 320 321 321 319 320 320 321 321 321 320 319 318 319 319 319
322 321 321 320 320 320 320 319 318 318 318 317 317 318 318 318 318 318 318 318 318 318 319 320 320 321 321 321 321 321 321 321 321 321 321 321 321 320 319 319 319 319
322 321 320 321 321 321 320 319 319 319 318 318 318 319 319 319 319 319 318 318 318 318 319 319 320 320 321 321 321 321 321 321 321 321 320 320 320 319 319 320 319 319
322 321 320 321 322 321 320 320 319 319 319 319 318 318 319 319 319 318 318 318 318 318 318 318 319 320 320 321 322 322 322 322 321 321 320 320 319 318 318 319 320 320
323 322 321 322 322 321 321 320 320 320 320 319 319 319 319 316 314 315 318 319 319 318 318 318 318 319 320 321 322 322 321 321 320 319 319 318 317 317 318 318 319 319
323 322 322 322 322 321 320 320 319 320 319 318 319 320 318 312 310 314 318 318 318 318 318 318 318 319 320 321 321 321 320 319 318 317 318 317 316 316 318 319 319 319
322 321 321 322 321 321 320 320 319 319 318 317 318 319 318 314 311 314 318 318 318 318 318 318 319 319 320 321 321 321 319 318 317 317 317 316 316 317 319 319 319 319
320 321 320 320 321 321 321 321 320 320 319 319 319 319 319 318 316 317 319 319 318 318 319 319 319 320 320 320 320 320 319 318 317 317 317 317 317 318 319 319 319 319
319 320 319 319 320 320 320 320 320 321 320 320 320 320 319 320 320 319 319 319 319 319 319 319 319 319 319 319 319 318 318 318 318 317 317 317 318 318 319 319 319 319
318 319 319 319 319 319 319 319 319 320 320 320 320 320 319 320 320 319 318 319 319 319 319 319 318 319 319 319 319 318 319 318 318 318 318 317 318 318 318 319 320 320
312 315 316 317 317 318 318 319 319 319 320 320 320 320 320 320 320 319 318 319 320 320 319 318 317 318 318 318 318 319 318 318 317 318 318 318 318 318 318 319 320 320
304 306 308 310 311 313 315 317 318 319 319 320 320 320 320 320 320 319 319 319 319 319 318 318 317 317 318 318 319 319 318 317 318 319 318 317 317 317 318 319 320 320
301 301 302 303 305 307 309 312 315 318 319 319 319 319 319 319 319 319 319 319 318 317 316 318 319 318 318 318 319 318 318 318 318 318 318 317 316 316 317 319 320 319

ECMWFNIL_925_thetae_072.txt.gz
Theta_e
330 328 325 326 326 325 324 325 326 326 325 324 324 323 323 323 322 323 324 323 321 321 323 323 322 321 320 318 316 315 315 315 316 317 319 321 322 324 325 326 327 327
330 327 325 326 325 324 324 325 325 325 324 324 323 322 321 322 323 324 323 320 319 320 321 321 321 320 319 317 314 314 314 314 316 319 320 321 321 322 323 325 326 327
329 327 325 325 325 324 324 325 324 324 323 322 321 320 320 322 323 323 321 319 319 319 319 320 319 319 319 318 315 313 313 314 316 318 319 319 319 320 322 324 325 326
327 326 325 325 325 324 324 324 323 323 321 320 319 319 320 322 323 321 320 320 319 318 317 317 317 316 316 317 316 314 313 313 314 315 316 317 317 319 322 324 324 325
327 326 325 325 324 324 323 323 322 322 320 319 319 320 319 320 321 320 320 320 318 316 316 314 314 314 315 315 315 313 312 313 313 313 314 315 315 317 320 323 324 324
326 325 325 325 324 323 323 323 322 321 320 319 320 320 319 319 319 319 320 319 317 315 313 311 313 314 314 314 313 312 312 311 312 313 313 313 314 314 317 321 322 321
325 325 325 324 324 323 323 322 322 321 320 319 319 319 319 318 318 318 318 317 316 313 311 311 313 314 313 312 312 311 311 311 312 312 312 312 312 313 314 317 319 319
325 325 324 324 324 323 322 322 321 321 320 319 319 319 319 318 317 317 317 316 314 312 312 313 313 313 313 313 312 311 312 312 312 312 312 312 312 312 312 313 315 316
324 324 324 324 324 322 322 322 321 320 319 318 318 318 318 318 317 316 315 315 313 313 313 314 313 312 313 312 312 312 312 312 312 312 312 312 312 312 312 312 313 314
324 324 324 324 323 322 322 322 321 320 318 317 318 318 318 317 317 315 314 314 313 313 313 313 313 313 312 312 312 312 313 314 314 312 312 312 312 312 312 312 312 312
323 323 323 323 323 322 322 322 321 319 317 317 317 318 317 317 316 315 314 314 313 313 313 313 314 313 313 313 313 313 314 315 315 314 314 314 314 313 314 315 313 312
323 323 323 323 322 322 322 321 320 319 317 317 317 318 317 316 316 315 314 314 314 314 314 315 315 315 315 315 315 316 316 315 315 315 315 316 316 316 317 317 315 313
323 322 323 323 323 322 322 321 320 319 317 317 318 317 316 315 316 316 315 315 316 316 316 316 317 317 317 317 318 319 319 317 315 316 317 317 317 317 317 318 317 315
322 322 322 322 322 321 321 321 320 319 317 317 318 316 315 316 317 317 316 316 317 317 317 317 318 318 319 318 318 319 320 318 316 317 319 319 318 317 317 318 318 317
322 322 321 321 321 320 320 319 319 318 318 317 318 315 313 315 317 316 316 317 317 317 317 318 318 319 320 320 320 320 320 319 318 319 320 320 320 319 318 318 319 318
322 321 320 320 321 321 320 318 317 318 318 317 317 315 314 316 316 316 317 318 318 317 317 318 319 319 320 320 321 321 321 320 320 320 321 321 320 320 320 319 319 319
321 320 319 320 321 321 320 318 317 318 318 317 317 315 315 317 317 316 317 317 318 318 317 318 318 319 319 320 321 321 321 321 321 321 321 320 320 320 319 319 319 319
320 320 319 319 320 320 319 319 319 319 318 318 318 316 317 318 318 317 318 318 318 318 318 318 318 319 319 319 320 320 320 321 321 321 321 321 321 320 319 319 318 318
320 319 319 320 320 319 320 320 319 319 319 319 319 318 318 318 318 318 319 319 319 318 318 318 318 318 318 318 319 319 320 320 321 321 321 321 320 319 318 318 317 317
321 320 319 320 320 319 319 320 319 319 319 319 319 319 319 319 319 319 318 318 318 318 318 318 318 318 318 318 318 318 319 320 321 321 321 320 319 318 317 317 316 316
320 320 320 320 321 321 320 319 319 319 319 319 319 319 318 318 318 319 318 316 315 316 317 317 318 318 318 318 318 318 319 320 321 321 320 319 318 317 317 316 316 317
319 319 319 319 320 320 319 319 320 320 320 319 319 319 318 318 318 319 318 317 315 314 315 317 318 318 318 318 318 318 319 320 321 321 320 319 318 317 317 317 317 319
316 317 317 317 318 319 318 319 319 319 320 320 320 320 320 319 319 318 319 319 318 317 317 318 318 319 318 318 319 319 320 320 320 320 319 318 318 317 317 317 318 318
308 310 311 313 315 316 317 318 318 319 319 319 320 320 320 320 319 319 319 320 319 318 318 318 318 319 319 318 319 319 320 320 319 319 318 318 318 317 317 317 318 318
302 303 305 306 308 310 313 316 318 318 318 319 319 319 319 319 319 319 320 319 319 318 318 318 318 319 319 318 317 318 318 319 318 319 319 318 318 318 318 317 318 318
300 300 301 302 303 304 307 310 312 315 317 317 318 318 318 318 318 318 319 318 318 318 318 318 318 317 318 317 316 315 316 317 318 318 318 318 318 318 318 317 318 318

ECMWFNIL_925_thetae_075.txt.gz
Theta_e
330 331 330 331 329 328 328 327 327 326 325 324 324 325 325 324 323 324 324 324 324 324 324 324 323 323 322 321 319 317 316 316 317 318 319 323 324 325 326 327 328 327
329 328 328 328 327 327 327 327 326 326 325 324 324 324 324 323 323 323 324 324 324 323 323 322 321 320 319 317 316 316 315 316 317 319 319 321 322 323 325 326 327 326
329 327 327 327 326 326 326 326 326 326 325 324 324 324 323 322 322 324 324 323 322 322 322 321 321 320 318 315 314 315 315 316 318 320 320 321 321 322 324 325 327 326
330 328 326 326 326 324 325 326 326 325 325 324 324 323 321 321 322 324 323 321 320 320 320 320 319 319 318 315 313 314 315 316 317 318 318 318 319 322 323 324 326 326
330 329 326 325 325 324 324 325 325 325 325 324 322 321 320 322 323 323 322 320 319 318 318 318 317 317 318 316 314 314 314 314 315 316 316 316 318 322 324 324 325 326
329 329 326 325 325 324 324 325 324 324 323 322 320 319 320 323 324 322 320 320 318 316 316 315 314 315 316 315 314 313 313 313 313 313 315 315 316 320 324 324 325 324
328 328 326 325 325 324 324 324 324 323 322 320 319 319 319 322 322 321 320 319 317 314 313 313 314 314 314 314 313 313 312 312 312 312 313 313 313 316 321 323 324 323
327 327 326 325 325 324 323 323 323 322 321 319 319 319 319 319 320 320 320 318 315 312 311 313 314 313 313 312 312 311 311 312 312 312 312 312 312 313 316 319 322 322
326 326 325 325 324 324 323 323 322 321 320 319 319 319 319 318 318 319 319 317 313 311 311 313 314 313 312 312 311 311 311 311 312 312 312 312 312 312 313 314 317 319
325 325 325 324 323 323 323 323 322 321 320 319 319 319 319 318 317 317 318 315 313 312 313 313 313 313 312 312 311 312 312 312 312 312 312 312 312 312 312 312 313 314
325 324 324 324 323 323 323 322 321 321 320 319 319 319 318 318 317 316 316 314 313 313 313 312 312 312 312 312 312 313 313 313 313 312 312 312 312 312 312 312 312 312
324 323 323 323 323 323 322 322 321 320 319 318 318 318 318 318 317 315 315 314 313 313 313 312 311 312 312 312 312 313 315 315 314 314 314 314 314 315 315 315 314 312
323 323 322 322 322 322 321 321 321 320 318 317 317 318 317 317 316 315 314 314 313 312 312 312 312 312 312 312 313 314 315 315 315 315 316 316 316 316 317 318 316 314
322 321 321 320 320 320 320 320 320 319 318 317 317 317 317 317 316 315 315 314 313 313 313 314 314 314 314 314 315 317 318 317 316 316 317 318 318 317 317 318 318 317
321 320 320 319 319 319 319 319 319 318 317 317 317 318 317 316 316 316 315 315 314 314 315 315 315 316 316 317 317 318 320 319 316 317 318 319 319 319 318 318 318 318
321 320 320 319 319 318 318 318 318 317 317 317 317 317 317 315 316 317 316 315 315 315 316 316 316 317 318 318 319 319 320 320 318 317 319 320 320 320 320 319 319 319
320 320 319 319 319 318 318 317 318 318 317 317 317 317 316 315 316 317 317 316 316 317 317 317 317 318 318 319 320 320 320 320 320 319 319 320 321 320 320 320 320 319
320 319 319 318 317 317 316 316 317 317 318 317 317 316 316 315 316 317 317 316 317 318 318 318 317 318 319 319 320 320 320 320 320 320 320 320 321 321 321 320 320 319
319 319 319 318 318 317 317 316 316 317 318 318 318 317 316 316 316 317 317 317 317 317 318 318 318 318 318 318 319 319 320 320 320 320 320 321 321 321 321 321 320 319
319 319 319 319 318 318 318 318 318 318 318 319 318 318 317 317 318 318 318 318 318 318 318 318 318 318 318 318 318 318 319 320 320 320 321 321 321 321 321 320 320 319
318 319 319 319 319 319 319 318 319 318 318 318 318 319 318 318 318 319 318 319 318 318 318 317 317 316 316 317 318 318 318 318 319 320 320 320 321 321 321 320 319 318
317 317 318 319 319 319 319 319 319 319 319 319 319 319 319 318 318 318 318 319 319 318 318 317 316 315 316 317 318 318 318 318 318 319 320 320 320 320 320 319 318 317
315 317 318 318 319 319 319 319 319 319 319 320 320 320 320 319 320 319 319 319 319 319 319 318 318 317 317 318 318 318 318 318 318 319 319 320 320 320 320 319 318 317
310 312 314 316 317 318 318 318 319 319 319 319 320 320 320 320 320 320 320 320 319 319 319 319 319 319 318 318 318 318 319 318 318 318 318 319 319 319 319 318 317 317
304 305 307 309 311 313 315 317 317 318 318 319 319 319 319 319 319 319 319 319 319 319 319 319 318 318 318 318 318 318 318 317 317 317 317 318 318 318 318 317 317 317
300 301 301 302 303 305 308 310 312 314 316 317 317 318 318 318 317 318 318 318 318 318 318 318 319 318 318 317 317 317 317 316 316 315 316 317 317 318 318 318 317 317

ECMWFNIL_925_thetae_078.txt.gz
Theta_e
328 329 334 334 333 334 333 333 332 330 330 328 328 328 328 328 329 329 328 328 327 326 326 327 327 327 327 326 325 324 324 324 325 326 330 331 331 332 333 333 333 332
326 328 332 333 333 332 332 331 330 329 329 328 327 327 328 328 329 329 328 327 326 325 325 325 326 325 325 324 323 323 323 323 323 324 327 329 329 331 332 333 332 331
328 330 331 332 332 330 330 330 330 329 328 328 327 327 328 328 328 328 327 326 325 324 324 324 324 323 322 322 322 323 323 324 324 324 325 326 326 328 331 332 332 331
332 332 331 331 331 329 328 329 330 329 328 328 327 327 327 327 327 328 327 326 323 323 323 323 323 322 321 320 321 322 322 323 324 324 323 324 324 327 330 331 331 331
333 333 331 329 329 329 328 329 330 329 328 328 327 327 326 326 327 327 326 324 322 322 322 322 323 322 320 320 320 320 320 321 321 322 321 322 324 326 328 330 330 330
333 333 330 328 328 328 329 330 329 328 327 327 327 326 325 326 326 326 325 323 322 321 320 320 320 321 320 320 319 319 318 318 319 319 319 321 324 325 326 327 328 327
333 332 330 329 328 327 328 328 328 328 327 326 325 324 325 326 326 325 323 322 320 319 318 318 319 320 320 319 319 318 318 317 317 317 318 320 323 324 324 324 324 324
333 332 330 329 328 327 327 328 327 327 327 325 324 324 326 326 324 323 322 321 319 317 316 317 317 319 319 318 318 318 317 317 317 317 318 320 322 322 323 324 323 322
332 331 330 328 328 327 327 327 326 326 326 324 323 323 325 325 324 323 322 320 318 316 316 317 317 318 318 317 316 316 316 317 317 317 318 319 320 320 321 322 323 323
332 331 329 328 328 328 327 326 326 326 325 323 323 322 323 324 323 322 321 319 317 315 316 317 317 317 317 316 315 316 316 317 317 317 318 318 319 319 319 320 321 322
331 329 329 329 328 328 327 326 326 325 325 324 323 322 322 322 322 322 320 318 316 315 316 316 316 316 316 316 316 316 316 316 316 316 317 317 318 318 318 319 319 320
329 328 329 329 328 328 327 326 325 324 324 324 323 322 321 321 321 321 320 317 315 315 315 316 316 316 316 317 317 318 317 317 317 317 317 317 317 317 318 318 318 319
327 327 327 326 325 326 326 325 324 324 323 323 322 321 321 320 320 320 319 317 315 315 315 316 316 316 317 317 318 319 320 320 319 319 319 319 319 319 319 318 318 318
325 324 324 323 322 323 323 323 323 323 323 322 321 321 320 319 319 319 319 318 316 316 316 317 317 317 318 319 319 320 320 321 321 321 321 321 322 321 322 321 320 319
323 322 321 321 320 321 321 322 323 323 323 323 322 321 321 319 318 318 319 318 317 317 318 318 319 320 320 320 321 321 322 322 322 322 322 322 323 323 323 323 322 322
321 321 321 320 320 320 321 322 323 323 323 322 322 322 321 319 318 319 319 318 317 318 319 319 320 320 319 319 320 321 322 323 322 323 323 323 323 324 323 323 323 323
321 322 321 320 319 320 321 321 322 323 322 321 322 322 321 320 319 320 320 318 318 319 320 321 321 318 316 317 318 319 321 322 323 323 324 324 324 324 324 324 323 324
322 322 321 320 318 318 318 318 318 320 320 321 322 322 321 321 320 321 321 320 320 321 321 322 320 317 316 318 319 319 320 321 323 323 323 323 324 324 324 324 324 324
322 322 321 320 318 316 316 316 316 316 317 319 320 321 322 322 321 321 321 321 321 321 321 322 321 318 317 318 319 319 320 321 322 324 324 323 324 324 325 325 325 325
322 321 321 321 319 317 317 317 316 316 317 318 318 319 320 321 322 322 321 321 322 321 321 322 321 319 318 318 318 319 319 319 321 324 325 325 324 324 324 324 325 325
321 321 321 321 321 320 320 319 318 318 318 318 318 318 318 320 321 321 321 321 321 321 322 322 319 317 317 317 317 317 317 318 319 321 324 324 324 323 323 323 325 326
318 320 320 321 321 321 321 321 320 320 319 319 319 319 318 319 320 321 321 321 320 320 322 321 318 316 316 316 315 316 317 317 318 319 322 324 323 323 324 324 325 326
315 317 318 319 320 320 320 320 320 320 320 320 320 320 320 320 321 321 322 322 321 321 322 323 320 318 318 317 317 317 317 318 319 321 322 323 323 324 325 325 325 325
312 313 315 317 318 318 319 319 319 319 320 321 322 322 321 321 322 322 321 321 321 321 321 321 321 319 319 318 318 318 318 318 319 321 322 323 324 325 324 324 324 323
308 309 310 312 314 315 316 317 318 318 319 320 321 321 321 321 321 322 321 320 320 320 319 320 320 319 318 318 318 318 318 318 319 321 322 322 323 323 324 324 323 322
306 306 307 309 309 311 311 313 314 316 317 318 319 319 319 319 319 319 319 318 317 317 317 318 319 318 318 318 318 318 317 317 318 319 320 321 321 321 322 322 322 321

ECMWFNIL_925_thetae_081.txt.gz
Theta_e
333 332 332 331 331 331 332 330 331 331 330 330 330 330 330 330 329 329 328 329 328 328 328 328 329 329 329 328 328 327 327 328 329 331 333 333 332 333 333 332 331 330
332 332 332 332 331 331 331 330 330 331 330 329 329 328 329 329 329 329 328 327 327 326 327 328 328 328 327 327 326 325 326 327 326 328 331 331 331 334 335 334 333 331
332 332 332 332 331 332 333 331 330 330 329 328 328 328 328 328 328 328 327 326 326 326 327 328 327 327 326 326 326 325 325 326 326 326 327 327 328 332 334 334 333 331
332 332 333 332 332 333 332 331 330 329 328 328 328 327 328 328 327 327 327 326 325 324 326 327 326 325 325 324 324 325 325 325 326 326 326 326 326 329 332 333 332 331
331 332 333 331 331 332 331 330 329 328 328 328 328 327 328 327 328 327 326 325 324 323 325 326 326 324 323 323 323 324 324 324 325 324 324 325 325 326 329 332 332 331
330 331 331 330 330 331 331 329 329 328 328 328 328 328 328 328 328 327 326 324 323 322 324 325 325 323 322 322 322 322 322 322 322 322 321 323 324 324 326 329 331 330
331 331 329 329 329 329 329 328 328 327 327 327 327 327 328 327 327 327 325 323 321 321 321 323 323 322 321 321 321 321 320 320 319 319 320 322 323 324 324 326 327 326
332 331 329 328 328 328 328 328 327 327 326 326 326 326 327 327 327 326 323 322 320 319 319 320 321 321 321 320 320 320 319 318 318 319 321 322 323 323 323 324 324 324
330 329 329 329 328 328 327 327 327 327 326 326 325 326 327 327 326 324 323 321 319 318 318 318 319 320 321 320 320 319 318 318 319 320 322 323 322 322 322 323 323 323
327 327 328 328 327 327 327 327 327 327 326 324 324 326 326 326 325 323 322 320 318 317 317 317 318 319 319 318 318 318 318 318 319 320 321 321 321 321 321 321 322 322
326 327 329 328 327 326 326 326 326 326 325 323 323 324 325 325 324 323 322 319 317 316 317 317 318 318 317 317 317 317 318 318 318 319 320 320 320 320 320 320 320 321
328 328 328 328 328 327 326 325 326 325 324 323 323 323 324 324 324 323 321 318 316 316 317 316 316 316 316 316 316 317 317 317 318 319 319 319 319 319 319 319 319 320
328 328 328 328 328 328 326 325 325 325 324 323 323 323 323 323 323 322 320 317 316 316 316 316 316 316 317 317 317 318 318 318 318 318 318 318 318 318 319 319 319 319
328 328 328 328 328 328 327 325 325 325 324 323 323 323 322 321 322 322 320 317 316 316 316 316 317 317 318 319 319 320 320 320 320 320 320 320 320 320 319 319 319 318
327 327 327 326 327 328 327 325 325 324 323 322 322 322 320 320 321 321 319 318 316 316 317 317 318 320 321 322 322 322 322 322 322 322 322 322 323 323 322 322 321 320
324 324 324 324 325 326 326 325 324 324 323 322 321 321 320 320 320 319 319 318 317 317 319 318 320 322 322 322 323 323 323 323 323 323 323 323 324 324 324 324 323 323
323 323 322 322 323 324 325 325 324 324 323 322 321 321 320 320 319 319 319 319 318 318 320 320 323 323 321 321 322 323 324 324 324 323 324 325 324 324 325 324 324 324
323 323 322 321 322 322 323 324 324 323 323 322 322 322 320 320 320 319 320 319 318 320 321 322 323 321 318 319 320 320 322 324 324 324 324 324 324 324 324 324 324 324
323 322 320 319 320 320 321 322 322 323 323 324 323 322 321 321 320 320 320 319 319 320 321 322 322 319 316 318 318 319 320 321 323 324 324 323 323 323 324 324 324 324
323 322 320 319 318 317 319 320 320 319 320 320 321 322 322 322 322 322 321 320 320 320 321 322 322 319 317 318 318 318 319 319 321 323 324 324 324 324 324 324 323 322
323 323 321 320 319 317 317 318 318 319 319 319 318 319 320 320 321 322 322 322 322 321 322 323 321 319 318 318 318 318 318 318 320 322 324 324 324 325 325 324 323 321
322 323 322 321 320 319 319 319 320 320 320 319 318 318 318 318 318 319 321 322 321 321 322 322 320 317 318 317 317 318 317 317 319 322 322 322 323 323 323 324 324 322
320 321 321 321 321 321 321 321 321 320 320 319 319 319 318 318 317 318 320 322 322 322 323 322 320 317 317 316 316 315 315 316 319 321 320 320 321 321 320 321 323 322
319 320 320 320 321 321 322 322 322 322 321 321 321 320 320 321 321 321 322 322 322 323 322 322 321 320 318 317 317 317 316 317 320 322 321 321 322 321 320 321 322 322
317 318 319 319 319 320 320 320 321 322 322 322 321 320 321 322 322 322 321 321 321 321 321 321 321 320 319 319 318 318 318 318 319 321 322 322 322 321 321 321 321 321
314 315 316 317 318 318 318 318 319 320 320 320 321 321 320 320 321 320 320 320 320 319 319 320 321 319 318 319 319 318 318 318 318 320 321 321 321 321 320 320 320 319

ECMWFNIL_925_thetae_084.txt.gz
Theta_e
334 333 333 333 332 332 333 333 333 332 331 331 331 331 331 331 331 330 329 329 329 329 329 329 329 329 328 328 327 328 329 330 332 331 331 331 330 330 330 330 329 329
334 333 333 333 332 333 333 333 332 331 330 330 330 331 330 330 330 329 329 328 328 328 329 329 329 329 328 327 327 327 327 328 330 330 330 331 331 330 330 330 330 330
334 333 333 332 332 332 332 332 331 330 329 329 329 329 330 329 329 328 327 327 327 328 328 328 328 328 327 326 326 326 327 327 328 328 329 330 330 331 331 331 331 329
333 333 332 332 332 332 331 330 329 329 329 329 329 329 329 329 328 327 326 326 326 327 328 327 327 327 326 325 326 326 326 327 326 327 327 328 330 331 331 330 330 329
333 332 332 331 331 331 330 330 329 329 328 328 329 329 328 328 327 327 326 325 325 326 327 326 325 325 324 325 325 325 325 325 325 326 326 326 328 330 331 331 330 330
333 332 331 331 331 330 329 329 329 329 328 328 328 328 328 328 327 327 325 324 324 326 326 325 324 323 323 323 324 324 324 324 324 324 324 324 325 327 330 330 330 330
332 332 331 331 330 328 327 328 329 328 328 328 328 328 328 328 327 326 324 323 323 325 326 325 323 322 322 322 322 322 322 321 321 320 322 324 324 325 327 328 329 329
331 330 330 330 329 327 327 327 328 328 328 328 328 328 328 328 327 325 323 322 322 323 324 324 323 322 321 321 321 320 319 318 319 320 322 323 324 324 326 326 327 328
330 328 328 328 328 327 327 327 327 327 327 327 327 327 327 327 326 324 322 320 320 320 321 322 322 321 321 321 320 319 318 318 320 322 323 323 323 324 324 324 325 327
330 329 328 327 327 327 327 327 327 326 326 326 326 327 327 327 325 323 321 320 319 318 319 320 321 321 321 320 319 319 318 319 321 322 322 323 323 323 323 323 324 326
329 329 329 328 327 327 327 327 327 326 325 326 326 327 327 325 324 322 321 319 318 317 318 319 320 320 320 319 318 318 319 320 321 321 322 322 322 321 322 322 323 324
328 328 328 328 327 327 327 327 327 325 325 325 326 326 326 324 323 322 320 317 316 317 318 318 318 318 318 317 317 318 318 319 320 320 321 321 320 320 321 321 321 322
328 327 326 327 327 327 327 327 326 324 323 324 324 325 325 324 323 322 319 316 316 317 317 317 317 316 316 316 317 318 318 319 320 320 320 319 319 319 320 320 320 321
328 327 326 327 327 326 326 326 325 324 323 323 323 324 324 324 322 321 319 316 316 317 316 315 316 316 316 317 317 317 318 318 319 319 318 318 319 319 319 319 319 320
329 328 328 328 327 326 326 326 325 324 323 323 323 323 323 323 322 320 318 316 316 316 316 317 319 319 319 319 319 319 319 319 320 320 320 320 321 320 319 319 319 320
328 328 328 328 327 326 325 325 325 324 323 323 323 322 320 322 322 320 318 317 316 316 317 321 322 321 321 322 322 322 322 322 322 322 322 322 323 322 322 322 322 322
327 327 327 327 327 326 325 325 324 323 322 322 322 321 320 321 321 319 318 317 317 317 320 323 323 322 321 323 323 323 323 323 323 323 323 323 323 323 323 323 322 322
325 325 325 326 326 325 325 324 324 323 323 323 322 321 320 320 320 319 319 318 318 319 322 323 323 322 321 321 322 323 324 323 324 324 323 323 323 323 322 323 322 322
323 323 323 324 324 324 324 324 324 323 323 323 322 321 320 320 320 320 319 319 319 321 322 322 321 320 318 319 320 321 322 322 323 323 323 323 323 322 321 321 321 321
322 322 322 322 323 323 323 323 322 323 323 322 322 321 321 321 321 321 321 321 321 321 322 321 320 317 316 317 318 319 319 320 320 321 323 323 323 322 322 321 321 321
321 320 320 321 321 322 322 321 320 321 322 321 321 321 321 321 321 321 322 322 322 322 322 320 318 317 317 317 318 318 318 318 318 319 321 322 323 322 322 322 322 322
320 319 318 319 319 320 320 320 320 321 321 320 320 320 320 320 320 321 321 320 320 321 320 320 319 318 318 318 318 318 318 317 317 319 320 321 322 321 321 321 321 322
322 321 320 319 319 320 320 320 320 320 320 320 319 318 317 319 320 320 319 318 318 317 318 319 319 318 318 318 317 317 316 315 316 320 322 321 321 321 320 320 321 323
321 321 321 321 321 321 320 320 319 319 319 320 319 318 319 320 321 320 320 320 319 319 319 319 320 319 319 318 317 316 316 316 317 320 321 321 321 321 321 321 321 322
319 320 320 320 321 321 320 320 320 320 320 321 321 321 322 323 322 321 321 321 320 321 320 320 320 320 320 319 319 318 318 318 318 319 320 321 321 321 321 321 321 320
315 317 318 318 319 320 320 320 321 322 322 322 322 322 323 322 322 321 321 320 320 320 320 319 320 320 319 318 319 319 319 318 318 320 321 321 320 320 320 320 320 319

ECMWFNIL_925_thetae_087.txt.gz
Theta_e
332 333 334 334 333 333 334 334 334 333 333 333 332 332 331 331 331 330 330 330 329 329 328 329 329 329 329 329 330 331 332 332 332 331 330 331 332 332 332 332 331 329
332 332 332 333 333 333 333 333 333 332 332 332 332 332 331 331 330 330 329 329 328 328 328 328 328 328 328 329 329 329 330 332 331 330 329 330 330 330 331 331 330 329
332 331 331 332 332 333 333 332 332 331 331 331 332 331 331 330 330 329 329 329 329 328 327 327 326 326 327 328 328 328 329 330 331 330 330 330 329 329 329 329 329 330
333 332 331 332 332 332 333 332 331 330 331 331 331 331 331 330 329 329 328 328 328 328 327 326 326 326 327 327 326 327 328 328 329 329 329 330 330 330 330 329 330 330
333 332 332 332 332 332 333 331 330 330 331 331 330 330 330 329 328 327 327 327 328 328 327 327 327 326 326 326 326 327 328 327 327 327 328 330 330 330 330 330 329 329
332 332 332 332 332 332 331 330 329 329 330 330 329 329 328 327 327 327 326 326 327 327 326 326 326 325 325 326 326 326 325 325 326 326 327 329 330 330 330 329 329 329
332 332 332 332 332 331 330 329 329 329 329 329 329 328 327 326 326 325 325 325 326 326 325 325 324 324 325 325 324 324 324 325 326 326 326 327 330 330 330 330 330 329
333 332 331 331 330 329 329 328 329 329 328 328 328 327 327 327 325 324 323 325 326 325 324 323 322 323 323 323 323 323 323 322 323 324 324 326 328 329 329 330 330 329
332 331 331 331 329 329 329 328 328 328 327 327 327 327 327 327 325 323 323 324 325 325 323 322 322 321 321 321 320 320 320 320 321 323 324 324 326 326 327 329 329 329
331 330 330 330 329 328 328 328 327 327 327 328 328 328 328 326 324 322 322 323 324 324 323 322 321 321 320 320 319 319 321 322 322 323 323 324 324 325 326 327 328 329
331 331 330 329 328 328 328 328 327 326 327 327 327 327 327 326 324 322 321 321 321 322 322 321 321 321 320 319 318 319 321 322 322 322 322 323 324 324 324 325 327 327
330 330 329 328 327 327 328 327 327 326 326 326 326 327 326 325 323 321 319 319 319 319 320 320 320 320 319 318 318 319 320 321 321 321 322 322 322 322 322 323 325 325
329 328 328 328 327 327 327 327 326 326 326 326 326 326 325 323 322 320 318 317 317 318 319 319 319 318 318 318 318 318 319 320 320 320 320 321 321 321 321 323 323 323
328 328 328 328 327 327 327 326 325 325 325 326 326 325 324 323 321 318 316 316 317 318 318 318 318 317 317 317 318 318 319 319 319 318 319 319 320 320 321 322 322 322
327 327 327 328 327 327 326 325 324 325 325 325 325 324 323 322 320 317 316 316 317 318 318 317 317 316 316 317 318 318 318 319 318 319 320 320 321 321 321 321 321 321
326 326 326 327 327 326 325 324 323 323 324 324 325 324 323 321 319 317 317 317 318 318 318 319 319 319 318 317 317 318 319 320 320 321 322 322 322 322 322 322 322 321
326 327 327 326 326 326 325 324 323 323 323 323 323 323 323 321 318 318 318 318 319 319 320 320 321 322 322 320 320 321 321 322 323 322 323 323 322 322 322 322 322 322
326 326 326 325 325 325 324 324 323 323 322 322 322 321 322 321 318 318 319 320 320 321 321 321 321 322 323 323 323 323 323 323 323 323 322 322 322 322 321 321 321 321
325 324 324 324 324 324 324 323 323 322 321 321 321 320 321 320 319 320 321 321 321 321 320 320 320 320 322 323 323 323 323 323 323 323 323 322 322 321 320 321 321 321
323 323 322 323 323 323 323 322 322 322 321 321 321 321 321 320 320 321 322 321 321 320 319 318 318 318 320 321 321 321 321 321 322 322 322 322 322 321 321 321 321 320
322 322 322 322 322 322 322 322 321 321 321 321 321 321 321 321 321 321 321 320 319 319 318 317 317 317 318 318 318 318 317 317 319 321 322 321 321 321 320 321 321 321
321 321 321 321 321 321 321 321 321 321 321 321 321 321 321 321 321 321 321 320 319 319 318 317 317 317 318 317 317 317 316 315 318 321 321 321 321 321 320 320 321 322
320 320 321 320 320 320 319 319 320 321 320 320 320 320 320 320 320 320 320 320 320 319 318 318 317 317 317 317 317 318 317 316 319 321 322 321 321 321 321 321 322 323
319 319 319 319 320 321 319 318 319 320 320 319 319 319 320 320 319 319 319 318 318 318 316 315 316 317 317 317 317 317 317 317 317 320 321 321 321 321 321 321 321 322
319 320 320 320 320 320 320 320 319 319 319 319 318 319 320 320 320 319 319 319 319 319 317 316 318 318 318 318 318 318 318 317 317 318 320 321 321 321 321 321 320 319
314 316 319 320 321 320 320 321 321 320 319 319 320 320 320 320 320 320 320 320 320 319 319 318 318 318 317 318 318 318 318 318 319 319 319 319 319 319 319 319 319 318

ECMWFNIL_925_thetae_090.txt.gz
Theta_e
333 333 334 334 334 333 331 332 333 333 333 333 333 333 333 332 331 332 332 332 331 330 330 330 331 332 332 332 332 332 332 332 331 330 331 332 332 331 331 331 331 330
332 332 333 333 333 333 332 331 333 333 333 333 333 333 332 331 331 331 331 331 330 329 330 330 330 330 330 331 332 332 332 332 331 331 330 331 332 332 331 331 331 330
332 331 333 333 332 333 332 331 332 333 333 332 332 332 331 331 331 330 330 330 329 329 329 329 329 329 329 330 331 332 332 332 331 331 330 331 331 332 331 331 331 329
331 331 333 333 332 333 332 332 332 333 332 332 332 331 330 330 330 329 330 330 328 328 328 329 329 328 328 329 330 330 331 331 331 330 330 330 330 331 332 331 330 329
331 332 332 332 332 332 333 333 333 332 332 332 331 330 330 330 330 329 329 329 328 328 328 328 328 328 328 328 328 329 330 330 331 330 329 330 330 330 330 329 329 329
332 332 332 332 331 332 333 333 333 331 331 332 331 330 330 330 329 329 329 328 328 327 327 327 327 327 327 327 328 328 329 329 330 329 330 330 329 329 329 329 329 329
331 332 332 332 331 332 333 332 331 330 330 331 331 330 330 329 329 328 328 327 326 326 326 326 326 327 326 326 327 327 327 327 328 329 330 330 329 330 330 329 329 329
331 332 332 332 332 333 333 331 330 330 329 330 329 329 329 328 328 328 327 327 326 327 327 327 326 326 326 326 326 326 326 326 327 328 329 330 330 330 330 330 329 328
332 332 332 332 333 333 332 330 329 330 330 330 329 328 327 327 327 327 326 327 327 326 326 326 325 325 326 326 325 324 324 326 326 326 327 329 330 330 329 329 329 328
331 333 332 331 332 332 331 329 328 329 329 329 327 326 326 326 326 325 325 327 326 324 323 324 325 325 325 324 323 323 324 324 325 325 325 327 329 330 330 329 329 328
331 332 330 330 330 329 329 328 327 327 328 327 326 326 326 325 324 324 325 326 325 323 322 322 323 323 322 321 321 322 321 321 322 324 325 325 327 328 328 329 328 327
329 330 329 328 328 327 328 327 326 326 327 327 327 326 326 324 323 323 325 325 324 323 321 321 321 321 319 319 321 321 321 321 322 324 324 324 326 327 327 328 328 326
328 329 328 328 328 327 327 326 326 326 327 327 327 327 325 323 322 323 324 325 324 322 321 320 320 320 318 319 321 322 322 322 322 323 323 324 325 325 326 327 326 325
328 328 328 328 327 326 326 326 326 327 327 327 327 326 324 323 322 321 322 323 322 322 321 320 320 319 318 319 321 321 321 321 322 323 324 324 324 324 326 325 323 322
327 328 328 327 326 326 327 327 327 327 327 327 327 325 323 322 321 320 320 320 321 321 320 320 319 319 318 318 320 319 319 320 322 322 322 322 323 323 324 323 322 321
326 327 327 326 325 326 327 326 326 326 326 326 326 324 323 321 319 318 318 318 319 320 320 319 318 317 317 318 319 319 319 320 321 321 321 321 322 322 322 321 321 320
325 325 326 326 325 325 325 324 325 326 325 325 325 323 322 320 317 316 317 318 318 319 319 318 317 317 317 318 318 318 319 319 320 320 320 320 321 321 321 320 320 320
325 324 324 324 324 324 323 323 324 325 325 325 324 322 321 319 317 317 317 318 318 318 318 317 316 318 319 319 319 320 320 321 321 321 321 321 321 321 321 321 321 320
324 323 323 323 323 323 322 322 324 325 325 324 323 322 320 318 318 318 318 319 319 319 319 319 319 320 321 321 321 321 322 322 322 322 322 321 321 321 321 321 321 320
323 323 323 322 322 322 322 322 323 323 323 323 322 321 319 318 318 319 319 320 321 321 322 322 322 322 322 322 322 322 322 322 322 322 321 321 320 320 320 320 320 320
322 322 322 322 322 322 322 322 322 322 322 321 321 320 319 319 319 319 320 320 321 322 322 322 322 322 322 322 322 322 322 322 321 321 321 321 320 320 321 321 320 321
320 321 321 321 321 321 321 321 321 321 321 320 320 320 319 319 319 319 319 319 319 320 320 320 319 319 320 321 321 322 322 320 319 320 321 321 321 321 321 321 321 322
320 320 320 320 321 320 319 320 320 320 320 320 319 318 318 318 318 318 317 318 317 318 318 318 317 317 318 318 318 319 319 319 319 320 321 321 321 321 321 321 322 323
319 320 320 319 320 320 319 319 319 319 319 319 319 318 317 317 317 317 317 317 317 317 317 317 316 316 316 317 317 316 317 318 319 320 321 321 321 321 321 321 322 323
319 320 320 319 319 319 319 319 319 319 319 319 319 319 318 317 317 317 316 316 316 317 317 316 316 316 316 317 317 318 319 320 320 321 321 321 321 321 320 320 320 319
318 319 320 320 319 318 318 319 319 319 319 319 319 319 318 318 317 317 316 316 316 317 317 318 318 318 317 317 317 318 319 320 320 321 321 320 320 319 319 318 318 317

ECMWFNIL_925_thetae_093.txt.gz
Theta_e
334 333 332 332 332 333 333 333 333 333 333 332 332 333 333 333 333 332 332 331 332 333 333 333 333 332 332 332 331 332 331 331 331 331 331 331 331 331 331 331 330 330
333 333 333 332 333 333 333 333 333 333 332 332 333 333 333 332 333 333 332 332 332 333 333 333 333 333 332 332 332 332 331 330 331 331 331 330 330 331 330 330 331 330
334 333 333 333 333 333 333 333 333 333 332 332 333 333 333 333 333 332 332 332 332 332 332 332 332 332 332 332 332 332 331 331 331 331 331 331 331 331 331 330 331 330
333 332 332 333 333 333 334 333 333 333 332 332 333 333 333 333 333 332 331 332 332 331 331 331 331 331 332 332 332 332 331 332 331 331 331 331 332 332 331 331 331 331
332 331 331 332 333 333 333 333 333 332 332 333 333 333 333 333 332 331 331 331 331 330 330 330 330 330 331 332 332 332 332 332 331 331 331 331 332 332 332 331 331 330
332 330 330 331 332 332 332 333 332 331 331 331 332 332 332 331 331 330 331 330 329 329 329 329 329 329 330 330 331 332 332 332 331 331 331 330 331 332 331 331 331 329
331 329 329 330 330 331 331 331 331 330 330 331 331 331 331 330 330 330 330 329 328 328 328 328 328 328 328 329 329 330 331 331 331 331 330 330 330 331 331 331 330 328
329 328 328 329 330 330 330 329 329 330 331 331 331 331 330 329 329 330 330 328 328 328 328 328 328 328 328 328 328 329 330 330 330 330 329 329 329 329 329 329 329 329
327 327 328 328 329 329 329 329 330 331 331 331 330 330 329 329 329 329 329 328 328 327 327 327 328 327 327 327 328 328 328 328 328 329 329 329 329 329 329 329 329 329
327 327 327 328 329 328 328 329 330 331 331 331 330 329 329 329 329 328 328 328 327 327 327 326 327 327 326 326 327 326 326 326 327 328 329 329 329 329 329 329 329 329
327 326 327 329 328 327 327 328 330 330 329 330 330 330 330 328 328 328 327 327 327 326 327 326 326 326 326 326 326 325 325 325 325 327 328 329 329 329 329 329 329 328
327 327 328 328 327 327 327 328 329 329 328 329 330 329 328 327 327 327 326 326 327 326 326 326 325 325 326 326 325 324 324 325 325 325 326 328 329 329 329 329 328 328
327 327 328 327 326 325 326 326 328 328 328 329 329 327 326 326 327 326 325 326 326 324 324 325 325 325 326 325 323 323 323 324 323 324 325 327 328 329 328 328 327 327
327 327 327 326 325 325 325 326 327 327 327 328 328 326 325 326 326 325 326 326 324 321 322 324 324 323 323 321 321 321 321 321 321 323 325 326 327 327 328 327 326 325
326 327 326 326 325 325 325 325 325 325 326 327 326 325 325 325 323 324 325 325 323 321 320 321 321 320 320 320 321 321 321 320 321 323 324 325 326 326 326 326 324 322
326 327 326 326 325 325 325 324 323 324 325 326 324 324 324 323 322 324 325 324 323 322 320 320 319 318 319 321 322 321 322 322 322 324 324 324 325 324 323 322 321 321
326 327 326 325 324 324 324 324 323 324 325 325 324 323 323 322 322 323 324 324 323 321 320 319 319 318 319 320 321 321 321 322 322 323 323 324 324 322 320 320 319 319
325 326 326 325 325 324 325 324 323 323 323 324 324 322 322 322 322 322 323 323 322 321 320 319 319 318 318 319 320 320 320 321 322 323 323 323 323 321 320 319 318 318
324 325 326 325 325 325 325 325 323 322 322 323 323 322 321 321 320 320 321 321 320 320 319 318 317 317 317 318 319 319 320 322 322 322 322 321 321 320 319 319 318 318
322 323 324 324 324 324 325 325 324 322 321 322 323 321 319 318 318 318 319 319 319 319 318 317 317 318 318 319 318 319 320 320 321 321 321 321 320 320 320 319 319 318
320 321 322 322 322 323 323 323 322 321 320 321 321 319 318 317 316 317 317 317 318 318 317 317 318 319 319 319 319 319 320 320 321 321 320 320 320 320 320 320 319 319
319 320 321 320 321 321 321 321 321 320 320 320 320 318 317 317 316 317 317 317 318 318 318 319 320 321 321 321 321 321 321 321 321 320 320 320 320 320 320 321 320 320
319 319 319 320 321 320 320 320 320 318 317 318 318 317 317 317 317 317 318 318 319 320 320 321 321 321 321 322 321 321 321 321 320 320 320 320 321 321 321 321 321 321
319 319 318 318 319 319 319 319 318 316 315 315 316 316 316 316 317 317 317 318 320 321 321 321 321 321 321 321 321 321 321 320 319 319 320 321 321 321 321 321 322 321
319 318 318 318 318 318 317 317 317 316 315 314 314 314 315 315 316 316 316 317 318 319 319 319 320 320 319 319 319 320 320 318 317 318 319 320 320 320 321 320 320 320
318 318 318 318 318 318 317 317 316 315 315 315 314 313 314 314 314 315 315 316 317 317 317 317 318 318 318 317 317 318 318 318 317 318 319 319 319 319 318 318 317 317

ECMWFNIL_925_thetae_096.txt.gz
Theta_e
333 333 332 332 332 332 332 332 332 331 331 331 332 332 332 332 333 333 333 333 332 332 332 332 332 332 332 333 332 331 331 331 332 332 331 331 331 331 331 331 330 330
332 332 332 332 332 332 332 331 331 331 331 331 331 331 332 332 332 333 333 333 332 331 332 333 332 332 332 333 332 331 331 330 331 331 331 331 330 330 331 331 330 330
332 331 333 333 332 332 332 331 331 331 330 330 331 331 332 332 332 332 332 332 332 331 332 333 333 332 332 332 332 331 331 331 331 330 331 330 330 330 331 330 330 330
330 330 332 333 333 332 332 331 331 331 330 330 331 331 331 332 333 332 332 332 332 331 331 332 333 333 332 332 331 331 331 331 330 330 331 330 330 330 330 330 330 330
328 330 331 332 332 332 332 331 330 330 330 330 331 330 330 332 333 333 333 332 332 331 332 332 333 333 332 332 332 331 331 331 330 331 331 330 331 330 330 330 330 330
327 328 330 330 330 331 330 329 330 330 331 331 331 331 331 332 333 333 333 332 332 332 331 332 332 332 332 332 332 332 331 331 331 331 330 330 331 331 331 331 330 330
327 328 329 328 328 329 327 328 330 331 331 331 331 331 332 333 332 333 333 331 331 331 331 331 331 331 331 331 332 332 331 331 331 331 330 330 331 331 331 331 331 330
327 328 327 327 327 327 327 328 330 330 331 331 331 331 332 332 333 332 332 331 330 331 331 330 330 330 330 330 331 332 331 331 331 331 331 331 331 331 331 331 331 330
327 327 326 326 326 327 327 327 329 329 330 331 331 331 332 332 332 331 330 330 330 330 329 329 329 329 328 329 330 330 331 331 331 331 331 330 330 330 330 331 330 328
327 326 326 326 326 327 327 328 328 329 329 330 331 331 331 331 331 330 330 330 329 328 328 328 328 328 327 328 328 329 329 329 330 330 330 329 329 329 329 329 329 328
327 326 326 326 326 327 327 327 329 329 330 330 330 331 331 331 330 330 329 329 327 327 328 328 327 327 327 327 327 327 328 328 328 329 329 329 328 328 328 329 328 328
327 326 326 326 326 327 327 328 329 330 330 330 330 330 331 330 329 329 329 328 328 327 327 327 327 327 326 326 326 327 327 327 327 328 328 329 328 328 328 328 328 328
327 326 326 326 327 328 328 329 330 330 330 330 329 330 329 329 329 328 328 328 328 327 326 326 326 326 326 326 326 326 326 325 325 327 328 329 329 329 329 328 328 328
326 326 326 326 326 327 327 327 329 329 329 329 329 328 329 329 328 327 327 327 327 326 326 326 326 326 325 326 326 325 324 324 325 325 327 328 329 328 328 327 327 327
326 326 326 327 327 327 326 326 328 328 328 328 329 329 328 327 327 326 325 326 326 325 325 325 326 325 325 325 325 324 323 324 324 324 325 327 328 328 327 326 326 326
325 325 326 326 326 326 325 325 326 326 327 327 328 328 328 326 325 325 325 325 325 323 323 324 324 325 325 325 324 323 322 323 323 323 324 326 327 327 326 326 325 323
325 325 325 325 325 325 325 324 324 325 326 326 326 327 327 326 325 324 324 324 324 321 321 323 323 324 324 323 322 321 321 321 321 322 324 324 326 326 324 323 321 320
324 324 324 325 325 324 324 324 323 325 325 325 325 325 325 324 323 323 324 324 322 320 320 320 321 321 320 320 321 321 320 320 320 322 324 324 325 324 322 320 319 319
322 323 322 323 324 324 324 323 323 324 325 324 324 324 323 322 322 323 324 324 322 321 319 318 318 318 319 320 321 321 321 321 322 323 324 324 323 322 320 319 318 318
321 321 321 322 323 323 323 323 323 323 324 324 323 322 321 320 320 322 323 323 322 321 320 318 317 317 318 319 320 320 321 322 322 323 322 321 320 319 318 318 317 317
319 320 321 321 322 323 322 322 322 321 321 322 322 321 319 319 320 321 322 322 321 321 320 318 317 317 317 318 319 319 321 321 322 322 321 319 318 318 318 318 318 318
318 319 319 319 320 321 321 321 321 320 318 318 317 317 316 317 318 319 320 320 319 319 319 318 317 317 317 319 319 320 321 321 321 320 319 319 318 318 318 318 318 318
317 317 318 318 319 319 319 320 320 318 317 315 314 314 314 316 317 317 317 318 317 318 317 317 317 318 318 319 320 320 321 321 320 320 319 319 319 319 319 318 318 318
317 317 317 317 317 317 318 318 317 316 315 314 313 312 313 314 315 316 316 316 317 317 317 318 318 318 319 319 319 320 320 320 320 320 320 320 320 319 319 319 319 319
316 317 317 316 315 315 315 316 315 314 313 313 313 312 313 314 314 315 316 316 317 317 317 318 319 319 319 319 319 320 320 320 320 320 320 320 320 319 318 318 318 318
315 316 316 316 315 314 313 314 314 314 314 313 313 311 312 313 314 315 315 314 315 316 316 317 317 318 318 319 318 318 319 319 319 319 319 319 319 318 316 315 314 313

ECMWFNIL_925_thetae_102.txt.gz
Theta_e
333 333 333 333 333 334 334 333 334 335 334 334 334 333 333 333 333 333 333 333 333 333 334 334 334 333 332 333 333 333 332 332 332 332 332 332 333 334 334 335 334 333
332 332 332 332 333 333 333 332 333 334 334 334 334 334 333 333 333 333 333 333 333 333 334 334 333 333 333 333 332 332 332 332 332 331 331 332 333 334 334 334 335 334
331 331 331 332 332 332 332 331 331 332 333 334 334 334 333 333 333 333 333 333 333 333 333 334 334 334 334 332 332 333 331 331 332 331 331 333 334 334 334 334 334 334
330 331 331 331 331 331 331 331 332 332 333 333 333 333 333 333 333 333 333 333 333 333 334 335 335 335 334 333 333 333 331 329 330 331 331 332 333 333 334 333 332 332
330 330 330 330 331 331 331 332 332 332 332 332 332 332 332 332 333 333 333 334 333 333 333 334 334 334 334 333 333 332 331 330 330 331 332 332 332 333 333 332 331 331
329 329 330 329 330 331 331 331 331 330 330 331 331 332 332 332 332 332 333 334 334 333 333 333 334 334 333 333 333 331 331 331 331 332 332 331 331 331 332 332 332 331
329 329 330 330 330 331 332 330 330 330 330 330 331 331 331 331 331 332 332 333 333 333 333 332 332 332 332 332 333 333 332 332 332 333 331 330 330 331 332 332 331 331
328 329 329 330 330 330 331 330 330 330 330 330 331 331 331 331 331 332 332 333 333 333 333 332 331 332 332 332 333 333 333 333 333 333 331 331 331 331 332 332 331 331
328 328 329 329 329 329 330 330 330 330 330 330 331 331 331 331 331 332 332 332 333 333 333 332 332 332 331 331 332 332 333 333 333 332 331 331 331 331 331 331 332 331
327 328 328 328 329 328 329 329 329 329 329 330 331 331 331 332 332 332 332 333 333 333 333 332 332 332 331 331 331 332 332 333 332 331 330 330 331 331 331 331 332 331
326 327 327 328 328 328 328 329 329 329 329 329 330 331 332 332 332 332 332 333 332 332 332 332 332 332 331 331 332 331 332 333 332 331 329 330 331 331 331 331 331 331
325 326 326 327 328 328 328 328 328 329 329 329 330 331 331 332 332 332 333 333 333 332 332 331 332 331 331 331 331 331 331 332 331 329 328 330 331 331 331 331 331 331
325 325 326 327 327 328 328 328 328 328 329 329 329 330 331 331 331 332 332 333 332 332 331 331 332 331 330 330 330 330 330 330 330 330 330 331 332 332 331 331 331 331
324 324 325 326 327 327 328 328 328 328 329 329 329 330 330 330 331 331 332 332 331 331 331 332 332 331 330 330 329 329 329 329 331 331 331 332 332 331 331 331 331 331
323 324 325 326 326 326 327 328 328 328 328 329 329 329 329 330 330 330 331 331 330 331 331 331 331 330 330 329 328 327 328 331 332 332 332 333 333 332 332 331 330 331
322 323 324 325 326 326 326 327 327 327 327 328 328 329 329 329 329 329 329 329 329 330 330 329 329 329 330 329 328 328 329 331 332 332 332 333 332 332 332 332 331 331
322 323 323 324 325 325 325 325 325 325 325 326 327 327 327 327 327 327 326 326 328 328 328 328 328 327 327 328 328 328 328 330 331 332 332 332 332 332 332 331 330 329
321 322 323 323 324 325 325 324 324 325 325 325 325 325 325 325 326 325 325 326 326 326 327 328 328 326 326 327 327 326 327 328 328 329 330 330 331 331 331 330 328 327
320 321 322 322 323 323 323 323 323 323 323 324 324 324 324 325 325 324 324 325 325 324 325 326 327 326 326 327 326 324 325 326 326 326 327 328 328 328 329 329 328 327
319 320 320 321 321 320 321 321 321 320 321 322 322 322 322 323 324 323 323 323 323 322 322 323 325 326 326 325 325 325 324 324 325 326 326 326 327 328 329 328 327 327
317 319 320 319 319 318 317 318 318 318 318 319 320 319 318 319 320 320 320 319 319 319 320 321 323 325 325 325 325 325 324 324 326 327 327 327 327 328 328 327 326 325
316 317 319 318 318 317 316 315 315 315 316 316 317 317 316 316 315 315 316 316 316 317 318 320 322 323 324 323 323 323 323 326 328 328 327 327 326 326 326 326 326 324
314 316 317 317 317 316 315 314 314 314 313 314 315 315 315 314 314 314 314 315 316 316 317 318 318 319 321 320 320 321 323 326 327 327 327 326 325 324 324 324 325 325
313 314 315 315 315 314 314 313 313 313 312 313 314 315 314 313 313 314 314 315 315 315 316 317 317 318 320 319 319 322 325 327 326 326 325 323 322 320 320 321 322 323
311 313 314 314 314 313 313 312 312 312 312 312 313 314 314 314 313 314 314 314 314 314 315 316 317 317 318 319 320 322 324 325 324 323 322 321 320 318 317 318 319 320
310 311 311 312 312 312 312 312 311 311 311 311 312 312 313 314 314 313 313 313 313 314 314 315 315 316 317 318 319 321 322 322 322 321 320 319 318 317 316 316 317 318

ECMWFNIL_925_thetae_105.txt.gz
Theta_e
336 335 335 335 336 335 334 334 336 335 335 336 336 336 335 335 336 335 335 335 335 335 335 333 333 334 333 333 334 333 333 334 334 332 332 332 332 333 335 334 333 332
334 334 334 334 334 335 335 335 335 336 336 335 335 336 336 335 336 335 334 335 335 335 334 333 333 333 333 334 333 333 334 335 335 334 334 334 333 333 334 333 332 331
333 333 333 333 333 334 334 334 335 335 335 335 335 335 335 335 336 335 334 334 334 335 335 333 333 333 334 333 333 333 334 333 335 335 334 333 333 333 333 333 332 331
332 332 332 333 332 333 334 334 334 334 335 335 334 333 334 335 335 335 335 334 334 335 335 334 334 334 334 333 333 333 333 332 333 334 333 333 333 333 332 332 331 331
332 332 332 332 332 332 333 333 332 332 333 333 332 332 333 334 335 335 334 334 335 335 335 334 334 334 334 333 332 333 333 333 333 333 333 332 332 332 331 330 330 331
332 331 331 331 331 332 331 331 332 331 331 332 331 331 331 333 334 335 334 334 335 334 334 334 334 334 333 332 332 332 332 333 333 333 332 333 332 332 332 331 330 331
331 331 331 331 331 332 331 330 330 330 330 331 330 329 331 333 334 334 334 334 335 334 334 334 334 333 333 332 331 331 332 332 332 333 333 332 332 332 332 332 330 330
330 331 331 331 331 331 331 330 330 330 330 330 331 330 330 333 334 333 333 334 334 334 334 334 334 334 333 331 331 331 332 333 332 332 332 332 331 331 332 331 330 330
329 330 330 330 330 330 330 330 330 330 329 330 330 330 330 332 333 333 333 333 332 333 333 333 333 333 333 332 332 332 332 333 332 332 331 331 331 332 331 331 332 331
328 328 329 329 330 330 329 330 329 329 329 329 330 330 330 332 332 332 333 332 332 333 334 334 334 333 333 333 333 333 332 331 331 330 331 330 330 331 331 331 331 331
327 327 328 328 329 329 329 330 329 328 328 329 330 330 331 331 332 332 333 331 331 332 333 333 333 332 332 332 331 332 333 332 331 330 330 330 330 331 330 330 330 330
325 326 327 327 328 329 329 329 329 329 328 329 330 330 330 330 330 331 332 331 331 331 331 332 331 330 331 332 331 331 332 331 330 330 330 331 331 331 330 329 330 329
324 325 326 327 327 328 329 329 329 329 329 329 329 329 329 329 330 331 331 331 331 330 330 331 332 331 333 334 333 332 331 330 329 330 331 331 330 330 329 329 330 329
324 325 326 327 327 328 328 329 329 329 330 329 329 329 329 329 330 330 331 331 330 330 330 331 332 332 333 333 333 333 333 332 331 331 332 330 328 329 329 329 329 329
323 325 326 326 327 327 328 328 328 329 329 329 329 329 328 329 330 330 330 330 330 330 330 331 331 332 331 332 332 333 333 333 332 332 332 329 328 328 329 328 328 329
323 324 325 326 327 327 327 327 327 327 328 329 329 328 328 328 329 329 330 330 329 330 330 331 331 331 331 331 331 331 331 330 330 331 330 328 329 329 328 328 329 329
323 324 324 325 326 326 326 326 326 326 327 327 328 328 326 326 327 328 328 329 329 329 330 330 330 330 330 330 329 329 328 327 328 329 328 328 328 327 327 329 330 330
322 323 323 324 324 324 325 325 324 324 325 325 326 327 326 326 326 327 327 327 328 328 329 330 330 329 330 329 328 328 327 325 326 328 327 327 326 326 327 329 330 330
320 322 322 322 322 322 323 323 322 322 322 322 323 324 325 326 326 326 326 326 326 327 327 328 329 329 329 329 328 328 327 326 326 327 327 327 327 327 328 329 329 329
319 321 321 321 321 320 320 321 320 320 319 319 320 321 322 322 323 323 324 324 324 324 324 324 326 327 328 328 328 328 328 326 324 325 327 328 328 329 329 329 328 328
318 319 319 319 319 319 319 319 318 318 317 317 317 317 318 318 319 320 320 320 320 320 320 321 322 324 326 327 327 328 327 325 324 325 326 327 328 328 328 328 328 327
317 317 318 318 318 318 317 317 317 316 316 316 316 315 315 316 316 317 317 316 316 317 317 318 318 321 324 326 326 326 325 324 325 326 325 326 327 326 326 327 327 325
316 316 316 317 317 317 316 315 315 315 315 315 315 314 314 314 315 315 315 315 315 315 316 316 316 319 321 323 323 324 325 324 324 325 326 327 327 325 324 325 326 325
315 314 315 315 315 315 315 314 314 314 315 315 314 313 312 312 313 313 313 314 314 314 315 316 316 318 319 320 322 323 324 324 322 322 325 326 326 324 323 324 324 325
313 313 313 314 313 313 313 314 314 313 314 314 313 313 312 311 311 312 312 312 314 315 316 316 317 318 318 320 321 322 324 323 322 322 323 324 324 322 320 320 321 322
312 312 312 312 312 312 311 312 312 312 312 313 312 312 311 311 310 310 310 310 312 314 316 317 317 318 319 319 321 321 322 322 321 321 321 320 320 318 316 315 316 317

ECMWFNIL_925_thetae_108.txt.gz
Theta_e
336 336 335 335 335 336 335 336 336 336 335 336 336 336 335 331 329 330 331 333 334 335 336 336 335 335 334 334 334 334 334 334 334 333 333 333 333 333 332 332 333 333
335 334 334 334 334 334 335 335 335 335 335 336 336 335 334 333 332 331 329 330 332 334 336 336 336 335 334 334 333 334 334 333 333 333 333 333 333 333 332 332 333 333
334 333 333 333 333 333 334 334 334 335 335 335 335 334 333 333 334 332 330 330 331 332 334 335 336 335 335 334 334 334 334 333 333 332 332 332 332 333 333 333 334 333
333 333 333 333 333 333 333 333 333 333 334 334 333 333 332 332 333 331 329 329 330 331 332 333 334 335 334 334 334 334 333 333 333 332 332 332 332 333 334 333 333 333
332 333 333 333 333 333 332 333 333 333 333 332 331 332 331 331 331 329 328 329 330 331 331 332 334 334 334 334 334 334 333 333 333 333 332 332 332 333 333 333 333 332
331 332 332 332 332 332 332 332 333 333 332 331 330 330 330 331 330 329 329 330 330 330 331 331 333 334 334 335 334 334 334 333 333 333 333 332 332 332 332 332 332 333
329 330 330 330 331 331 332 332 332 332 331 331 330 329 330 330 329 328 328 328 329 330 330 330 332 333 332 333 333 334 334 333 332 332 332 333 333 332 332 332 332 332
329 329 329 329 330 330 331 331 331 331 331 331 329 329 329 330 329 329 328 328 329 330 330 330 331 332 330 330 332 333 333 332 332 330 330 332 333 332 332 332 331 331
327 327 327 328 328 329 330 330 330 330 330 330 329 329 329 330 330 330 329 329 329 330 330 330 331 332 332 332 332 333 332 331 331 330 329 331 333 332 332 332 331 331
325 325 326 327 327 328 329 329 329 330 330 330 329 329 329 330 330 330 330 330 330 331 330 330 331 331 332 332 331 332 330 329 330 331 331 332 332 332 333 332 331 332
324 325 325 326 327 328 329 329 329 329 330 329 329 330 329 330 330 330 330 330 331 331 331 331 331 330 331 331 330 330 330 329 331 332 332 333 332 332 332 332 331 331
324 325 326 326 327 328 328 329 329 329 329 329 329 330 329 329 329 330 330 330 331 331 331 331 331 331 331 331 331 331 331 331 332 332 332 332 331 331 332 332 331 330
323 325 326 326 327 328 328 329 328 328 329 328 329 330 330 329 329 329 330 330 330 331 330 331 331 331 331 331 331 331 331 331 332 331 331 331 330 331 331 332 331 330
323 324 325 325 326 328 327 328 327 328 328 328 328 329 329 329 329 330 329 330 330 330 330 331 331 330 330 330 331 330 331 332 331 330 330 330 331 331 331 331 330 330
323 324 324 324 325 325 325 326 326 326 326 326 327 329 328 328 328 329 330 330 330 330 330 330 331 330 330 330 331 330 330 330 330 329 329 330 332 332 331 330 329 329
322 323 323 323 323 323 324 324 323 324 324 324 325 327 327 327 327 328 329 330 330 330 330 330 330 330 329 330 331 331 330 329 329 329 329 330 331 331 329 328 328 329
321 322 322 321 322 322 322 321 321 320 321 321 322 324 325 325 326 326 327 327 327 328 328 329 329 330 330 330 331 331 331 330 329 329 329 329 330 329 328 327 327 328
320 320 320 320 321 321 320 319 318 318 318 318 319 321 322 322 323 324 325 325 325 325 324 325 327 328 329 330 330 330 329 329 328 328 327 327 328 328 328 328 327 326
319 319 319 319 319 319 319 318 317 317 317 317 317 318 319 320 320 320 321 322 323 321 320 322 324 326 327 328 328 327 327 327 327 327 326 326 326 325 326 328 327 326
317 318 318 318 318 318 317 317 317 317 316 315 315 316 316 317 317 317 318 319 319 318 318 319 321 323 325 327 327 327 326 326 326 326 326 326 325 325 325 327 327 326
316 317 317 317 317 316 316 316 316 316 315 314 313 313 314 314 314 315 314 315 316 317 318 319 320 321 324 326 327 327 326 325 325 325 325 325 325 325 325 326 326 326
315 315 315 315 315 316 315 315 315 315 315 314 312 312 312 311 311 311 312 312 314 315 317 319 320 321 323 325 326 326 325 324 324 324 323 323 322 322 324 325 325 325
313 314 314 313 314 314 314 314 314 314 314 313 312 312 311 310 309 309 309 310 312 313 315 317 319 321 322 324 324 323 323 323 324 322 320 318 318 318 320 322 323 323
312 312 313 312 312 313 313 312 313 313 313 313 312 311 311 310 309 308 307 308 310 311 313 316 318 320 321 322 322 322 321 322 323 321 316 314 315 316 317 318 319 320
311 310 311 311 311 311 311 311 311 311 312 312 312 311 311 309 308 308 307 306 307 310 312 314 317 319 320 320 321 321 321 321 321 318 314 312 313 315 315 315 316 317
309 309 308 309 309 309 309 309 310 310 310 310 311 311 310 309 308 308 306 305 305 308 310 312 314 316 318 319 320 319 319 319 319 317 314 312 311 311 310 310 311 313

ECMWFNIL_925_thetae_111.txt.gz
Theta_e
333 333 333 333 333 333 333 333 334 334 334 335 335 335 335 334 334 333 333 333 331 329 329 330 330 332 333 333 334 334 334 334 334 333 331 330 331 331 331 332 332 331
332 332 333 333 332 333 333 333 333 333 334 334 334 334 333 333 332 332 331 331 331 330 330 329 329 330 331 332 334 334 334 334 334 334 332 331 332 331 331 332 332 331
331 331 332 332 332 332 332 332 332 332 333 333 332 332 331 330 330 330 330 330 330 330 329 329 329 330 330 330 332 333 334 334 333 333 333 332 333 333 332 333 332 331
329 330 330 330 330 330 330 330 331 331 332 331 331 330 329 329 329 330 330 329 329 329 328 328 328 329 330 329 330 331 333 334 333 334 333 333 333 333 333 333 332 332
328 329 329 329 329 329 328 329 330 331 331 331 331 330 329 329 329 329 329 329 328 328 328 329 329 330 331 331 330 330 333 334 332 332 332 331 332 332 331 331 331 331
327 327 327 327 327 328 328 329 330 329 330 330 330 330 329 329 328 329 329 328 328 328 328 329 330 329 330 332 331 331 332 333 330 329 329 329 330 330 329 329 330 332
325 324 325 325 326 326 327 328 329 329 329 329 329 329 329 329 329 329 329 329 329 328 328 329 329 329 329 331 332 331 332 332 329 328 329 329 329 329 329 329 330 332
323 324 325 325 326 327 327 328 329 329 329 329 329 329 329 329 329 329 329 330 329 328 328 328 329 329 329 331 332 332 332 331 330 329 329 330 329 330 330 330 330 332
323 325 326 326 327 327 328 328 329 329 328 329 328 329 329 329 329 329 329 329 329 329 330 329 329 329 329 330 331 331 331 331 331 331 331 330 330 331 332 332 332 332
324 325 326 326 327 328 328 328 328 328 328 328 328 329 329 329 329 329 329 329 330 330 330 330 330 329 330 331 331 331 331 331 332 332 331 331 331 331 332 332 332 332
324 325 325 325 326 327 327 327 326 326 327 328 328 329 329 329 329 329 329 330 330 330 331 330 330 330 330 331 332 331 331 332 332 331 330 331 331 331 332 332 332 331
323 324 323 324 324 324 324 324 324 324 325 326 327 328 328 328 328 328 329 329 328 328 330 330 330 330 330 330 331 331 331 331 331 330 330 330 330 330 331 331 331 332
323 322 322 322 323 322 321 321 322 322 322 324 325 325 326 327 327 327 329 329 328 328 329 330 329 329 330 330 330 330 330 330 330 330 330 329 329 330 329 329 331 331
321 321 321 321 321 320 319 319 319 319 320 321 323 323 324 326 326 326 327 327 328 329 329 329 329 328 329 329 329 328 328 329 329 330 329 328 328 329 328 329 331 330
320 320 320 320 320 318 317 317 317 317 318 319 321 321 322 323 324 324 324 324 326 328 328 328 329 328 328 328 328 328 328 328 328 328 327 326 327 327 327 328 330 329
319 319 319 319 318 317 316 316 316 316 317 317 319 319 319 320 320 320 321 321 323 324 325 327 328 328 328 329 329 330 330 329 328 327 327 327 328 328 327 328 329 328
318 318 318 317 316 316 316 316 315 315 315 316 316 316 316 316 316 317 318 319 320 321 322 324 327 328 329 329 329 330 330 329 328 328 327 328 329 328 326 326 327 328
317 317 317 316 316 316 316 315 314 313 313 313 314 314 314 314 313 314 316 317 319 320 321 323 325 327 328 328 329 329 329 328 327 327 327 327 327 326 325 326 327 327
315 315 316 315 315 315 315 315 313 312 312 311 311 311 312 312 312 313 314 316 316 317 319 322 324 326 326 326 327 328 327 327 326 325 325 325 325 325 325 326 325 325
314 314 314 315 314 314 314 314 313 312 311 310 309 309 309 310 311 312 313 314 314 315 318 321 323 324 325 326 326 326 326 325 325 324 324 323 323 324 325 324 324 325
313 313 313 313 313 313 313 313 312 311 311 310 309 308 307 307 308 310 311 312 314 314 316 319 322 323 324 325 324 324 324 324 323 322 321 321 321 323 324 324 324 324
312 312 312 312 312 312 312 312 312 311 310 309 308 307 307 306 306 307 309 312 314 316 317 318 319 321 323 324 324 323 323 322 321 320 318 317 317 318 320 321 322 322
310 310 310 310 310 310 311 311 312 311 310 309 308 307 306 305 304 304 306 310 313 315 316 317 318 319 320 322 322 322 320 319 318 317 315 313 312 312 314 316 317 319
309 309 309 309 309 309 309 310 310 310 310 309 308 307 306 305 304 303 304 307 308 310 312 315 316 317 318 319 319 320 319 317 316 314 312 309 309 309 310 311 313 316
307 308 308 308 308 308 308 309 309 309 309 308 308 307 306 305 304 303 303 304 304 306 310 312 312 313 315 316 317 318 318 317 317 315 311 308 308 309 308 308 310 313
305 306 307 307 307 307 307 307 307 308 307 307 306 306 306 305 304 304 303 302 303 304 307 308 308 309 312 315 316 316 314 314 315 314 311 309 309 309 308 307 307 309

ECMWFNIL_925_thetae_114.txt.gz
Theta_e
332 332 332 332 332 332 332 332 332 332 333 333 334 333 333 332 330 330 329 328 329 330 330 331 330 330 330 329 329 330 330 329 329 328 328 328 330 331 331 330 330 330
330 330 330 330 331 330 330 330 330 331 331 331 332 332 331 330 329 329 328 328 329 329 329 329 329 329 329 328 328 329 330 329 329 328 329 330 330 330 331 331 330 330
329 329 329 329 329 329 328 329 329 329 329 330 330 330 330 330 329 329 328 328 328 329 329 329 328 328 328 328 328 328 329 329 328 328 330 332 331 330 331 331 331 330
327 327 327 327 327 327 327 328 328 328 327 328 328 329 329 329 329 328 328 328 329 329 329 328 328 328 328 328 328 328 329 329 328 329 331 332 332 331 331 331 331 330
325 325 325 325 325 326 326 327 327 328 327 328 328 329 329 329 329 328 328 329 329 329 329 328 328 328 328 328 328 328 328 328 328 329 330 331 332 332 331 331 331 331
324 324 325 325 326 326 327 327 328 328 328 328 328 328 328 328 329 329 329 329 329 329 329 328 328 328 328 328 328 328 328 329 329 329 330 331 332 331 331 332 332 332
324 325 326 327 327 328 328 328 327 328 328 328 328 328 328 329 329 329 328 328 329 329 329 329 328 328 328 328 328 328 329 329 329 330 331 331 331 331 331 332 332 332
325 326 326 327 327 327 326 326 326 327 327 327 327 328 328 328 328 328 328 329 329 329 330 330 329 329 328 328 329 328 329 329 329 330 331 330 330 330 330 331 331 331
324 324 325 325 325 324 324 324 324 325 326 327 327 327 327 327 327 327 328 328 329 329 329 330 330 330 329 329 329 329 329 330 330 330 330 330 329 329 329 330 329 330
323 323 323 322 322 321 321 321 322 323 325 325 325 325 326 327 326 327 328 328 328 328 328 329 330 330 330 329 329 329 330 330 330 329 329 329 328 328 329 329 329 329
321 321 320 319 319 319 319 319 320 321 323 324 324 324 325 325 326 326 327 327 328 328 328 328 329 329 330 330 329 329 329 330 330 329 328 329 328 328 329 330 330 330
320 320 318 317 317 316 317 318 319 320 321 321 322 323 324 324 324 325 325 326 327 328 328 328 329 329 329 329 329 328 328 329 329 328 328 328 327 328 329 331 331 331
320 319 317 316 315 315 316 317 318 318 319 319 320 322 322 321 322 323 323 324 326 327 328 328 328 328 328 328 328 328 328 328 328 327 327 327 327 328 329 331 331 331
318 317 316 315 315 315 315 316 316 316 317 317 319 319 319 318 319 321 322 323 324 325 326 327 328 328 328 327 327 327 327 327 328 328 328 328 328 328 329 329 330 330
316 315 315 315 315 314 314 314 314 314 315 316 317 316 316 317 317 319 320 322 323 323 323 325 326 327 327 327 327 327 327 327 327 328 327 327 327 328 328 328 329 329
315 315 315 315 314 313 312 312 312 312 313 313 313 314 314 315 316 318 319 319 319 319 320 322 324 325 327 327 328 328 327 327 327 327 326 326 326 327 327 327 328 328
315 315 315 315 314 312 311 311 311 311 311 312 312 313 313 314 315 316 316 316 315 316 317 319 322 324 326 327 327 328 327 327 327 326 326 326 326 326 326 326 326 327
314 314 314 314 313 312 311 311 311 310 311 311 311 312 313 314 314 314 314 314 314 315 316 319 322 325 326 326 327 326 326 326 325 325 325 325 325 325 325 326 326 326
313 313 313 313 312 311 311 310 310 309 309 309 310 311 312 313 312 312 313 314 314 314 315 317 321 324 325 326 326 325 325 324 324 324 324 323 324 324 324 324 324 325
312 312 312 312 312 311 310 309 308 308 307 307 308 309 310 310 310 311 312 312 312 313 314 315 316 319 322 324 323 323 323 322 321 320 320 320 321 322 322 323 323 323
311 311 312 312 311 311 310 308 307 306 306 306 306 306 306 306 307 309 310 310 310 311 313 313 313 316 320 321 321 321 320 320 319 318 317 317 317 318 319 320 321 320
310 310 310 310 310 310 309 308 307 306 305 305 305 305 305 305 306 307 308 308 310 312 311 310 311 314 316 317 318 319 319 318 317 316 315 314 314 314 314 316 318 319
309 309 309 309 309 309 308 308 307 306 305 305 304 304 304 304 304 305 306 307 309 311 310 308 308 310 313 315 316 317 317 317 316 315 313 312 311 311 311 312 315 317
308 308 308 308 308 308 308 307 306 306 305 304 304 303 303 302 302 304 305 305 306 307 308 308 307 307 309 311 312 314 315 314 313 314 312 310 310 309 308 310 312 314
307 307 307 307 307 307 307 306 305 305 304 304 303 303 302 302 302 302 302 302 303 304 305 306 306 306 307 307 308 310 310 308 309 310 308 307 308 308 308 308 310 311
305 306 306 306 306 306 306 305 304 304 303 303 302 302 302 301 301 301 301 301 301 302 302 303 303 304 305 306 307 307 306 305 305 304 303 302 304 305 305 306 307 308

ECMWFNIL_925_thetae_117.txt.gz
Theta_e
331 331 331 331 331 330 329 329 329 330 329 329 330 330 330 330 330 330 329 329 329 328 328 328 327 327 327 327 328 328 328 328 329 329 329 329 329 328 327 328 329 330
330 330 330 329 329 328 327 327 328 328 328 327 328 328 329 329 329 329 329 329 328 328 327 327 326 327 328 329 328 328 328 328 328 328 328 329 328 328 328 328 329 329
328 328 328 327 326 326 326 326 326 327 327 327 327 328 328 328 328 328 328 328 328 328 328 327 327 328 328 329 328 328 328 328 328 327 328 328 328 328 328 328 328 329
326 326 326 325 325 325 325 326 326 327 327 327 328 328 328 328 328 328 328 328 328 328 328 328 328 328 328 328 327 328 328 328 328 328 328 328 328 328 328 329 329 328
325 325 325 325 325 326 326 327 326 326 327 327 327 327 327 328 328 328 328 328 327 327 328 328 328 328 328 328 327 327 327 328 328 328 328 328 328 328 329 329 328 328
324 325 325 326 326 326 327 326 325 325 326 327 327 326 326 326 327 327 327 327 326 326 327 328 328 329 329 329 328 327 327 328 328 327 328 328 328 328 329 329 329 329
325 325 326 326 326 326 325 324 324 324 325 325 325 325 325 325 326 326 326 326 326 326 327 327 328 329 329 329 329 328 328 328 328 328 328 328 328 328 328 329 329 329
324 325 324 324 324 323 323 322 322 322 323 324 324 324 324 324 324 325 325 326 326 326 326 326 328 329 329 329 330 329 328 328 328 328 328 328 329 329 328 328 329 328
323 322 322 321 321 321 320 320 320 320 321 323 323 323 322 322 323 323 324 325 325 325 325 326 328 328 328 329 330 329 329 329 329 329 329 329 329 329 328 327 328 328
320 319 319 319 319 318 318 318 318 319 320 321 322 321 322 322 322 323 323 323 324 325 325 326 328 328 328 328 329 329 329 329 329 329 329 330 329 328 328 327 328 328
318 318 317 317 316 316 317 317 318 319 320 320 320 321 321 321 321 321 320 320 322 323 325 326 327 328 328 328 328 329 328 328 328 328 328 329 328 327 327 327 327 327
317 316 316 315 315 315 316 317 317 318 318 319 319 319 320 319 319 318 317 317 319 321 323 325 327 328 327 327 327 327 327 327 328 328 328 328 327 327 327 327 327 327
316 315 315 314 314 314 315 315 316 316 316 316 317 317 317 317 317 316 316 316 318 320 322 323 325 327 327 327 327 327 326 327 327 328 327 327 327 327 327 327 327 328
315 314 313 312 312 312 313 313 313 313 313 313 314 314 314 313 313 314 315 316 318 320 321 323 325 326 326 327 327 327 327 326 327 327 327 327 327 327 326 326 327 327
315 314 312 311 311 310 311 311 312 312 313 312 312 312 312 312 312 314 315 316 318 320 322 324 325 325 325 327 327 327 327 326 326 326 326 326 326 326 326 326 326 326
314 313 312 311 311 311 311 311 310 311 312 311 311 312 312 312 314 315 315 315 316 318 321 323 324 323 325 327 326 326 326 326 325 325 325 325 325 325 325 325 326 326
313 312 311 311 311 310 311 310 309 310 309 309 310 310 311 312 313 313 312 312 313 314 316 318 319 321 323 325 325 325 325 325 324 324 324 324 324 324 323 323 324 325
312 312 311 311 310 310 310 310 309 308 308 307 307 308 309 310 310 309 309 309 311 312 313 315 318 319 320 322 323 323 323 323 322 321 321 321 321 321 321 321 322 322
312 311 311 310 309 308 309 308 307 306 306 306 306 307 308 309 308 308 308 308 309 309 311 314 316 317 318 319 320 320 321 320 320 320 319 319 319 319 319 320 320 320
311 311 310 309 308 308 307 307 306 305 305 305 306 307 308 307 307 307 307 307 308 308 309 310 312 314 316 317 317 318 318 318 317 317 316 316 316 317 317 317 317 318
310 310 309 308 307 307 306 306 305 304 304 304 304 305 305 305 305 305 306 307 307 308 308 307 308 310 312 314 314 314 315 315 315 314 314 313 314 315 316 316 315 316
310 309 309 308 307 306 306 305 304 304 303 303 303 303 303 303 304 304 305 307 308 308 308 306 306 307 309 310 310 310 310 311 311 311 310 310 311 314 315 314 314 314
309 309 308 307 306 305 304 304 303 303 302 302 302 302 302 302 302 302 303 305 306 307 306 306 305 306 307 308 308 308 307 307 307 307 306 305 307 310 312 312 312 313
308 308 307 306 305 304 304 303 302 302 302 302 301 301 301 300 301 301 302 302 302 302 303 304 303 305 307 307 307 306 306 304 304 304 304 304 304 306 308 309 310 311
308 308 306 305 304 303 303 302 302 301 301 301 301 300 300 300 300 300 300 300 300 301 302 302 302 302 305 306 306 306 305 305 305 304 303 303 303 304 305 305 307 309
307 306 305 304 303 303 302 301 301 301 300 300 300 300 300 300 300 300 299 299 299 300 300 301 301 301 303 305 307 307 307 307 306 304 302 302 303 303 303 303 304 305

ECMWFNIL_925_thetae_123.txt.gz
Theta_e
329 329 328 327 327 327 328 328 328 328 327 327 327 326 326 326 325 325 325 325 326 326 327 327 326 326 327 327 327 327 327 327 327 327 327 327 327 327 328 328 328 328
327 327 326 327 327 327 327 327 327 326 326 325 325 324 324 323 323 324 324 324 325 325 325 326 326 326 326 327 327 326 327 327 327 327 327 328 327 327 328 328 328 328
326 326 326 327 327 327 326 326 325 325 324 324 323 322 322 322 322 323 323 323 323 324 325 325 326 326 326 326 326 326 327 327 326 326 327 328 327 328 328 327 327 328
325 325 326 325 325 325 325 324 324 323 322 322 322 322 322 321 321 321 321 321 322 323 324 324 325 325 326 326 326 326 326 327 326 326 328 328 327 327 327 327 327 328
324 324 324 323 323 323 322 322 321 321 321 321 321 321 321 320 320 320 321 321 322 322 323 323 324 325 326 326 326 326 326 327 326 327 329 329 327 326 327 327 328 328
323 322 322 322 321 321 320 320 319 320 320 320 320 320 319 319 319 319 320 320 319 320 321 322 323 325 326 324 325 326 327 327 327 326 328 329 328 327 327 328 328 328
320 320 320 320 319 319 319 319 318 319 318 318 318 318 317 317 318 318 318 317 317 318 320 321 322 323 324 324 325 326 326 326 327 327 328 329 328 328 328 328 328 328
319 318 318 318 318 318 317 317 317 317 316 316 316 316 316 317 317 317 316 316 316 318 320 322 322 323 323 324 325 326 325 326 326 327 328 328 328 328 328 328 328 328
317 317 317 317 317 316 315 315 315 314 314 315 315 315 315 315 315 315 315 316 317 318 321 323 323 324 324 325 325 325 325 326 326 327 327 328 328 328 328 328 328 328
316 315 315 315 315 314 313 313 313 313 313 313 313 313 314 314 314 314 314 315 317 319 321 322 323 324 325 325 326 326 326 326 326 326 327 327 327 327 328 328 328 328
314 314 313 313 313 312 312 312 312 312 311 311 311 312 313 313 313 313 313 313 315 317 319 321 322 324 324 325 325 326 326 325 325 325 326 326 327 327 327 327 327 327
313 312 312 312 311 311 312 311 311 310 310 310 310 311 311 310 310 311 311 313 314 316 318 320 322 322 323 324 324 324 324 324 324 324 325 325 325 325 325 325 326 326
312 311 311 311 311 311 311 310 309 309 309 309 309 309 309 309 309 310 312 313 314 316 317 318 320 321 321 322 322 322 322 323 323 323 324 323 323 323 323 323 323 324
311 311 310 310 311 310 310 309 309 308 308 308 308 308 308 308 309 310 311 312 313 314 316 317 317 317 318 320 320 320 321 321 321 322 322 322 321 321 321 320 321 322
311 310 310 310 310 310 309 309 308 308 308 308 308 307 307 307 308 309 310 310 311 313 314 314 314 313 314 317 318 317 318 318 318 318 319 319 319 319 317 316 317 318
310 309 309 309 309 309 308 308 307 307 308 308 308 307 307 307 308 309 309 309 310 310 310 309 310 310 313 315 316 316 316 316 315 315 315 315 314 315 315 314 315 316
309 309 309 308 308 308 307 307 307 308 309 309 309 309 309 309 308 308 308 307 307 306 305 306 307 309 312 314 315 316 315 314 313 312 312 311 310 311 311 312 313 313
309 309 308 307 307 307 307 307 308 309 310 311 310 309 309 308 307 307 306 305 305 304 304 304 306 308 311 313 314 314 313 312 310 310 310 309 308 308 309 310 311 311
309 308 307 307 306 306 306 307 309 309 309 310 309 307 306 305 304 305 305 304 303 303 303 304 305 307 310 311 312 312 311 309 309 308 307 307 306 307 307 308 309 309
308 307 306 306 306 306 306 306 306 306 307 309 307 304 304 304 304 304 303 303 303 303 303 304 305 307 308 309 309 310 309 308 307 307 306 305 305 305 306 306 307 307
308 307 306 305 305 305 304 303 304 304 306 307 305 302 303 303 303 303 303 303 303 303 304 305 306 307 308 308 308 308 308 307 306 306 305 304 304 304 305 305 306 306
307 306 305 304 304 303 303 302 303 303 304 304 303 302 303 302 301 302 302 302 303 303 303 303 305 307 307 308 308 307 308 307 305 304 304 304 303 303 303 304 304 305
306 305 304 304 303 303 302 302 302 302 302 303 303 302 302 301 300 301 302 302 303 303 302 301 303 306 307 309 309 308 308 306 304 304 304 303 303 302 302 303 304 304
305 304 304 303 302 302 302 301 301 301 302 303 303 302 301 301 301 301 301 301 302 302 301 301 302 304 307 308 309 308 307 305 304 304 303 303 302 302 302 302 303 304
304 303 302 302 301 301 301 301 301 301 301 303 302 301 300 300 300 300 300 300 300 301 301 301 301 303 306 308 308 308 305 304 304 303 302 302 302 301 301 301 302 302
304 303 302 301 301 301 301 301 301 301 301 302 301 300 300 299 299 299 299 299 299 300 300 300 299 301 304 306 307 307 305 303 302 302 302 301 300 300 300 300 300 300

ECMWFNIL_925_thetae_126.txt.gz
Theta_e
335 334 334 333 332 332 331 331 330 330 329 328 327 328 327 326 326 326 326 327 327 327 327 327 328 328 328 328 329 329 329 330 330 330 329 329 329 330 330 330 330 330
333 332 332 331 331 330 330 329 329 328 327 327 326 326 325 325 325 325 326 325 325 326 326 327 327 327 328 328 328 329 329 329 330 329 330 329 329 329 329 330 330 331
331 331 330 330 330 329 328 328 327 326 326 325 325 325 325 325 324 324 324 324 324 325 326 326 326 327 327 328 329 329 329 329 330 329 329 329 329 329 329 330 330 331
330 329 329 328 328 327 327 326 326 324 324 324 324 324 324 323 323 323 323 323 323 324 324 324 325 326 326 327 328 328 329 330 329 329 329 329 330 330 329 329 330 330
328 328 327 327 326 326 325 324 323 322 322 323 323 323 322 322 321 321 321 321 322 322 322 323 323 324 325 326 327 328 329 329 329 329 329 329 330 330 330 330 330 330
326 326 325 325 324 324 323 322 322 321 321 321 321 321 320 320 320 319 320 320 320 321 322 322 322 323 323 324 325 327 327 328 329 329 329 329 329 330 330 331 331 331
325 324 323 323 322 322 321 321 320 320 320 319 319 319 318 318 318 318 319 319 319 320 320 321 321 321 322 323 324 325 326 327 328 329 329 329 329 330 330 331 331 331
323 322 322 321 321 320 319 319 318 318 318 318 318 318 317 317 317 317 318 318 319 319 319 319 319 320 321 322 322 323 325 326 327 328 329 329 329 329 329 330 331 331
321 320 320 319 319 318 317 317 317 317 316 317 316 316 316 316 316 316 317 317 317 317 317 317 317 319 320 321 321 322 324 325 326 327 328 328 328 328 328 329 330 330
319 318 318 318 317 316 316 315 315 315 315 315 315 315 315 315 315 315 314 314 315 315 315 316 316 318 318 319 321 322 323 324 325 326 326 327 327 327 327 327 328 329
318 317 316 316 316 315 315 314 314 314 314 314 314 314 314 313 313 313 313 313 313 314 315 316 316 317 317 318 320 320 321 322 322 323 324 324 324 324 324 324 324 325
316 315 315 315 315 314 314 314 314 314 313 313 313 313 312 312 312 312 312 312 313 314 314 314 315 316 318 318 318 319 319 319 320 321 321 321 321 321 321 321 321 321
314 314 314 314 314 313 313 313 313 313 313 312 312 312 311 311 310 311 312 312 312 312 312 313 313 316 317 317 316 317 317 317 317 318 319 319 319 319 319 319 318 318
314 314 313 313 313 313 313 313 313 312 311 311 311 310 310 309 310 311 312 312 311 311 310 310 310 312 315 316 315 315 316 316 316 316 316 317 317 317 317 317 317 316
313 313 313 313 313 313 313 312 312 311 311 310 310 309 309 309 310 311 311 311 310 309 309 309 308 309 312 314 314 313 314 315 314 314 314 314 315 315 315 315 315 315
313 313 312 312 312 313 313 312 312 311 310 309 309 309 309 310 311 311 310 310 309 309 308 308 307 308 311 312 311 312 314 314 313 313 312 312 313 313 314 314 314 314
312 312 312 312 312 312 312 312 311 310 310 310 310 310 311 311 310 310 309 309 308 308 308 307 307 309 310 310 310 311 313 313 312 311 311 311 312 312 313 313 313 313
312 312 312 312 312 312 311 310 310 310 310 311 311 311 312 311 310 309 309 308 308 308 307 307 307 308 309 309 309 310 311 312 311 311 311 311 311 311 312 312 312 312
311 312 312 311 312 311 309 309 311 311 311 311 311 311 311 311 310 309 308 308 308 308 307 307 307 308 308 308 308 309 310 311 311 311 311 310 310 310 311 311 311 311
311 311 311 311 310 309 308 309 311 312 312 312 312 311 311 311 310 309 308 308 308 308 308 308 307 307 307 308 309 309 309 310 311 311 310 309 309 309 310 310 311 311
311 311 310 310 309 308 308 309 311 312 312 311 311 311 311 311 310 309 309 308 308 308 308 307 307 306 306 308 309 310 310 311 311 310 309 308 307 307 307 308 309 310
310 311 310 309 308 308 308 308 310 311 311 311 311 311 311 310 309 309 308 308 308 308 307 306 306 307 307 307 309 310 311 311 310 309 309 308 307 305 304 305 306 307
310 310 309 308 308 308 308 308 309 310 310 310 311 311 309 309 308 308 307 308 307 307 306 305 305 307 307 307 308 310 311 311 310 309 308 308 307 306 304 304 304 305
309 310 309 308 308 307 307 307 307 308 308 309 310 309 308 308 308 307 307 306 305 305 304 304 304 306 307 307 308 309 310 310 310 309 308 307 306 305 304 303 303 303
309 310 310 309 307 307 307 306 306 306 307 308 308 308 307 307 307 306 306 305 304 303 303 302 303 305 306 306 307 307 308 309 309 308 307 306 306 305 304 303 302 302
308 308 309 308 306 306 306 306 306 306 307 307 307 307 306 306 306 305 305 304 303 302 302 302 301 303 305 306 306 306 306 307 307 307 306 305 305 304 304 303 301 301

ECMWFNIL_925_thetae_132.txt.gz
Theta_e
334 334 333 332 335 336 335 335 334 333 333 332 331 331 330 329 328 328 328 328 328 328 328 328 328 328 328 329 329 329 330 331 331 332 332 332 332 332 332 331 331 331
334 334 334 333 334 335 334 334 333 332 331 330 330 329 329 328 328 327 327 326 326 326 326 327 327 327 327 327 327 328 328 329 330 331 331 331 332 331 331 331 331 331
335 335 335 334 334 334 333 332 331 330 330 329 328 328 328 328 326 326 325 325 325 325 325 325 326 326 326 326 326 326 327 328 329 329 329 330 331 331 330 330 330 330
335 335 334 334 333 332 331 331 330 328 328 328 327 327 326 325 325 324 324 324 324 324 324 325 325 324 324 325 326 326 327 327 328 328 328 329 330 330 330 329 329 329
334 333 333 332 331 331 330 329 328 327 326 326 326 325 324 324 323 323 323 323 323 323 324 324 324 323 324 324 325 325 326 326 327 327 328 329 329 328 328 327 327 327
333 332 331 330 329 329 328 328 326 326 325 325 324 323 323 322 322 322 322 322 323 323 323 323 323 323 323 324 324 324 325 326 326 326 327 327 326 326 325 325 324 323
331 330 329 328 328 327 327 326 325 324 324 324 323 322 321 321 321 321 321 322 322 322 322 322 323 323 323 323 323 324 324 324 324 325 325 325 324 324 323 321 320 319
329 328 327 327 326 325 324 324 323 323 322 322 321 320 320 320 320 320 320 321 321 321 322 321 321 321 321 321 322 322 322 322 322 323 324 323 323 322 320 318 317 316
327 326 326 325 324 323 323 322 321 321 321 321 320 319 319 319 320 320 320 320 321 320 320 319 319 319 319 320 320 321 321 321 321 322 322 321 321 320 318 316 315 314
325 325 324 323 322 321 321 321 320 320 320 320 319 319 319 319 319 319 319 319 319 318 317 317 316 316 317 318 319 320 320 320 320 320 320 319 319 319 317 315 313 312
324 323 322 321 320 320 320 319 319 319 319 319 319 318 319 319 318 318 318 317 317 316 315 314 314 314 315 316 318 319 319 318 318 319 318 318 318 317 316 314 313 312
322 321 320 319 319 319 319 319 319 319 319 319 318 319 319 318 318 317 316 316 315 314 313 313 313 314 314 315 317 318 318 317 317 317 317 317 317 316 316 315 313 312
320 320 319 319 319 319 319 319 318 318 318 318 318 318 318 318 317 316 315 314 313 312 311 312 313 314 315 316 316 317 317 316 316 316 316 317 316 316 316 315 313 313
319 319 318 319 319 318 318 318 318 318 317 317 318 317 317 317 316 315 314 313 312 311 311 312 313 314 314 315 316 316 316 316 315 316 316 316 316 316 315 315 314 313
318 318 318 318 318 318 318 318 317 317 317 317 317 317 316 316 315 315 314 313 312 311 311 312 312 312 312 313 315 316 316 315 315 315 315 315 315 315 315 315 314 313
318 318 318 318 318 318 318 317 318 317 317 317 316 316 316 315 315 314 314 313 312 311 311 311 311 311 312 313 314 315 315 315 314 314 314 315 315 315 315 314 313 313
318 318 318 318 318 318 318 318 318 317 317 317 316 315 315 315 315 314 313 313 312 311 310 310 311 311 312 313 314 314 314 314 314 313 313 313 313 314 314 314 313 312
318 318 318 318 318 318 318 318 318 317 317 317 316 315 315 315 315 314 314 312 311 310 309 310 311 311 312 312 313 313 312 312 311 311 310 310 311 311 312 312 312 312
317 318 317 317 318 318 318 318 317 317 316 316 315 315 315 314 314 314 314 313 311 310 309 310 310 311 312 312 312 312 312 311 310 309 307 306 307 308 309 310 311 311
317 317 317 317 318 318 317 317 317 316 316 315 315 314 314 314 314 314 314 313 311 310 309 309 310 310 311 312 312 312 312 311 310 309 306 304 303 305 306 308 309 309
316 316 317 317 318 317 317 317 317 316 316 315 315 314 314 314 313 313 313 313 312 310 309 309 309 310 311 312 312 313 312 311 310 309 307 305 303 302 303 305 306 306
316 316 317 317 317 317 317 316 316 316 315 315 314 314 313 313 312 312 312 312 311 310 309 309 309 310 311 311 312 313 313 311 310 309 307 306 304 302 301 302 304 304
315 316 317 317 317 316 316 316 315 315 315 314 314 313 312 312 311 311 310 310 309 308 308 308 309 309 310 311 312 313 312 311 310 308 307 306 305 303 302 301 302 302
315 316 316 316 316 316 316 316 315 315 314 314 313 313 312 311 311 310 309 308 307 306 306 306 307 308 309 310 310 311 311 310 309 308 306 305 304 303 302 301 301 301
315 315 316 315 315 315 315 315 314 314 314 313 313 312 312 311 310 309 307 306 305 305 305 305 305 307 308 309 309 309 309 308 307 307 306 305 304 303 301 300 300 300
314 315 315 315 314 314 314 314 313 313 313 312 312 311 310 309 308 307 305 303 302 302 302 303 303 305 306 307 308 308 308 307 306 306 305 304 303 302 301 299 299 299